[[{"header":{"parameterUnit":"m.s-1","parameterCategory":1,"la1":30.6,"la2":28.766,"lo1":-90.7593,"lo2":-88.6598,"dy":0.0162,"dx":0.0183,"nx":116,"ny":114,"refTime":"2023-06-11T06:00:00:Z","depth":0,"parameterNumber":2,"parameterNumberName":"U-component_of_WINDS"},"data":[0.0,0.0,0.0,0.0,0.0,0.0,0.0,0.0,0.0,0.0,0.0,0.0,0.0,0.0,0.0,0.0,0.0,0.0,0.0,0.0,0.0,0.0,0.0,0.0,0.0,0.0,0.0,0.0,0.0,0.0,0.0,0.0,0.0,0.0,0.0,0.0,0.0,0.0,0.0,0.0,0.0,0.0,0.0,0.0,0.0,0.0,0.0,0.0,0.0,0.0,0.0,0.0,0.0,0.0,0.0,0.0,0.0,0.0,0.0,0.0,0.0,0.0,0.0,0.0,0.0,0.0,0.0,0.0,0.0,0.0,0.0,0.0,0.0,0.0,0.0,0.0,0.0,0.0,0.0,0.0,0.0,0.0,0.0,0.0,0.0,0.0,0.0,0.0,0.0,0.0,0.0,0.0,0.0,0.0,0.0,0.0,0.0,0.0,0.0,0.0,0.0,0.0,0.0,0.0,0.0,0.0,0.0,0.0,0.0,0.0,0.0,0.0,0.0,0.0,0.0,0.0,0.0,0.0,0.0,0.0,0.0,0.0,0.0,0.0,0.0,0.0,0.0,0.0,0.0,0.0,0.0,0.0,0.0,0.0,0.0,0.0,0.0,0.0,0.0,0.0,0.0,0.0,0.0,0.0,0.0,0.0,0.0,0.0,0.0,0.0,0.0,0.0,0.0,0.0,0.0,0.0,0.0,0.0,0.0,0.0,0.0,0.0,0.0,0.0,0.0,0.0,0.0,0.0,0.0,0.0,0.0,0.0,0.0,0.0,0.0,0.0,0.0,0.0,0.0,0.0,0.0,0.0,0.0,0.0,0.0,0.0,0.0,0.0,0.0,0.0,0.0,0.0,0.0,0.0,0.0,0.0,0.0,0.0,0.0,0.0,0.0,0.0,0.0,0.0,0.0,0.0,0.0,0.0,0.0,0.0,0.0,0.0,0.0,0.0,0.0,0.0,0.0,0.0,0.0,0.0,0.0,0.0,0.0,0.0,0.0,0.0,0.0,0.0,0.0,0.0,0.0,0.0,0.0,0.0,0.0,0.0,0.0,0.0,0.0,0.0,0.0,0.0,0.0,0.0,0.0,0.0,0.0,0.0,0.0,0.0,0.0,0.0,0.0,0.0,0.0,0.0,0.0,0.0,0.0,0.0,0.0,0.0,0.0,0.0,0.0,0.0,0.0,0.0,0.0,0.0,0.0,0.0,0.0,0.0,0.0,0.0,0.0,0.0,0.0,0.0,0.0,0.0,0.0,0.0,0.0,0.0,0.0,0.0,0.0,0.0,0.0,0.0,0.0,0.0,0.0,0.0,0.0,0.0,0.0,0.0,0.0,0.0,0.0,0.0,0.0,0.0,0.0,0.0,0.0,0.0,0.0,0.0,0.0,0.0,0.0,0.0,0.0,0.0,0.0,0.0,0.0,0.0,0.0,0.0,0.0,0.0,0.0,0.0,0.0,0.0,0.0,0.0,0.0,0.0,0.0,0.0,0.0,0.0,0.0,0.0,0.0,0.0,0.0,0.0,0.0,0.0,0.0,0.0,0.0,0.0,0.0,0.0,0.0,0.0,0.0,0.0,0.0,0.0,0.0,0.0,0.0,0.0,0.0,0.0,0.0,0.0,0.0,0.0,0.0,0.0,0.0,0.0,0.0,0.0,0.0,0.0,0.0,0.0,0.0,0.0,0.0,0.0,0.0,0.0,0.0,0.0,0.0,0.0,0.0,0.0,0.0,0.0,0.0,0.0,0.0,0.0,0.0,0.0,0.0,0.0,0.0,0.0,0.0,0.0,0.0,0.0,0.0,0.0,0.0,0.0,0.0,0.0,0.0,0.0,0.0,0.0,0.0,0.0,0.0,0.0,0.0,0.0,0.0,0.0,0.0,0.0,0.0,0.0,0.0,0.0,0.0,0.0,0.0,0.0,0.0,0.0,0.0,0.0,0.0,0.0,0.0,0.0,0.0,0.0,0.0,0.0,0.0,0.0,0.0,0.0,0.0,0.0,0.0,0.0,0.0,0.0,0.0,0.0,0.0,0.0,0.0,0.0,0.0,0.0,0.0,0.0,0.0,0.0,0.0,0.0,0.0,0.0,0.0,0.0,0.0,0.0,0.0,0.0,0.0,0.0,0.0,0.0,0.0,0.0,0.0,0.0,0.0,0.0,0.0,0.0,0.0,0.0,0.0,0.0,0.0,0.0,0.0,0.0,0.0,0.0,0.0,0.0,0.0,0.0,0.0,0.0,0.0,0.0,0.0,0.0,0.0,0.0,0.0,0.0,0.0,0.0,0.0,0.0,0.0,0.0,0.0,0.0,0.0,0.0,0.0,0.0,0.0,0.0,0.0,0.0,0.0,0.0,0.0,0.0,0.0,0.0,0.0,0.0,0.0,0.0,0.0,0.0,0.0,0.0,0.0,0.0,0.0,0.0,0.0,0.0,0.0,0.0,0.0,0.0,0.0,0.0,0.0,0.0,0.0,0.0,0.0,0.0,0.0,0.0,0.0,0.0,0.0,0.0,0.0,0.0,0.0,0.0,0.0,0.0,0.0,0.0,0.0,0.0,0.0,0.0,0.0,0.0,0.0,0.0,0.0,0.0,0.0,0.0,0.0,0.0,0.0,0.0,0.0,0.0,0.0,0.0,0.0,0.0,0.0,0.0,0.0,0.0,0.0,0.0,0.0,0.0,0.0,0.0,0.0,0.0,0.0,0.0,0.0,0.0,0.0,0.0,0.0,0.0,0.0,0.0,0.0,0.0,0.0,0.0,0.0,0.0,0.0,0.0,0.0,0.0,0.0,0.0,0.0,0.0,0.0,0.0,0.0,0.0,0.0,0.0,0.0,0.0,0.0,0.0,0.0,0.0,0.0,0.0,0.0,0.0,0.0,0.0,0.0,0.0,0.0,0.0,0.0,0.0,0.0,0.0,0.0,0.0,0.0,0.0,0.0,0.0,0.0,0.0,0.0,0.0,0.0,0.0,0.0,0.0,0.0,0.0,0.0,0.0,0.0,0.0,0.0,0.0,0.0,0.0,0.0,0.0,0.0,0.0,0.0,0.0,0.0,0.0,0.0,0.0,0.0,0.0,0.0,0.0,0.0,0.0,0.0,0.0,0.0,0.0,0.0,0.0,0.0,0.0,0.0,0.0,0.0,0.0,0.0,0.0,0.0,0.0,0.0,0.0,0.0,0.0,0.0,0.0,0.0,0.0,0.0,0.0,0.0,0.0,0.0,0.0,0.0,0.0,0.0,0.0,0.0,0.0,0.0,0.0,0.0,0.0,0.0,0.0,0.0,0.0,0.0,0.0,0.0,0.0,0.0,0.0,0.0,0.0,0.0,0.0,0.0,0.0,0.0,0.0,0.0,0.0,0.0,0.0,0.0,0.0,0.0,0.0,0.0,0.0,0.0,0.0,0.0,0.0,0.0,0.0,0.0,0.0,0.0,0.0,0.0,0.0,0.0,0.0,0.0,0.0,0.0,0.0,0.0,0.0,0.0,0.0,0.0,0.0,0.0,0.0,0.0,0.0,0.0,0.0,0.0,0.0,0.0,0.0,0.0,0.0,0.0,0.0,0.0,0.0,0.0,0.0,0.0,0.0,0.0,0.0,0.0,0.0,0.0,0.0,0.0,0.0,0.0,0.0,0.0,0.0,0.0,0.0,0.0,0.0,0.0,0.0,0.0,0.0,0.0,0.0,0.0,0.0,0.0,0.0,0.0,0.0,0.0,0.0,0.0,0.0,0.0,0.0,0.0,0.0,0.0,0.0,0.0,0.0,0.0,0.0,0.0,0.0,0.0,0.0,0.0,0.0,0.0,0.0,0.0,0.0,0.0,0.0,0.0,0.0,0.0,0.0,0.0,0.0,0.0,0.0,0.0,0.0,0.0,0.0,0.0,0.0,0.0,0.0,0.0,0.0,0.0,0.0,0.0,0.0,0.0,0.0,0.0,0.0,0.0,0.0,0.0,0.0,0.0,0.0,0.0,0.0,0.0,0.0,0.0,0.0,0.0,0.0,0.0,0.0,0.0,0.0,0.0,0.0,0.0,0.0,0.0,0.0,0.0,0.0,0.0,0.0,0.0,0.0,0.0,0.0,0.0,0.0,0.0,0.0,0.0,0.0,0.0,0.0,0.0,0.0,0.0,0.0,0.0,0.0,0.0,0.0,0.0,0.0,0.0,0.0,0.0,0.0,0.0,0.0,0.0,0.0,0.0,0.0,0.0,0.0,0.0,0.0,0.0,0.0,0.0,0.0,0.0,0.0,0.0,0.0,0.0,0.0,0.0,0.0,0.0,0.0,0.0,0.0,0.0,0.0,0.0,0.0,0.0,0.0,0.0,0.0,0.0,0.0,0.0,0.0,0.0,0.0,0.0,0.0,0.0,0.0,0.0,0.0,0.0,0.0,0.0,0.0,0.0,0.0,0.0,0.0,0.0,0.0,0.0,0.0,0.0,0.0,0.0,0.0,0.0,0.0,0.0,0.0,0.0,0.0,0.0,0.0,0.0,0.0,0.0,0.0,0.0,0.0,0.0,0.0,0.0,0.0,0.0,0.0,0.0,0.0,0.0,0.0,0.0,0.0,0.0,0.0,0.0,0.0,0.0,0.0,0.0,0.0,0.0,0.0,0.0,0.0,0.0,0.0,0.0,0.0,0.0,0.0,0.0,0.0,0.0,0.0,0.0,0.0,0.0,0.0,0.0,0.0,0.0,0.0,0.0,0.0,0.0,0.0,0.0,0.0,0.0,0.0,0.0,0.0,0.0,0.0,0.0,0.0,0.0,0.0,0.0,0.0,0.0,0.0,0.0,0.0,0.0,0.0,0.0,0.0,0.0,0.0,0.0,0.0,0.0,0.0,0.0,0.0,0.0,0.0,0.0,0.0,0.0,0.0,0.0,0.0,0.0,0.0,0.0,0.0,0.0,0.0,0.0,0.0,0.0,0.0,0.0,0.0,0.0,0.0,0.0,0.0,0.0,0.0,0.0,0.0,0.0,0.0,0.0,0.0,0.0,0.0,0.0,0.0,0.0,0.0,0.0,0.0,0.0,0.0,0.0,0.0,0.0,0.0,0.0,0.0,0.0,0.0,0.0,0.0,0.0,0.0,0.0,0.0,0.0,0.0,0.0,0.0,0.0,0.0,0.0,0.0,0.0,0.0,0.0,0.0,0.0,0.0,0.0,0.0,0.0,0.0,0.0,0.0,0.0,0.0,0.0,0.0,0.0,0.0,0.0,0.0,0.0,0.0,0.0,0.0,0.0,0.0,0.0,0.0,0.0,0.0,0.0,0.0,0.0,0.0,0.0,0.0,0.0,0.0,0.0,0.0,0.0,0.0,0.0,0.0,0.0,0.0,0.0,0.0,0.0,0.0,0.0,0.0,0.0,0.0,0.0,0.0,0.0,0.0,0.0,0.0,0.0,0.0,0.0,0.0,0.0,0.0,0.0,0.0,0.0,0.0,0.0,0.0,0.0,0.0,0.0,0.0,0.0,0.0,0.0,0.0,0.0,0.0,0.0,0.0,0.0,0.0,0.0,0.0,0.0,0.0,0.0,0.0,0.0,0.0,0.0,0.0,0.0,0.0,0.0,0.0,0.0,0.0,0.0,0.0,0.0,0.0,0.0,0.0,0.0,0.0,0.0,0.0,0.0,0.0,0.0,0.0,0.0,0.0,0.0,0.0,0.0,0.0,0.0,0.0,0.0,0.0,0.0,0.0,0.0,0.0,0.0,0.0,0.0,0.0,0.0,0.0,0.0,0.0,0.0,0.0,0.0,0.0,0.0,0.0,0.0,0.0,0.0,0.0,0.0,0.0,0.0,0.0,0.0,0.0,0.0,0.0,0.0,0.0,0.0,0.0,0.0,0.0,0.0,0.0,0.0,0.0,0.0,0.0,0.0,0.0,0.0,0.0,0.0,0.0,0.0,0.0,0.0,0.0,0.0,0.0,0.0,0.0,0.0,0.0,0.0,0.0,0.0,0.0,0.0,0.0,0.0,0.0,0.0,0.0,0.0,0.0,0.0,0.0,0.0,0.0,0.0,0.0,0.0,0.0,0.0,0.0,0.0,0.0,0.0,0.0,0.0,0.0,0.0,0.0,0.0,0.0,0.0,0.0,-2.6312,0.0,0.0,0.0,0.0,0.0,0.0,0.0,0.0,0.0,0.0,0.0,0.0,0.0,0.0,0.0,0.0,0.0,0.0,0.0,0.0,0.0,0.0,0.0,0.0,0.0,0.0,0.0,0.0,0.0,0.0,0.0,0.0,0.0,0.0,0.0,0.0,0.0,0.0,0.0,0.0,0.0,0.0,0.0,0.0,0.0,0.0,0.0,0.0,0.0,0.0,0.0,0.0,0.0,0.0,0.0,0.0,0.0,0.0,0.0,0.0,0.0,0.0,0.0,0.0,0.0,0.0,0.0,0.0,0.0,0.0,0.0,0.0,0.0,0.0,0.0,0.0,0.0,0.0,0.0,0.0,0.0,0.0,0.0,0.0,0.0,0.0,0.0,0.0,0.0,0.0,0.0,0.0,0.0,0.0,0.0,0.0,0.0,0.0,0.0,0.0,0.0,0.0,0.0,0.0,0.0,0.0,0.0,0.0,0.0,0.0,0.0,0.0,0.0,0.0,0.0,0.0,-2.802,0.0,0.0,0.0,0.0,0.0,0.0,0.0,0.0,0.0,0.0,0.0,0.0,0.0,0.0,0.0,0.0,0.0,0.0,0.0,0.0,0.0,0.0,0.0,0.0,0.0,0.0,0.0,0.0,0.0,0.0,0.0,0.0,0.0,0.0,0.0,0.0,0.0,0.0,0.0,0.0,0.0,0.0,0.0,0.0,0.0,0.0,0.0,0.0,0.0,0.0,0.0,0.0,0.0,0.0,0.0,0.0,0.0,0.0,0.0,0.0,0.0,0.0,0.0,0.0,0.0,0.0,0.0,0.0,0.0,0.0,0.0,0.0,0.0,0.0,0.0,0.0,0.0,0.0,0.0,0.0,0.0,0.0,0.0,0.0,0.0,0.0,0.0,0.0,0.0,0.0,0.0,0.0,0.0,0.0,0.0,0.0,0.0,0.0,0.0,0.0,0.0,0.0,0.0,0.0,0.0,0.0,0.0,0.0,-3.6582,-3.7168,-3.7331,-3.7331,-3.7041,-3.6409,-3.3503,-3.1295,-2.9697,-2.9581,0.0,0.0,0.0,0.0,0.0,0.0,0.0,0.0,0.0,0.0,0.0,0.0,0.0,0.0,0.0,0.0,0.0,0.0,0.0,0.0,0.0,0.0,0.0,0.0,0.0,0.0,0.0,0.0,0.0,0.0,0.0,0.0,0.0,0.0,0.0,0.0,0.0,0.0,-2.8486,-2.9802,-2.9285,-2.7166,0.0,0.0,0.0,0.0,0.0,0.0,0.0,0.0,0.0,0.0,0.0,0.0,0.0,0.0,0.0,0.0,0.0,0.0,0.0,0.0,0.0,0.0,0.0,0.0,0.0,0.0,0.0,0.0,0.0,0.0,0.0,0.0,0.0,0.0,0.0,0.0,0.0,0.0,0.0,0.0,0.0,0.0,0.0,0.0,-2.5049,-2.5914,0.0,0.0,0.0,0.0,0.0,0.0,0.0,0.0,0.0,0.0,0.0,0.0,0.0,-3.4239,-3.723,-3.809,-3.9072,-4.0234,-4.0982,-4.1291,-4.1337,-4.1337,-4.1279,-4.1134,-3.9538,0.0,-3.3616,-3.3097,0.0,0.0,0.0,0.0,0.0,0.0,0.0,0.0,0.0,0.0,0.0,0.0,0.0,0.0,0.0,0.0,0.0,0.0,0.0,0.0,0.0,0.0,0.0,0.0,0.0,0.0,0.0,0.0,0.0,0.0,0.0,0.0,0.0,0.0,0.0,0.0,-2.7906,-3.0163,-3.1001,-3.2778,-3.2983,-3.1853,-3.0408,-2.788,-2.471,-2.3896,0.0,0.0,0.0,0.0,0.0,0.0,0.0,0.0,0.0,0.0,0.0,0.0,0.0,0.0,0.0,0.0,0.0,0.0,0.0,0.0,0.0,0.0,0.0,0.0,0.0,0.0,0.0,0.0,0.0,0.0,0.0,0.0,0.0,0.0,0.0,0.0,0.0,0.0,0.0,-2.6419,-2.8284,-2.7788,-2.9279,-2.9676,0.0,0.0,0.0,0.0,0.0,0.0,0.0,0.0,0.0,-3.6272,-3.6597,-3.8028,-4.0873,-4.1889,-4.3224,-4.485,-4.5518,-4.6011,-4.6388,-4.6359,-4.6156,-4.5779,-4.4821,-4.2673,-3.9567,-3.678,-3.4806,-3.347,0.0,0.0,0.0,0.0,-3.051,-3.0829,0.0,0.0,0.0,0.0,0.0,0.0,0.0,0.0,0.0,0.0,0.0,0.0,0.0,0.0,0.0,-2.4637,0.0,0.0,0.0,0.0,0.0,0.0,0.0,0.0,0.0,0.0,0.0,0.0,-3.0688,-3.2688,-3.4001,-3.5808,-3.6298,-3.5641,-3.4722,-3.1363,-2.6251,-2.5377,-2.4081,0.0,0.0,0.0,0.0,0.0,0.0,0.0,0.0,0.0,0.0,0.0,0.0,0.0,0.0,0.0,0.0,0.0,0.0,0.0,0.0,0.0,0.0,0.0,0.0,0.0,0.0,0.0,0.0,0.0,0.0,0.0,0.0,0.0,0.0,0.0,0.0,0.0,0.0,-2.8695,-3.0637,-2.9132,-3.1639,-3.2516,0.0,0.0,0.0,0.0,0.0,0.0,-3.5101,-3.6264,-3.8036,-4.0583,-4.0815,-4.2208,-4.4937,-4.5721,-4.694,-4.8537,-4.9001,-4.9582,-5.022,-5.0191,-4.9901,-4.9407,-4.8624,-4.7201,-4.5111,-4.0612,-3.7622,-3.5822,-3.5183,-3.4084,-3.2835,-3.2948,-3.3325,-3.3699,0.0,0.0,0.0,0.0,0.0,0.0,0.0,0.0,0.0,0.0,0.0,0.0,0.0,0.0,-2.605,-2.7289,-2.6623,-2.5667,0.0,0.0,0.0,0.0,0.0,0.0,0.0,0.0,0.0,-3.1173,-3.3977,-3.6289,-3.8053,-3.9208,-3.924,-3.8239,-3.688,-3.3909,-2.9856,-2.8496,-2.6725,-2.4732,0.0,0.0,0.0,0.0,0.0,0.0,0.0,0.0,0.0,0.0,0.0,0.0,0.0,0.0,0.0,0.0,0.0,0.0,0.0,0.0,0.0,0.0,0.0,0.0,0.0,0.0,0.0,0.0,0.0,0.0,0.0,0.0,0.0,0.0,0.0,0.0,0.0,0.0,0.0,-2.8752,-3.4339,0.0,0.0,0.0,0.0,-3.3278,-3.5014,-3.7194,-3.9625,-4.0437,-4.2789,-4.7172,-4.6156,-4.7085,-5.0249,-4.9756,-4.9843,-5.054,-5.0569,-5.0917,-5.1527,-5.1527,-5.1497,-5.141,-5.0162,-4.9553,-4.9088,-4.456,-4.157,-3.9741,-3.916,-3.8841,-3.8609,-3.7447,-3.7041,-3.6983,0.0,0.0,0.0,0.0,0.0,0.0,0.0,0.0,0.0,0.0,0.0,0.0,0.0,-2.6361,-2.8253,-2.9981,-3.0183,-2.9369,-2.732,0.0,0.0,0.0,0.0,0.0,0.0,0.0,-2.9034,-3.2761,-3.5677,-3.737,-3.7945,-3.9515,-3.99,-3.9245,-3.8777,-3.7151,-3.4695,-3.1476,-2.8884,-2.6883,-2.5471,-2.3954,0.0,0.0,0.0,0.0,0.0,0.0,0.0,0.0,0.0,0.0,0.0,0.0,0.0,0.0,0.0,0.0,0.0,0.0,0.0,0.0,0.0,0.0,0.0,0.0,0.0,0.0,0.0,0.0,0.0,0.0,0.0,0.0,0.0,0.0,0.0,0.0,0.0,-3.4197,-3.8095,0.0,-3.6107,-3.677,-3.731,-3.7194,-3.9712,-4.2005,-4.3718,-4.5198,-4.7114,-4.9601,-4.9611,-5.0511,-5.2484,-5.2717,-5.292,-5.3152,-5.3152,-5.3036,-5.2833,-5.2833,-5.2601,-5.2194,-5.1759,-5.0859,-4.9582,-4.7985,-4.5459,-4.2498,-4.1453,-4.0525,-3.977,-3.9741,-3.9741,-3.9712,0.0,0.0,0.0,0.0,0.0,0.0,0.0,0.0,0.0,0.0,0.0,-2.4568,-2.6716,-2.8727,-3.0821,-3.3006,-3.2766,-3.1509,-2.9086,0.0,0.0,0.0,0.0,0.0,0.0,0.0,-3.1336,-3.4735,-3.7047,-3.8201,-3.8271,-3.9603,-4.0063,-3.977,-3.9722,-3.9148,-3.8026,-3.4963,-3.2203,-2.9674,-2.781,-2.623,-2.4744,0.0,0.0,0.0,0.0,0.0,0.0,0.0,0.0,0.0,0.0,0.0,0.0,0.0,0.0,0.0,0.0,0.0,0.0,0.0,0.0,0.0,0.0,0.0,0.0,0.0,0.0,0.0,0.0,0.0,0.0,0.0,0.0,0.0,0.0,0.0,-3.741,-3.8122,-4.1586,-4.3105,-4.1126,-4.1656,-4.2179,-4.2411,-4.4995,-4.694,-4.7782,-4.9233,-5.0714,-5.2223,-5.2281,-5.2978,-5.4458,-5.4691,-5.4807,-5.4807,-5.4604,-5.4284,-5.3849,-5.3617,-5.3297,-5.2862,-5.271,-5.173,-5.0307,-5.0133,-4.8275,-4.5459,-4.4182,-4.3137,-4.2382,-4.2382,-4.2382,-4.2324,0.0,0.0,0.0,0.0,0.0,0.0,0.0,0.0,0.0,0.0,-2.2712,-2.6092,-2.9292,-3.139,-3.3634,-3.6297,-3.4053,-3.1659,-2.9771,-2.7051,0.0,0.0,0.0,0.0,0.0,0.0,0.0,0.0,-3.8252,-3.9018,-3.9439,-3.9768,-3.9915,-3.9889,-3.9767,-3.9727,-3.9668,-3.8905,-3.6629,-3.3277,-3.0409,-2.924,-2.8735,0.0,0.0,0.0,0.0,0.0,0.0,0.0,0.0,0.0,0.0,0.0,0.0,0.0,0.0,0.0,0.0,0.0,0.0,0.0,0.0,0.0,0.0,0.0,0.0,0.0,0.0,0.0,0.0,0.0,0.0,0.0,0.0,0.0,-3.1743,-3.7074,-4.0628,-4.0199,-4.4744,-4.7184,-4.5287,-4.6795,-4.813,-4.874,-5.0598,-5.1701,-5.1672,-5.231,-5.353,-5.5358,-5.4226,-5.4517,-5.6374,-5.5794,-5.5445,-5.5416,-5.4865,-5.4546,-5.4487,-5.3849,-5.3559,-5.3471,-5.2891,-5.2252,-5.1556,-5.0946,-4.993,-4.8624,-4.7329,-4.6807,-4.6633,-4.5401,-4.4908,-4.4676,0.0,0.0,0.0,0.0,0.0,0.0,0.0,0.0,0.0,0.0,-2.3149,-2.7136,-2.9953,-3.2467,-3.4801,-3.6956,-3.3842,-3.1331,-3.0313,0.0,0.0,0.0,0.0,0.0,0.0,0.0,0.0,0.0,0.0,-4.0064,-4.0106,-4.0068,-4.003,-3.9964,-3.9931,-4.0107,-4.0473,-4.0235,-3.9563,-3.827,-3.4415,-3.1981,-3.0314,0.0,0.0,0.0,0.0,0.0,0.0,0.0,0.0,0.0,0.0,0.0,0.0,0.0,0.0,0.0,0.0,0.0,0.0,0.0,0.0,0.0,0.0,0.0,0.0,0.0,0.0,0.0,0.0,0.0,0.0,0.0,0.0,-3.6201,-3.752,-4.0626,-4.3903,-4.717,-4.9303,-5.033,-4.9814,-5.0249,-5.0452,-5.0162,-5.2368,-5.35,-5.3007,-5.4487,-5.5358,-5.5416,-5.5533,-5.5881,-5.6403,-5.6665,-5.6578,-5.6142,-5.5968,-5.5416,-5.4517,-5.4778,-5.4371,-5.353,-5.3849,-5.3065,-5.1614,-5.1439,-5.0598,-4.932,-4.8508,-4.759,-4.6749,-4.6417,-4.543,-4.4124,0.0,0.0,0.0,0.0,0.0,0.0,0.0,0.0,0.0,0.0,-2.3417,-2.75,-2.9864,-3.2766,-3.4863,-3.5699,-3.2886,-3.0315,-2.8577,0.0,0.0,0.0,0.0,0.0,0.0,0.0,0.0,0.0,0.0,0.0,-4.0461,-4.0197,-4.0081,-4.0047,-4.0305,-4.0583,-4.0913,-4.1441,-4.1607,-4.1319,-3.881,-3.6406,-3.3945,-3.1286,-2.9927,-2.9169,-2.6904,-2.6872,-2.7598,-2.5408,0.0,0.0,0.0,0.0,0.0,0.0,0.0,0.0,0.0,0.0,0.0,0.0,0.0,0.0,0.0,0.0,0.0,0.0,0.0,0.0,0.0,0.0,0.0,0.0,-3.7244,-4.0906,-4.404,-4.542,-4.7424,-5.0945,-5.2224,-5.292,-5.3181,-5.3471,-5.3471,-5.3094,-5.4952,-5.5591,-5.4371,-5.5881,-5.649,-5.5852,-5.62,-5.652,-5.6781,-5.7129,-5.7129,-5.6781,-5.652,-5.6026,-5.53,-5.5387,-5.4865,-5.3965,-5.4342,-5.3559,-5.1991,-5.173,-5.1004,0.0,0.0,0.0,0.0,0.0,-4.5547,-4.4269,0.0,0.0,0.0,0.0,0.0,0.0,0.0,0.0,0.0,0.0,0.0,-2.7021,-2.9052,-3.2077,-3.3815,-3.3425,-3.136,-2.8786,0.0,0.0,0.0,0.0,0.0,0.0,0.0,0.0,0.0,0.0,0.0,0.0,0.0,0.0,-4.0506,-4.0361,-4.0871,-4.1113,-4.1177,-4.234,-4.2911,-4.3051,-4.2928,-4.1241,-3.8397,-3.5142,-3.4162,-3.4099,-3.0851,-2.984,-2.9809,-2.8316,0.0,0.0,0.0,0.0,0.0,0.0,0.0,0.0,0.0,0.0,0.0,0.0,0.0,0.0,0.0,0.0,0.0,0.0,0.0,0.0,0.0,0.0,0.0,0.0,-4.067,-4.4763,-5.022,-5.0627,-5.1033,-5.2804,-5.4023,-5.4923,-5.5474,-5.6055,-5.6403,-5.6403,-5.7594,-5.7507,-5.5707,0.0,0.0,0.0,0.0,-5.6926,-5.7303,-5.739,-5.739,-5.7303,-5.6781,-5.649,-5.6374,-5.5852,-5.5242,-5.4604,-5.4604,-5.3878,-5.263,-5.1904,-5.1149,-5.0278,-4.8478,-4.7782,-4.7637,-4.6359,-4.5459,-4.4792,0.0,0.0,0.0,0.0,0.0,0.0,0.0,0.0,0.0,-1.8741,-2.1984,-2.4956,-2.6961,-2.9202,-3.112,-3.2587,-2.9415,-2.6841,0.0,0.0,0.0,0.0,0.0,0.0,0.0,0.0,0.0,0.0,0.0,0.0,0.0,0.0,0.0,-4.1715,-4.1837,-4.184,-4.1783,-4.2629,-4.3499,-4.4409,-4.4342,-4.2663,-4.0008,-3.8175,-3.685,-3.5774,-3.3941,-3.4415,-3.5489,-3.2961,-3.2771,-3.3056,-3.0141,0.0,0.0,0.0,0.0,0.0,0.0,0.0,0.0,0.0,0.0,0.0,0.0,0.0,0.0,0.0,0.0,0.0,0.0,0.0,0.0,-4.067,-4.4705,-4.874,-5.2455,-5.3733,-5.4633,-5.5562,-5.5881,-5.6084,-5.62,-5.6316,-5.6403,-5.6403,-5.7594,-5.7913,-5.6984,-5.8203,-5.8377,-5.7158,-5.8174,-5.829,-5.7303,-5.7826,-5.7826,-5.7303,0.0,0.0,-5.6432,-5.6781,-5.6316,-5.5242,-5.5242,-5.4517,-5.3239,-5.2107,-5.0627,-4.9001,-4.813,-4.7782,-4.7637,-4.6359,-4.5459,-4.4792,0.0,0.0,0.0,0.0,0.0,0.0,0.0,0.0,0.0,0.0,-2.0873,-2.3194,-2.45,-2.6393,-2.759,-2.759,-2.5794,0.0,0.0,0.0,0.0,0.0,0.0,0.0,0.0,0.0,0.0,0.0,0.0,0.0,0.0,0.0,0.0,-4.305,-4.305,-4.3015,-4.2984,-4.3688,-4.4507,-4.537,-4.5615,-4.4746,-4.3011,-4.1272,-3.9945,-3.8871,-3.7828,-3.7891,-3.8207,-3.65,-3.59,-3.5552,-3.3435,-3.0875,-2.8347,0.0,0.0,0.0,0.0,0.0,0.0,0.0,0.0,0.0,0.0,0.0,0.0,0.0,0.0,-3.3732,-3.469,0.0,-4.1831,-4.4095,-4.7956,-5.1439,-5.3704,-5.5358,-5.6374,-5.6403,-5.6665,-5.6723,-5.6432,-5.6665,-5.6868,-5.6868,-5.8058,-5.8523,-5.7826,-5.8755,-5.8842,-5.7826,-5.8464,-5.8319,-5.7303,-5.7971,-5.7971,-5.7303,-5.7303,-5.7158,-5.6868,-5.6868,-5.6316,-5.5387,-5.5097,-5.44,-5.3413,-5.2136,-5.0656,-4.9117,-4.8159,-4.7579,-4.7201,-4.6243,-4.5663,-4.5256,0.0,0.0,0.0,0.0,0.0,0.0,0.0,0.0,0.0,0.0,0.0,-2.1272,-2.1864,-2.343,-2.3819,0.0,0.0,0.0,0.0,0.0,0.0,0.0,0.0,0.0,0.0,0.0,0.0,0.0,0.0,0.0,0.0,0.0,0.0,0.0,-4.4269,-4.4196,-4.4196,-4.4824,-4.5472,-4.6131,-4.6748,-4.6538,-4.5609,-4.3797,-4.2537,-4.1715,-4.1051,-3.9977,-3.8871,-3.8744,-3.7671,-3.6345,-3.609,-3.4257,-3.1798,-2.9706,-2.8252,0.0,0.0,0.0,0.0,0.0,0.0,0.0,0.0,0.0,-3.36,-3.4673,-3.6328,-3.8065,-3.9421,-4.276,-4.5808,-4.7317,-5.0598,-5.3326,-5.4371,-5.591,-5.6752,-5.6258,-5.6984,-5.7216,-5.649,-5.7071,-5.7565,-5.7681,-5.8697,-5.9132,-5.8697,-5.9074,-5.8987,-5.8319,-5.8435,-5.8116,-5.7303,-5.7971,-5.7971,-5.7303,-5.7303,-5.7303,-5.7274,-5.6694,-5.6171,-5.5736,-5.501,-5.411,-5.3065,-5.2049,-5.0772,-4.9378,-4.8217,-4.7375,-4.672,-4.6127,-4.5895,-4.5721,0.0,0.0,0.0,0.0,0.0,0.0,0.0,0.0,0.0,0.0,0.0,0.0,0.0,0.0,0.0,0.0,0.0,0.0,0.0,0.0,0.0,0.0,0.0,0.0,0.0,0.0,0.0,0.0,0.0,0.0,0.0,0.0,0.0,0.0,0.0,-4.5011,-4.4836,-4.5502,-4.6202,-4.6851,-4.7507,-4.6981,-4.5694,-4.4818,-4.3674,-4.2473,-4.1746,-3.9439,-3.7008,-3.8807,-3.8081,-3.6598,-3.7796,-3.7072,-3.5398,-3.334,0.0,-2.7936,-2.7778,-2.7905,-2.8568,-3.0472,-3.0866,-3.2414,0.0,0.0,-3.9341,-4.2699,-4.4528,-4.543,-4.5082,-4.7724,-4.9988,-5.022,-5.2514,-5.4342,-5.4487,-5.5155,-5.5591,-5.5533,-5.71,-5.771,-5.652,-5.7477,-5.8435,-5.9045,-5.9219,-5.951,-5.9974,-5.9539,-5.8987,-5.8319,-5.8871,-5.8581,-5.7303,-5.7971,-5.7971,-5.7303,-5.7303,-5.7303,-5.7274,-5.6694,-5.6665,-5.7013,-5.5823,-5.3994,-5.1817,-5.1672,-5.0511,-4.8769,-4.8043,-4.7375,-4.672,-4.6127,-4.5895,-4.5779,0.0,0.0,0.0,0.0,0.0,0.0,0.0,0.0,0.0,0.0,0.0,0.0,0.0,0.0,0.0,0.0,0.0,0.0,0.0,0.0,0.0,0.0,0.0,0.0,0.0,0.0,0.0,0.0,0.0,0.0,0.0,0.0,0.0,0.0,0.0,0.0,-4.5682,-4.5962,-4.6402,-4.6945,-4.7207,-4.6761,-4.5752,-4.4671,-4.2788,-4.0476,-3.9534,-3.7986,0.0,0.0,-3.6184,-3.5995,-3.6945,-3.6029,-3.4352,-3.3087,-3.1381,0.0,-3.1381,-3.1697,0.0,0.0,-3.6867,-3.9111,-4.212,-4.3515,-4.4644,-4.6211,-4.759,-4.8537,-4.8653,-5.0415,-5.1904,0.0,-5.3559,-5.4517,-5.4517,-5.472,-5.4342,-5.2833,-5.4023,-5.5184,-5.5765,-5.5997,-5.6374,-5.6984,-5.771,-5.8406,-5.9074,-5.8871,-5.8784,-5.8871,-5.9161,-5.8668,-5.7303,-5.8348,-5.8348,-5.7303,-5.7303,-5.7303,-5.7274,-5.6694,-5.6142,-5.562,-5.4691,-5.3268,-5.1614,-5.1614,-5.0481,-4.8653,-4.8043,-4.7375,-4.672,-4.6127,-4.5895,-4.5779,0.0,0.0,0.0,0.0,0.0,0.0,0.0,0.0,0.0,0.0,0.0,0.0,0.0,0.0,0.0,0.0,0.0,0.0,0.0,0.0,0.0,0.0,0.0,0.0,0.0,0.0,0.0,0.0,0.0,0.0,0.0,0.0,0.0,0.0,0.0,0.0,-4.6314,-4.6314,-4.6373,-4.6533,-4.6707,-4.6005,-4.4769,-4.3449,-4.0756,-3.7663,-3.6876,-3.5394,0.0,0.0,-3.2856,-3.3203,-3.4545,-3.4198,-3.3214,-3.2734,-3.1918,-3.1571,-3.3277,0.0,0.0,-3.8807,-4.2151,-4.494,-4.6232,-4.794,-4.9374,-4.9916,-5.0271,-5.0676,-5.112,-5.2013,-5.2775,-5.3413,-5.4081,-5.4517,-5.4517,-5.4052,-5.2949,-5.0917,-5.0859,-5.1672,-5.3384,-5.382,-5.4371,-5.5329,-5.6432,-5.7507,-5.8523,-5.8406,-5.861,-5.9277,-5.8958,-5.829,-5.7303,-5.8261,-5.8261,-5.7303,-5.7303,-5.7303,-5.7274,-5.6694,-5.562,-5.4226,-5.3733,-5.2804,-5.1614,-5.1439,-5.022,-4.842,-4.7956,-4.7288,-4.6505,-4.604,-4.5895,-4.5808,0.0,0.0,0.0,0.0,0.0,0.0,0.0,0.0,0.0,0.0,0.0,0.0,0.0,0.0,0.0,0.0,0.0,0.0,0.0,0.0,0.0,0.0,0.0,0.0,0.0,0.0,0.0,0.0,0.0,0.0,0.0,0.0,0.0,0.0,0.0,0.0,0.0,-4.6609,-4.6226,-4.5709,-4.6152,-4.4807,-4.2338,-4.08,-3.7781,-3.4331,-3.4299,0.0,0.0,0.0,-2.7968,-2.7391,-3.0399,-3.2266,0.0,-3.3277,-3.2297,0.0,0.0,0.0,-3.6532,-4.1367,-4.4695,-4.7982,-5.2653,-5.3186,-5.3287,-5.5172,-5.3943,-5.2536,-5.2565,-5.2594,-5.2775,-5.3413,-5.4081,-5.4517,-5.4517,-5.2891,-5.1439,-5.0772,-4.8508,-4.7474,0.0,-5.1178,-5.3413,-5.5271,-5.6055,-5.7274,-5.9161,-5.8668,-5.861,-5.9277,-5.8029,-5.7332,-5.7303,-5.7332,-5.7332,-5.7303,-5.7303,-5.7303,-5.7274,-5.6694,-5.5358,-5.3559,-5.353,-5.2804,-5.1556,-5.0946,-4.9553,-4.7811,-4.7782,-4.6998,-4.5924,-4.5895,-4.5895,-4.5895,0.0,0.0,0.0,0.0,0.0,0.0,0.0,0.0,0.0,0.0,0.0,0.0,0.0,0.0,0.0,0.0,0.0,0.0,0.0,0.0,0.0,0.0,0.0,0.0,0.0,0.0,0.0,0.0,0.0,0.0,0.0,0.0,0.0,0.0,0.0,0.0,0.0,0.0,-4.5559,-4.5518,-4.4317,-4.275,-4.0781,-3.7682,-3.4273,-3.0835,0.0,0.0,0.0,0.0,0.0,0.0,-2.6753,0.0,0.0,-2.9884,-3.129,-3.3087,0.0,0.0,-4.3895,-4.7877,-5.0913,-5.331,-5.4861,-5.4959,-5.4552,-5.3833,-5.14,-4.9146,-4.8304,-4.7433,-4.7637,-4.9959,-5.0888,-5.1788,-5.3036,-5.2659,-5.1062,-4.7869,-4.784,0.0,0.0,0.0,0.0,-5.2717,-5.3878,-5.5503,-5.7855,-5.8174,-5.861,-5.9277,-5.8871,-5.8203,-5.7303,-5.7739,-5.7739,-5.7303,-5.6897,-5.6723,-5.6665,-5.562,-5.4546,-5.35,-5.3065,-5.2165,-5.0946,-5.0307,-4.9146,-4.7753,-4.7317,-4.6621,-4.5895,-4.5895,-4.5895,-4.5895,0.0,0.0,0.0,0.0,0.0,0.0,0.0,0.0,0.0,0.0,0.0,0.0,0.0,0.0,0.0,0.0,0.0,0.0,0.0,0.0,0.0,0.0,0.0,0.0,0.0,0.0,0.0,0.0,0.0,0.0,0.0,0.0,0.0,0.0,0.0,0.0,0.0,0.0,-4.3199,-4.2228,-4.0849,-3.876,-3.6153,-3.3152,-3.0046,0.0,0.0,0.0,0.0,0.0,0.0,0.0,0.0,-2.5704,-2.7278,-2.9554,-3.1924,-3.5059,-4.0752,-4.4674,-4.8168,-5.245,-5.5135,-5.6831,-5.7266,-5.6365,-5.476,-5.2532,-4.9212,-4.6214,-4.4501,-4.3137,-4.3311,-4.6505,-4.7201,-4.8391,-5.1519,-5.1091,-4.9698,-4.7491,-4.7724,-4.7404,0.0,0.0,0.0,-5.1091,-5.2891,-5.4865,-5.7187,-5.7942,-5.8697,-5.9597,-5.919,-5.8523,-5.7681,-5.8087,-5.7855,-5.6984,-5.6607,-5.6171,-5.5707,-5.4894,-5.4023,-5.3152,-5.2514,-5.1643,-5.0598,-4.9727,-4.874,-4.7724,-4.7085,-4.6446,-4.5895,-4.5895,-4.5895,-4.5895,0.0,0.0,0.0,0.0,0.0,0.0,0.0,0.0,0.0,0.0,0.0,0.0,0.0,0.0,0.0,0.0,0.0,0.0,0.0,0.0,0.0,0.0,0.0,0.0,0.0,0.0,0.0,0.0,0.0,0.0,0.0,0.0,0.0,0.0,0.0,0.0,0.0,0.0,0.0,-3.6267,-3.5915,-3.3146,-2.9085,-2.7568,0.0,0.0,0.0,0.0,0.0,0.0,0.0,0.0,0.0,0.0,-3.0319,-3.2284,-3.436,-3.7328,-4.3433,-4.6647,-4.9574,-5.4977,-5.7199,-5.8362,-5.9618,-5.7082,-5.3754,-5.122,-4.7344,-4.3631,0.0,0.0,-4.0002,-4.3224,-4.3427,-4.4937,-4.9959,-4.8653,-4.7811,0.0,0.0,0.0,0.0,0.0,0.0,-5.0685,0.0,-5.5271,-5.7216,-5.7942,-5.8842,-6.0061,-5.8929,-5.829,-5.8261,-5.8261,-5.7623,-5.6403,-5.6374,-5.5707,-5.4517,-5.4487,-5.3762,-5.2484,-5.1846,-5.1207,-5.0481,-4.9175,-4.8275,-4.7666,-4.7027,-4.6417,-4.5895,-4.5895,-4.5895,-4.5895,0.0,0.0,0.0,0.0,0.0,0.0,0.0,0.0,0.0,0.0,0.0,0.0,0.0,0.0,0.0,0.0,0.0,0.0,0.0,0.0,0.0,0.0,0.0,0.0,0.0,0.0,0.0,0.0,0.0,0.0,0.0,0.0,0.0,0.0,0.0,0.0,0.0,0.0,0.0,0.0,0.0,-3.0173,-2.8311,0.0,0.0,0.0,0.0,0.0,0.0,0.0,0.0,0.0,0.0,-2.8842,-3.116,-3.4995,-3.8197,-4.1637,-4.7109,-5.1574,-5.5271,-5.7568,-5.844,-5.8196,-5.6566,-5.3119,-4.9278,-4.5756,-4.1219,-3.7194,0.0,0.0,0.0,-3.9915,-4.3485,0.0,-5.022,-5.1323,0.0,-5.054,0.0,-5.0743,-4.9785,-5.0685,0.0,0.0,-5.2949,-5.4313,-5.7158,-5.7942,-5.8464,-5.8784,-5.8464,-5.8058,-5.7565,-5.7565,-5.7158,-5.6403,-5.591,-5.5271,-5.4487,-5.3994,-5.3065,-5.1817,-5.1178,-5.0278,-4.9117,-4.784,-4.7155,-4.6998,-4.6388,-4.604,-4.5895,-4.5895,-4.5895,-4.5895,0.0,0.0,0.0,0.0,0.0,0.0,0.0,0.0,0.0,0.0,0.0,0.0,0.0,0.0,0.0,0.0,0.0,0.0,0.0,0.0,0.0,0.0,0.0,0.0,0.0,0.0,0.0,0.0,0.0,0.0,0.0,0.0,0.0,0.0,0.0,0.0,0.0,0.0,0.0,0.0,0.0,0.0,0.0,0.0,0.0,0.0,0.0,0.0,0.0,0.0,0.0,-2.8681,-3.0946,-3.2922,-3.5183,-3.9392,0.0,-4.524,-5.0241,-5.4187,-5.7142,-5.8164,-5.7937,-5.6603,-5.3088,-4.9375,-4.514,-3.9886,-3.6315,0.0,0.0,0.0,0.0,0.0,0.0,0.0,-4.9233,-5.0743,-5.1527,0.0,-5.2543,0.0,-5.1991,-5.2833,-5.3675,0.0,-5.4284,-5.5155,-5.7187,-5.7942,-5.8435,-5.8726,-5.8464,-5.8116,-5.7739,-5.7448,-5.7013,-5.6403,-5.5736,-5.5097,-5.4487,-5.353,-5.2543,-5.1556,0.0,-4.9669,-4.8576,-4.73,-4.6778,-4.672,-4.6127,-4.5895,-4.5895,-4.5895,-4.5895,-4.5895,0.0,0.0,0.0,0.0,0.0,0.0,0.0,0.0,0.0,0.0,0.0,0.0,0.0,0.0,0.0,0.0,0.0,0.0,0.0,0.0,0.0,0.0,0.0,0.0,0.0,0.0,0.0,0.0,0.0,0.0,0.0,0.0,0.0,0.0,0.0,0.0,0.0,0.0,0.0,0.0,0.0,0.0,0.0,0.0,0.0,0.0,0.0,0.0,0.0,0.0,-3.1032,-3.2745,-3.545,-3.8065,-4.0815,-4.4443,-4.6446,-4.8417,-5.2791,-5.5375,-5.6974,-5.7579,-5.6487,-5.414,-4.9561,-4.5653,-4.1076,-3.4375,0.0,-3.08,-2.8072,0.0,-3.1905,-3.5793,0.0,-4.1831,-4.7985,-4.9001,-5.0278,-5.3384,-5.3762,-5.3849,-5.3994,-5.4546,-5.5097,-5.562,-5.62,-5.6752,-5.7274,-5.7855,-5.8435,-5.9016,-5.8464,-5.8145,-5.8058,-5.7477,-5.6839,-5.6142,-5.5562,-5.4981,-5.4342,-5.3123,-5.2223,-5.1527,-5.0162,-4.9175,-4.8508,-4.723,-4.6662,-4.665,-4.6098,-4.5895,-4.5895,-4.5895,-4.5895,-4.5895,0.0,0.0,0.0,0.0,0.0,0.0,0.0,0.0,0.0,0.0,-1.5716,-1.507,0.0,0.0,0.0,0.0,0.0,0.0,0.0,0.0,0.0,0.0,0.0,0.0,0.0,0.0,0.0,0.0,0.0,0.0,0.0,0.0,0.0,0.0,0.0,0.0,0.0,0.0,0.0,0.0,0.0,0.0,0.0,0.0,0.0,0.0,0.0,0.0,0.0,0.0,-3.4002,-3.6838,-3.9944,-4.2673,-4.5256,-4.8043,-4.9756,-5.1381,-5.4327,-5.629,-5.7398,-5.6803,-5.5004,-5.2021,-4.6796,-4.1488,0.0,0.0,0.0,-2.6939,-2.6939,-2.897,0.0,-3.6431,0.0,0.0,0.0,0.0,-5.2107,0.0,0.0,0.0,0.0,0.0,0.0,0.0,0.0,-5.7187,-5.7303,-5.7419,-5.7536,-5.7652,-5.7536,-5.7245,-5.6752,-5.6607,-5.5997,-5.4836,-5.472,-5.4313,-5.3675,-5.292,-5.2223,-5.1527,-4.9698,0.0,-4.784,-4.6563,-4.604,-4.604,-4.5924,-4.5895,-4.5895,-4.5895,-4.5895,-4.5895,0.0,0.0,0.0,0.0,0.0,0.0,0.0,-1.644,-1.6594,-1.7608,-1.7147,-1.6624,-1.63,-1.5624,-1.5443,0.0,0.0,0.0,0.0,0.0,0.0,0.0,0.0,0.0,0.0,0.0,0.0,0.0,0.0,0.0,0.0,0.0,0.0,0.0,0.0,0.0,0.0,0.0,0.0,0.0,0.0,0.0,0.0,0.0,0.0,0.0,0.0,0.0,0.0,0.0,-3.2727,-3.6664,-4.1541,-4.4821,-4.723,-4.9146,-5.1091,-5.3007,-5.4894,-5.6443,-5.7247,-5.6165,-5.326,-4.9175,-4.3251,0.0,0.0,0.0,-2.6155,-2.54,-2.572,0.0,0.0,0.0,0.0,0.0,0.0,0.0,0.0,0.0,0.0,0.0,0.0,0.0,0.0,0.0,0.0,-5.6607,-5.7274,-5.7013,-5.6984,-5.7303,-5.6665,-5.6345,-5.6403,-5.6055,-5.5591,-5.4981,-5.4662,-5.4342,-5.3994,-5.2659,-5.1904,-5.1497,-4.9504,-4.8362,-4.7724,-4.6766,-4.6185,-4.5895,-4.5895,-4.5895,-4.5895,-4.5895,-4.5895,-4.5895,0.0,0.0,0.0,0.0,0.0,0.0,0.0,-1.7085,-1.727,-1.8099,-1.7823,-1.7423,-1.7024,-1.6041,-1.5536,0.0,0.0,0.0,0.0,0.0,0.0,0.0,0.0,0.0,0.0,0.0,0.0,0.0,0.0,0.0,0.0,0.0,0.0,0.0,0.0,0.0,0.0,0.0,0.0,0.0,0.0,0.0,0.0,0.0,0.0,0.0,0.0,0.0,0.0,0.0,-3.0309,-3.4399,-4.0187,-4.4313,-4.7259,-4.8682,-5.1091,-5.3617,-5.5039,-5.6345,-5.6955,-5.5562,-5.173,-4.6708,-4.0583,-3.5415,0.0,0.0,-2.4621,-2.4534,-2.494,0.0,0.0,0.0,0.0,0.0,0.0,0.0,0.0,0.0,0.0,0.0,0.0,0.0,0.0,0.0,0.0,0.0,-5.6839,-5.6461,-5.6403,-5.6868,-5.5939,-5.5591,-5.5997,-5.5474,-5.5155,-5.501,-5.4517,-5.4226,-5.4052,-5.2368,-5.1556,-5.1323,-4.9524,-4.8362,-4.7724,-4.7085,-4.6446,-4.5895,-4.5895,-4.5895,-4.5895,-4.5895,-4.5895,-4.5895,0.0,0.0,0.0,0.0,0.0,0.0,0.0,-1.6686,-1.6747,-1.8023,-1.6594,-1.5685,-1.6225,-1.6122,-1.5788,0.0,0.0,0.0,0.0,0.0,0.0,0.0,0.0,0.0,0.0,0.0,0.0,0.0,0.0,0.0,0.0,0.0,0.0,0.0,0.0,0.0,0.0,0.0,0.0,0.0,0.0,0.0,0.0,0.0,0.0,0.0,0.0,0.0,0.0,0.0,0.0,-3.0684,-3.433,-3.9528,-4.4705,-4.6563,0.0,0.0,-5.4923,-5.6345,-5.6868,-5.5039,-5.0772,-4.5589,-4.0408,0.0,0.0,-2.5575,-2.3925,-2.3606,-2.5371,-2.5894,0.0,0.0,0.0,0.0,0.0,0.0,0.0,0.0,0.0,0.0,0.0,0.0,0.0,0.0,0.0,0.0,-5.5591,-5.5533,-5.5533,-5.5591,-5.5474,-5.5184,-5.4691,-5.4633,-5.4284,-5.3675,-5.3646,-5.3297,-5.2768,-5.1962,-5.1294,-5.0685,-4.932,-4.8362,0.0,-4.7085,-4.6446,-4.5895,-4.5895,-4.5895,-4.5895,-4.5895,-4.5895,-4.5895,0.0,0.0,0.0,0.0,0.0,0.0,-1.6563,-1.6717,-1.6993,-1.7546,-1.7239,-1.6809,-1.6256,-1.5785,-1.5237,-1.4602,0.0,0.0,0.0,0.0,0.0,0.0,0.0,0.0,0.0,0.0,0.0,0.0,0.0,0.0,0.0,0.0,0.0,0.0,0.0,0.0,0.0,0.0,0.0,0.0,0.0,0.0,0.0,0.0,0.0,0.0,0.0,0.0,0.0,0.0,0.0,0.0,-2.8015,-3.1978,0.0,0.0,-4.604,-5.0104,-5.2049,-5.4313,-5.5707,-5.382,-4.9465,-4.4327,-3.9218,0.0,0.0,-2.5458,-2.3809,-2.3374,-2.4911,-2.5226,-2.6442,0.0,0.0,0.0,0.0,0.0,0.0,0.0,0.0,0.0,0.0,0.0,0.0,0.0,0.0,0.0,-5.4284,-5.4662,-5.5039,-5.5387,-5.4662,-5.4342,-5.4517,-5.411,-5.3791,-5.35,-5.35,-5.3181,-5.2594,-5.1904,-5.1265,-5.0676,-4.9698,-4.8943,0.0,-4.7666,-4.7027,-4.6417,-4.604,-4.5895,-4.5895,-4.5895,-4.5895,-4.5895,0.0,0.0,0.0,0.0,0.0,-1.627,-1.6485,-1.6717,-1.6901,-1.6901,-1.7147,-1.687,-1.5747,-1.497,-1.4357,-1.3944,-1.4467,0.0,0.0,0.0,0.0,0.0,0.0,0.0,0.0,0.0,0.0,0.0,0.0,0.0,0.0,0.0,0.0,0.0,0.0,0.0,0.0,0.0,0.0,0.0,0.0,0.0,0.0,0.0,0.0,0.0,0.0,0.0,0.0,0.0,0.0,0.0,0.0,0.0,0.0,0.0,-4.1959,-4.6563,-4.8682,-5.1585,-5.3588,-5.1875,-4.7724,-4.2818,0.0,0.0,0.0,-2.5604,-2.3954,-2.3351,-2.4824,-2.4969,-2.5662,0.0,0.0,0.0,0.0,0.0,0.0,0.0,0.0,0.0,0.0,0.0,0.0,0.0,0.0,0.0,-5.353,-5.3791,-5.4226,-5.4836,-5.3994,-5.3733,-5.4226,-5.3559,-5.3239,-5.3239,-5.3036,-5.263,-5.2042,-5.1556,-5.0888,-5.0075,-4.9814,-4.9204,0.0,-4.7956,-4.7404,-4.672,-4.6127,-4.5895,-4.5895,-4.5895,-4.5895,-4.5895,0.0,0.0,0.0,0.0,0.0,0.0,-1.7085,-1.6624,-1.6194,-1.6194,-1.5654,-1.4978,-1.427,-1.3605,-1.3205,-1.3205,-1.3762,0.0,0.0,0.0,0.0,0.0,0.0,0.0,0.0,0.0,-1.7203,-1.661,-1.7876,-1.8739,0.0,0.0,0.0,0.0,0.0,0.0,0.0,0.0,0.0,0.0,0.0,0.0,0.0,0.0,0.0,0.0,0.0,0.0,0.0,0.0,0.0,0.0,0.0,0.0,0.0,0.0,-3.7695,-4.2702,-4.5256,-4.8275,-5.0423,-4.9088,-4.543,-4.1105,0.0,0.0,0.0,-2.6039,-2.4244,-2.349,-2.5429,-2.5255,-2.5433,-2.7405,0.0,0.0,0.0,0.0,0.0,0.0,0.0,0.0,0.0,0.0,0.0,0.0,0.0,0.0,-5.35,-5.292,-5.2891,-5.35,-5.353,-5.35,-5.353,-5.2891,-5.2623,-5.2623,-5.1933,-5.1294,-5.0685,-5.0685,-4.9988,-4.8769,-4.9407,-4.8972,0.0,-4.7782,-4.7404,-4.672,-4.6127,-4.5895,-4.5895,-4.5895,-4.5895,-4.5895,0.0,0.0,0.0,0.0,0.0,0.0,0.0,-1.6054,-1.587,-1.4947,-1.5039,-1.4947,-1.4283,-1.3605,-1.339,-1.3852,-1.4055,0.0,0.0,0.0,0.0,0.0,0.0,0.0,0.0,0.0,-1.7617,-1.7889,-1.8812,-1.9326,-1.949,-2.0312,0.0,0.0,0.0,0.0,0.0,0.0,0.0,0.0,0.0,0.0,0.0,0.0,0.0,0.0,0.0,0.0,0.0,0.0,0.0,0.0,0.0,0.0,0.0,0.0,0.0,0.0,-3.887,-4.1686,-4.3718,-4.1976,-3.9828,-3.7244,-3.3819,0.0,0.0,0.0,-2.4297,-2.392,-2.4965,-2.5342,-2.6387,-2.9203,0.0,0.0,0.0,0.0,0.0,0.0,0.0,0.0,0.0,0.0,0.0,0.0,0.0,0.0,-5.2862,-5.2281,-5.2223,-5.2833,-5.2455,-5.2223,-5.2223,-5.202,-5.1933,-5.1904,-5.1701,-5.1294,-5.0734,-5.0734,-4.9959,-4.8769,-4.9407,-4.9204,-4.8391,-4.7956,-4.7666,-4.7375,-4.6301,-4.5895,-4.5895,-4.5895,-4.5895,-4.5895,0.0,0.0,0.0,0.0,0.0,0.0,0.0,-1.5716,-1.5439,-1.4344,-1.4344,-1.4283,-1.3852,-1.3205,-1.3093,-1.3759,-1.3821,0.0,0.0,0.0,0.0,0.0,0.0,0.0,0.0,-1.7503,-1.7822,-1.8505,-1.8969,-1.9465,-2.0042,-2.0486,-2.0439,-2.0028,0.0,0.0,0.0,0.0,0.0,0.0,0.0,0.0,-1.742,0.0,0.0,0.0,0.0,0.0,0.0,0.0,0.0,0.0,0.0,0.0,0.0,0.0,-2.6802,0.0,0.0,-3.6489,-3.8638,-3.7447,-3.5996,0.0,0.0,0.0,0.0,0.0,0.0,0.0,0.0,0.0,0.0,0.0,0.0,0.0,0.0,0.0,0.0,0.0,0.0,0.0,0.0,0.0,0.0,0.0,0.0,0.0,-5.2623,-5.173,-5.1439,-5.1897,-5.1701,-5.1614,-5.1614,-5.1381,-5.1265,-5.1265,-5.1004,-5.0685,-5.0278,-5.0046,-4.9378,-4.8391,-4.8798,-4.8595,0.0,-4.7579,-4.7433,-4.7317,-4.6301,-4.5895,-4.5895,-4.5895,-4.5895,-4.5895,0.0,0.0,0.0,0.0,0.0,0.0,0.0,-1.5685,-1.5009,-1.427,-1.3667,-1.3236,-1.3155,-1.257,-1.2488,-1.3177,0.0,0.0,0.0,0.0,0.0,0.0,0.0,0.0,0.0,-1.7437,-1.7789,-1.8505,-1.8605,-1.9379,-2.0785,-2.0884,-2.0851,-2.0685,-2.0685,0.0,0.0,0.0,0.0,0.0,0.0,0.0,0.0,0.0,0.0,0.0,0.0,0.0,0.0,0.0,0.0,0.0,0.0,0.0,0.0,0.0,0.0,0.0,0.0,0.0,0.0,0.0,0.0,0.0,0.0,0.0,0.0,0.0,0.0,0.0,0.0,0.0,0.0,0.0,0.0,0.0,0.0,0.0,0.0,0.0,0.0,0.0,0.0,0.0,0.0,0.0,0.0,0.0,-5.2478,-5.1236,-5.054,-5.054,-5.1062,-5.1381,-5.1468,-5.0888,-5.0598,-5.0598,-5.0037,-4.9688,-4.9582,-4.903,-4.8391,0.0,-4.7811,-4.7462,-4.6778,-4.6778,-4.6778,-4.672,-4.6127,-4.5895,-4.5895,-4.5895,-4.5895,-4.5895,0.0,0.0,0.0,0.0,0.0,0.0,0.0,0.0,0.0,0.0,-1.4067,-1.3575,-1.2539,-1.2292,-1.252,0.0,0.0,0.0,0.0,0.0,0.0,0.0,0.0,0.0,0.0,-1.6951,-1.7271,-1.8505,-1.9644,-2.0652,-2.158,-2.2692,-2.2343,-2.0685,-2.0685,-1.9975,0.0,0.0,0.0,0.0,0.0,0.0,0.0,0.0,0.0,0.0,-1.808,-1.8423,0.0,0.0,0.0,0.0,0.0,0.0,0.0,0.0,-2.1557,-2.2352,-2.3078,0.0,-2.6617,-2.6617,-2.662,0.0,0.0,0.0,0.0,0.0,0.0,0.0,0.0,0.0,0.0,0.0,0.0,0.0,0.0,0.0,0.0,0.0,0.0,0.0,0.0,0.0,0.0,0.0,0.0,-5.1643,-5.1199,-4.9901,-4.9175,-4.9175,-4.8856,-4.9146,-5.0133,-4.9988,-4.995,-4.9901,-4.9805,-4.9407,-4.8972,-4.9291,-4.8566,-4.7114,-4.8072,-4.7869,-4.6778,-4.6778,-4.6778,-4.672,-4.6127,-4.5895,-4.5895,-4.5895,-4.5895,-4.5895,0.0,0.0,0.0,0.0,0.0,0.0,0.0,0.0,0.0,0.0,0.0,0.0,0.0,0.0,0.0,0.0,0.0,0.0,0.0,0.0,0.0,0.0,0.0,0.0,-1.6984,-1.6619,-1.7271,-1.8989,-1.9796,-2.0903,-2.2294,-2.2758,-2.2162,-2.0652,-1.9658,-1.8796,0.0,0.0,0.0,0.0,-1.7214,0.0,0.0,0.0,0.0,0.0,-1.7712,-1.8117,0.0,-2.0571,-2.102,-2.106,0.0,0.0,0.0,0.0,-2.0918,-2.142,-2.0398,-2.2381,-2.4762,-2.4762,-2.5023,-2.5284,0.0,0.0,0.0,0.0,0.0,0.0,0.0,0.0,0.0,0.0,0.0,0.0,0.0,0.0,0.0,0.0,0.0,0.0,0.0,0.0,0.0,0.0,0.0,-5.1033,-5.0685,-4.9436,-4.8663,-4.8663,-4.8101,-4.8101,-4.8798,-4.8798,-4.8798,-4.8798,-4.8798,-4.8624,-4.8304,-4.8333,-4.7811,-4.6807,-4.7259,-4.7027,-4.6388,-4.6388,-4.6388,-4.6359,-4.6011,-4.5895,-4.5895,-4.5895,-4.5895,-4.5895,0.0,0.0,0.0,0.0,0.0,0.0,0.0,0.0,0.0,0.0,0.0,0.0,0.0,0.0,0.0,0.0,0.0,0.0,0.0,0.0,0.0,0.0,0.0,-1.5404,-1.6287,-1.6265,-1.7214,-1.9201,-1.9802,-2.112,-2.3056,-2.299,-2.2312,-2.1059,-1.8632,-1.7542,0.0,0.0,0.0,0.0,-1.6328,0.0,0.0,0.0,0.0,0.0,0.0,0.0,0.0,-2.0251,-2.0652,-2.0724,-2.1297,0.0,0.0,0.0,0.0,0.0,-2.0002,-2.2636,-2.5575,-2.5284,-2.5454,-2.5633,0.0,0.0,0.0,0.0,0.0,0.0,0.0,0.0,0.0,0.0,0.0,0.0,0.0,0.0,0.0,0.0,0.0,0.0,0.0,0.0,0.0,0.0,0.0,-5.0452,-5.0299,-4.9088,-4.8402,-4.8402,-4.7811,-4.7491,-4.7491,-4.7695,-4.7782,-4.7782,-4.7782,-4.7724,-4.7608,-4.7172,-4.6882,-4.665,0.0,0.0,-4.5895,-4.5895,-4.5895,-4.5895,-4.5895,-4.5895,-4.5895,-4.5895,-4.5895,-4.5895,0.0,0.0,0.0,0.0,0.0,0.0,0.0,0.0,0.0,0.0,0.0,0.0,0.0,0.0,0.0,0.0,0.0,0.0,0.0,0.0,0.0,0.0,-1.354,-1.4235,-1.5936,-1.5638,-1.6099,-1.7409,-2.0755,-2.2891,-2.3884,-2.6866,-2.6407,-2.2998,-1.9544,-1.7649,-1.7072,-1.6792,-1.6649,-1.6583,-1.6328,0.0,0.0,0.0,0.0,0.0,0.0,0.0,0.0,-2.0295,-2.0872,-2.1167,-2.0607,0.0,0.0,0.0,0.0,0.0,-2.2228,-2.3676,-2.4563,-2.2991,-2.3775,-2.494,0.0,0.0,0.0,0.0,0.0,0.0,0.0,0.0,0.0,0.0,0.0,0.0,0.0,0.0,0.0,0.0,0.0,0.0,0.0,0.0,0.0,0.0,0.0,-4.9378,-4.8275,-4.7521,-4.7068,-4.7068,-4.6505,-4.6185,-4.6185,-4.723,-4.7782,-4.7782,-4.7782,-4.7491,-4.6952,-4.7433,-4.7056,-4.604,0.0,-4.6388,-4.5895,-4.5895,-4.5895,-4.5895,-4.5895,-4.5895,-4.5895,-4.5895,-4.5895,-4.5895,0.0,0.0,0.0,0.0,0.0,0.0,0.0,0.0,0.0,0.0,0.0,0.0,0.0,0.0,0.0,0.0,0.0,0.0,0.0,0.0,0.0,-1.3683,-1.3434,-1.4068,-1.5711,-1.6045,-1.7144,-1.9015,-2.1229,-2.3211,-2.4995,-2.532,-2.3976,-2.1125,-1.8616,-1.7236,-1.6779,-1.6485,-1.6365,-1.6369,0.0,0.0,0.0,0.0,0.0,0.0,0.0,0.0,0.0,0.0,-2.0436,-2.0843,-2.0489,0.0,0.0,0.0,0.0,0.0,-2.1981,-2.3624,-2.5139,-2.4268,-2.4965,-2.5807,0.0,0.0,0.0,0.0,0.0,0.0,0.0,0.0,0.0,0.0,0.0,0.0,0.0,0.0,0.0,0.0,0.0,0.0,0.0,0.0,0.0,0.0,0.0,0.0,-4.784,-4.7172,-4.6778,-4.6778,-4.6214,-4.5895,-4.5895,-4.6475,-4.6766,-4.6766,-4.6766,-4.6592,-4.633,-4.6758,-4.6599,-4.612,0.0,-4.6562,-4.6298,-4.6298,-4.6298,-4.6269,-4.609,-4.6046,-4.6046,-4.594,-4.5956,-4.6046,0.0,0.0,0.0,0.0,0.0,0.0,0.0,0.0,0.0,0.0,0.0,0.0,0.0,0.0,0.0,0.0,0.0,0.0,0.0,0.0,-1.3494,-1.3855,-1.4018,-1.4609,-1.5707,-1.662,-1.8311,-2.073,-2.194,-2.365,-2.5831,-2.3444,-2.1245,-1.9219,-1.7802,-1.692,-1.6503,-1.6232,-1.615,-1.6191,0.0,0.0,0.0,0.0,0.0,0.0,0.0,0.0,0.0,0.0,0.0,0.0,0.0,0.0,0.0,-2.1448,-2.2118,-2.2863,-2.1778,-2.3414,-2.5392,-2.5367,0.0,0.0,-2.7345,0.0,0.0,0.0,0.0,0.0,0.0,0.0,0.0,0.0,0.0,0.0,0.0,0.0,0.0,0.0,0.0,0.0,0.0,0.0,0.0,0.0,0.0,0.0,-4.7468,-4.6974,-4.6683,-4.6729,-4.6308,-4.6001,-4.5956,-4.5956,-4.594,-4.5895,-4.594,-4.5956,-4.5956,-4.618,-4.6314,-4.6314,-4.6491,-4.6609,-4.6609,-4.6609,-4.6609,-4.658,-4.6358,-4.6314,-4.6269,-4.609,-4.6135,-4.6269,0.0,0.0,0.0,0.0,0.0,0.0,0.0,0.0,0.0,0.0,0.0,0.0,0.0,0.0,0.0,0.0,0.0,0.0,0.0,0.0,-1.4376,-1.4347,-1.5285,-1.5941,-1.6143,-1.7016,-1.8584,-2.0877,-2.3359,-2.512,-2.6045,-2.3846,-2.1647,-1.9437,-1.8217,-1.7109,-1.6202,-1.5925,-1.5968,-1.6191,-1.5927,0.0,0.0,0.0,0.0,0.0,0.0,0.0,0.0,0.0,0.0,0.0,0.0,0.0,-2.217,-2.1571,-2.2203,-2.309,-2.298,-2.3558,-2.4201,-2.4083,0.0,0.0,-3.1496,0.0,0.0,0.0,0.0,0.0,0.0,0.0,0.0,0.0,0.0,0.0,0.0,0.0,0.0,0.0,0.0,0.0,0.0,0.0,0.0,0.0,0.0,0.0,-4.6355,-4.6268,-4.6372,-4.6624,-4.6565,-4.6403,-4.618,-4.618,-4.609,-4.5895,-4.609,-4.618,-4.618,-4.6447,-4.6535,-4.6535,-4.6609,-4.6609,-4.6609,-4.6609,-4.6609,-4.6609,-4.658,-4.6535,-4.6535,-4.6535,-4.6565,-4.6535,0.0,0.0,0.0,0.0,0.0,0.0,0.0,0.0,0.0,0.0,0.0,0.0,0.0,0.0,0.0,0.0,0.0,0.0,0.0,0.0,-1.417,-1.4813,-1.5198,-1.5755,-1.662,-1.7545,-1.8902,-2.0763,-2.2755,-2.3448,-2.2851,-2.1487,-1.9892,-1.8082,-1.7175,-1.6448,-1.594,-1.5842,-1.587,-1.5925,-1.5842,-1.5799,0.0,0.0,0.0,0.0,0.0,0.0,0.0,0.0,-1.8926,-1.9556,0.0,-2.0971,-2.217,-2.155,-2.1951,-2.2504,-2.2059,-2.3558,-2.5345,-2.5654,0.0,0.0,0.0,0.0,0.0,0.0,0.0,0.0,0.0,0.0,0.0,0.0,0.0,0.0,0.0,0.0,0.0,0.0,0.0,0.0,0.0,0.0,0.0,0.0,0.0,0.0,-4.6254,-4.6225,-4.6269,-4.6358,-4.6491,-4.6535,-4.6447,-4.6447,-4.6403,-4.6314,-4.6225,-4.6314,-4.6447,-4.6668,-4.68,-4.68,-4.6931,-4.7048,-4.7048,-4.7048,-4.7048,-4.7048,-4.6844,-4.68,-4.6756,-4.6653,-4.6668,-4.6756,0.0,0.0,0.0,0.0,0.0,0.0,0.0,0.0,0.0,0.0,0.0,0.0,0.0,0.0,0.0,0.0,0.0,0.0,0.0,-1.3606,-1.4105,-1.5045,-1.5236,-1.579,-1.6804,-1.7471,-1.8735,-2.0618,-2.1929,-2.1811,-2.0317,-1.9514,-1.8402,-1.7088,-1.6468,-1.616,-1.6069,-1.5888,-1.5799,-1.5799,-1.5799,-1.5799,0.0,0.0,0.0,0.0,0.0,0.0,0.0,0.0,0.0,0.0,0.0,0.0,0.0,0.0,-2.1668,-2.1854,-2.1155,-2.301,-2.5277,0.0,0.0,0.0,0.0,0.0,0.0,0.0,0.0,0.0,0.0,0.0,0.0,0.0,0.0,0.0,0.0,0.0,0.0,0.0,0.0,0.0,0.0,0.0,0.0,0.0,0.0,0.0,0.0,-4.5947,-4.5873,-4.5917,-4.6091,-4.6134,-4.6121,-4.6121,-4.6209,-4.6416,-4.6241,-4.6241,-4.6446,-4.6634,-4.6602,-4.6394,-4.6565,-4.68,-4.698,-4.698,-4.713,-4.7266,-4.7106,-4.7019,-4.7019,-4.6844,-4.6887,-4.7019,0.0,0.0,0.0,0.0,0.0,0.0,0.0,0.0,0.0,0.0,0.0,0.0,0.0,0.0,0.0,0.0,0.0,0.0,-1.3197,-1.3852,-1.4454,-1.4983,-1.5648,-1.6199,-1.6697,-1.6681,-1.7909,-2.0366,-2.1039,-2.0559,-1.9064,-1.8413,-1.7578,-1.6697,-1.6357,-1.6375,-1.6651,-1.6054,-1.5799,-1.5799,-1.5799,-1.5799,-1.5829,0.0,0.0,0.0,0.0,0.0,0.0,0.0,-1.7699,0.0,0.0,0.0,0.0,0.0,-2.1454,-2.1256,-2.0597,-2.1836,0.0,0.0,0.0,0.0,0.0,0.0,0.0,0.0,0.0,0.0,0.0,0.0,0.0,0.0,0.0,0.0,0.0,0.0,0.0,0.0,0.0,0.0,0.0,0.0,0.0,0.0,0.0,0.0,0.0,-4.5357,-4.5096,-4.5304,-4.5304,-4.5221,-4.5013,-4.4971,-4.5327,-4.5981,-4.5981,-4.601,-4.601,-4.6194,-4.5933,-4.5304,-4.5304,-4.5693,-4.6279,-4.6279,-4.6711,-4.7309,-4.7309,-4.7309,-4.7309,-4.7309,-4.7309,-4.7309,0.0,0.0,0.0,0.0,0.0,0.0,0.0,0.0,0.0,0.0,0.0,0.0,0.0,0.0,0.0,0.0,0.0,0.0,-1.4529,-1.4793,-1.5141,-1.5678,-1.5933,-1.6075,-1.6084,-1.6257,-1.7045,-1.8499,-1.847,-1.8099,-1.7406,-1.7451,-1.7192,-1.6697,-1.6593,-1.6608,-1.6651,-1.6054,-1.6054,-1.6443,-1.6443,-1.6712,-1.7071,0.0,0.0,0.0,0.0,0.0,0.0,0.0,0.0,0.0,0.0,0.0,0.0,-2.1008,-2.1883,-2.2786,-2.2079,0.0,0.0,0.0,0.0,0.0,0.0,0.0,0.0,0.0,0.0,0.0,0.0,0.0,0.0,0.0,0.0,0.0,0.0,0.0,0.0,0.0,0.0,0.0,0.0,0.0,0.0,0.0,0.0,0.0,0.0,-4.509,-4.5013,-4.5096,-4.5221,-4.5263,-4.5221,-4.5221,-4.5311,-4.552,-4.552,-4.5747,-4.6194,-4.6279,-4.5933,-4.5304,-4.5304,-4.5394,-4.5633,-4.6112,-4.6711,-4.7309,-4.7309,-4.7309,-4.7309,-4.7309,-4.7309,-4.7309,0.0,0.0,0.0,0.0,0.0,0.0,0.0,0.0,0.0,0.0,0.0,0.0,0.0,0.0,0.0,0.0,0.0,0.0,0.0,0.0,-1.5461,-1.6008,-1.6066,-1.6026,-1.5827,-1.5954,-1.647,-1.7294,-1.7072,-1.6807,-1.6516,-1.6967,-1.7152,-1.7115,-1.7115,-1.7264,-1.7459,-1.6548,-1.6533,-1.7085,-1.6801,-1.7115,-1.7669,0.0,0.0,0.0,0.0,0.0,0.0,0.0,0.0,0.0,0.0,0.0,0.0,-2.1066,-2.1894,-2.2718,-2.2599,0.0,0.0,0.0,0.0,0.0,0.0,0.0,0.0,0.0,0.0,0.0,0.0,0.0,0.0,0.0,0.0,0.0,0.0,0.0,0.0,0.0,0.0,0.0,0.0,0.0,0.0,0.0,0.0,0.0,0.0,-4.4471,-4.4322,-4.4322,-4.4445,-4.4526,-4.4526,-4.4526,-4.4646,-4.4915,-4.4915,-4.5125,-4.5514,-4.5514,-4.5155,-4.4526,-4.4796,-4.4915,-4.4945,-4.5633,-4.6142,-4.6501,-4.6501,-4.6681,-4.692,-4.692,-4.707,-4.7309,0.0,0.0,0.0,0.0,0.0,0.0,0.0,0.0,0.0,0.0,0.0,0.0,0.0,0.0,0.0,0.0,0.0,0.0,0.0,0.0,-1.5536,-1.608,-1.6111,-1.6041,-1.5899,-1.587,-1.6113,-1.6637,-1.6569,-1.6441,-1.6256,-1.6933,-1.741,-1.7699,-1.7758,-1.8117,-1.8612,-1.7264,-1.7115,-1.7712,-1.7055,-1.7234,-1.7878,-1.7818,0.0,0.0,0.0,0.0,0.0,0.0,0.0,0.0,0.0,0.0,-2.0217,-2.1365,-2.1704,-2.1882,0.0,0.0,0.0,0.0,0.0,0.0,0.0,0.0,0.0,0.0,0.0,0.0,0.0,0.0,0.0,0.0,0.0,0.0,0.0,0.0,0.0,0.0,0.0,0.0,0.0,0.0,0.0,0.0,0.0,0.0,0.0,-4.3469,-4.317,-4.329,-4.323,-4.323,-4.329,-4.329,-4.3559,-4.4137,-4.4197,-4.4197,-4.4137,-4.4257,-4.3917,-4.3319,-4.3917,-4.4257,-4.4377,-4.4975,-4.5244,-4.5304,-4.5304,-4.5693,-4.6232,-4.6249,-4.6711,-4.7219,0.0,0.0,0.0,0.0,0.0,0.0,0.0,0.0,0.0,0.0,0.0,0.0,0.0,0.0,0.0,0.0,0.0,0.0,0.0,0.0,-1.6027,-1.6094,-1.6038,-1.5996,-1.5968,-1.6122,-1.6144,-1.5994,-1.5973,-1.6169,-1.6623,0.0,0.0,-1.7712,0.0,-1.8583,-1.8612,-1.7264,-1.7384,-1.8433,-1.7758,-1.8207,-1.9211,-1.8702,-1.8057,0.0,0.0,0.0,0.0,0.0,0.0,0.0,-1.9211,-2.0666,-2.2014,-2.1754,-2.2392,0.0,0.0,0.0,0.0,0.0,0.0,0.0,0.0,0.0,0.0,0.0,0.0,0.0,0.0,0.0,0.0,0.0,0.0,0.0,0.0,0.0,0.0,0.0,0.0,0.0,0.0,0.0,0.0,0.0,0.0,0.0,-4.28,-4.2162,-4.2282,-4.326,-4.2851,-4.2821,-4.329,-4.329,-4.315,0.0,-4.3299,-4.3269,-4.286,-4.3838,-4.3917,-4.329,-4.3439,-4.3798,-4.4317,-4.4466,-4.4825,-4.5304,-4.5304,-4.5394,-4.5574,-4.6142,-4.6369,-4.6621,0.0,0.0,0.0,0.0,0.0,0.0,0.0,0.0,0.0,0.0,0.0,0.0,0.0,0.0,0.0,0.0,0.0,0.0,0.0,0.0,0.0,-1.6153,-1.6066,-1.6024,-1.5996,-1.6052,-1.6164,-1.6248,-1.6248,0.0,0.0,0.0,0.0,-1.8207,0.0,-1.9181,-1.9121,-1.8087,-1.8237,-1.9121,-1.8446,-1.8792,-1.9678,-1.9301,-1.8762,-1.8117,-1.7772,0.0,0.0,0.0,0.0,0.0,0.0,0.0,-2.1265,-2.1216,-2.1904,-2.2921,0.0,0.0,0.0,0.0,0.0,0.0,0.0,0.0,0.0,0.0,0.0,0.0,0.0,0.0,0.0,0.0,0.0,0.0,0.0,0.0,0.0,0.0,0.0,0.0,0.0,0.0,0.0,0.0,0.0,-4.1572,-4.1901,-4.1602,-4.1683,-4.2372,-4.2073,-4.2043,-4.2402,-4.2402,-4.2222,-4.1931,-4.2252,-4.2372,-4.244,-4.3389,-4.3618,-4.329,-4.329,-4.3499,-4.3798,-4.3798,-4.4047,-4.4347,-4.4347,-4.4556,-4.4855,-4.5214,-4.5574,-4.5933,0.0,0.0,0.0,0.0,0.0,0.0,0.0,0.0,0.0,0.0,0.0,0.0,0.0,0.0,0.0,0.0,0.0,0.0,0.0,0.0,0.0,0.0,-1.6153,-1.6052,-1.5996,-1.5927,-1.6112,-1.6547,0.0,0.0,0.0,0.0,0.0,-1.8732,0.0,-1.9708,-1.9648,-1.8852,-1.8972,-1.9648,-1.8852,-1.9001,-1.9708,-1.9708,-1.9271,-1.8732,-1.8822,-1.8523,-1.8057,-1.8057,0.0,0.0,0.0,0.0,-2.0127,-2.0569,-2.1096,-2.1695,0.0,0.0,0.0,0.0,0.0,0.0,0.0,0.0,0.0,0.0,0.0,0.0,0.0,0.0,0.0,0.0,0.0,0.0,0.0,0.0,0.0,0.0,0.0,0.0,0.0,0.0,0.0,0.0,0.0,-4.0876,-4.0876,-4.0965,-4.1025,-4.1025,-4.1025,-4.1025,-4.1025,-4.1025,-4.1025,-4.1055,-4.1145,-4.1602,-4.2261,-4.2761,-4.308,-4.329,-4.329,-4.329,-4.329,-4.329,-4.329,-4.329,-4.329,-4.3618,-4.4167,-4.4287,-4.4646,-4.5214,0.0,0.0,0.0,0.0,0.0,0.0,0.0,0.0,0.0,0.0,0.0,0.0,0.0,0.0,0.0,0.0,0.0,0.0,-1.5378,0.0,0.0,-1.6194,-1.6153,-1.6052,-1.5996,-1.5927,-1.5916,-1.5904,0.0,0.0,0.0,0.0,0.0,-1.8732,0.0,0.0,-1.9618,-1.8356,-1.8553,-1.9588,-1.8326,-1.8565,-1.9708,-1.9708,-1.9271,-1.8792,-1.9361,-1.9528,-1.942,-1.942,-2.0198,0.0,0.0,0.0,-2.1335,-2.0838,-2.0748,0.0,0.0,0.0,0.0,0.0,0.0,0.0,0.0,0.0,0.0,0.0,0.0,0.0,0.0,0.0,0.0,0.0,0.0,0.0,0.0,0.0,0.0,0.0,0.0,0.0,0.0,0.0,0.0,0.0,-3.914,-3.8781,-3.8781,-3.9349,-3.9679,-3.9679,-3.9679,-3.9679,-3.9679,-3.9679,-3.9679,-3.9679,-4.0247,-4.0876,-4.1542,-4.1594,-4.2252,-4.329,-4.329,-4.329,-4.329,-4.329,-4.329,-4.329,-4.329,-4.3349,-4.3499,-4.4107,-4.4377,-4.4526,0.0,0.0,0.0,0.0,0.0,0.0,0.0,0.0,0.0,0.0,0.0,0.0,0.0,0.0,0.0,-1.416,-1.507,-1.5685,-1.5747,-1.6054,-1.6194,-1.6194,-1.6153,-1.6052,-1.5996,-1.5927,-1.5856,0.0,0.0,0.0,0.0,-1.948,-2.0019,0.0,0.0,0.0,0.0,0.0,0.0,-1.9678,-1.948,0.0,0.0,-2.0528,-2.0408,-1.9929,-2.0587,-2.0816,-2.0816,-2.0816,-2.0946,-2.1096,-2.0778,0.0,0.0,0.0,-2.0408,0.0,0.0,0.0,0.0,0.0,0.0,0.0,0.0,0.0,0.0,0.0,0.0,0.0,0.0,0.0,0.0,0.0,0.0,0.0,0.0,0.0,0.0,0.0,0.0,0.0,0.0,0.0,0.0,0.0,-3.8003,-3.7853,-3.7853,-3.8123,-3.8302,-3.8302,-3.8302,-3.8302,-3.8302,-3.8302,-3.8302,-3.8302,-3.896,-3.9619,-4.0277,-4.0666,-4.1354,-4.2252,-4.2641,-4.2791,-4.2821,-4.314,-4.329,-4.329,-4.329,-4.329,-4.3319,-4.3618,-4.3738,-4.3828,0.0,0.0,0.0,0.0,0.0,0.0,0.0,0.0,0.0,0.0,0.0,0.0,0.0,0.0,0.0,0.0,-1.5009,-1.5408,-1.5901,-1.6116,-1.6194,-1.6194,-1.6153,-1.6066,-1.6024,-1.5942,0.0,0.0,0.0,0.0,-1.8732,-2.006,-2.1156,0.0,-2.1934,0.0,0.0,0.0,0.0,0.0,0.0,0.0,0.0,0.0,-2.0887,-2.0557,-2.1395,-2.1695,-2.1724,-2.1904,-2.1515,-2.0927,-2.0927,-2.0498,0.0,0.0,0.0,0.0,0.0,0.0,0.0,0.0,0.0,0.0,0.0,0.0,0.0,0.0,0.0,0.0,0.0,0.0,0.0,0.0,0.0,0.0,0.0,0.0,0.0,0.0,0.0,0.0,0.0,0.0,0.0,0.0,-3.7165,-3.7105,-3.6926,-3.7225,-3.7255,-3.6926,-3.7075,-3.7105,-3.6926,-3.7105,-3.7165,-3.7195,-3.7823,-3.8422,-3.8895,-3.9589,-4.0157,-4.0666,-4.1722,-4.2141,-4.2201,-4.2821,-4.309,-4.312,-4.323,-4.329,-4.329,-4.329,-4.329,-4.3349,0.0,0.0,0.0,0.0,0.0,0.0,0.0,0.0,0.0,0.0,0.0,0.0,-1.3975,-1.4129,-1.467,-1.5979,-1.5562,-1.5224,-1.5255,-1.5839,-1.6194,-1.6194,-1.6153,0.0,-1.6111,-1.597,0.0,0.0,0.0,0.0,-1.8732,-2.006,-2.1395,-2.2643,-2.2643,-2.1904,-2.0658,0.0,0.0,0.0,0.0,0.0,0.0,0.0,0.0,0.0,0.0,-2.1695,-2.1784,-2.2433,-2.2194,-2.1635,-2.1635,-2.1186,-2.0748,0.0,0.0,0.0,0.0,0.0,0.0,0.0,0.0,0.0,0.0,0.0,0.0,0.0,0.0,0.0,0.0,0.0,0.0,0.0,0.0,0.0,0.0,0.0,0.0,0.0,0.0,0.0,0.0,0.0,0.0,0.0,-3.6537,-3.6267,-3.5639,-3.6746,-3.6866,-3.5639,-3.6207,-3.6237,-3.5609,-3.6237,-3.6537,-3.6537,-3.7165,-3.7494,-3.7524,-3.8182,-3.8512,-3.8661,-4.0606,-4.1482,-4.1512,-4.2171,-4.244,-4.25,-4.309,-4.329,-4.329,-4.329,-4.329,-4.329,0.0,0.0,0.0,0.0,0.0,0.0,0.0,0.0,0.0,0.0,0.0,0.0,0.0,-1.4344,-1.5039,-1.5531,-1.5747,-1.5839,-1.5839,-1.6085,-1.6194,-1.6194,-1.6153,-1.6111,-1.6111,0.0,0.0,0.0,0.0,-1.6623,-1.814,-1.9438,-2.0318,-2.0816,-2.2134,-2.2173,-2.1276,-2.0187,0.0,0.0,0.0,0.0,0.0,0.0,0.0,0.0,0.0,0.0,0.0,-2.4328,-2.355,-2.2403,-2.2802,-2.1904,-2.0917,-2.2024,-2.1724,0.0,0.0,0.0,0.0,0.0,0.0,0.0,0.0,0.0,0.0,0.0,0.0,0.0,0.0,0.0,0.0,0.0,0.0,0.0,0.0,0.0,0.0,0.0,0.0,0.0,0.0,0.0,0.0,0.0,0.0,-3.5759,-3.5519,-3.5938,-3.5968,-3.5519,-3.5729,-3.5729,-3.5519,-3.5729,-3.5848,-3.5878,-3.6507,-3.6806,-3.6836,-3.7464,-3.7973,-3.8422,-3.914,-3.9948,-4.0816,-4.1961,-4.2141,-4.1871,-4.291,-4.306,-4.2761,-4.314,-4.329,-4.329,0.0,0.0,0.0,0.0,0.0,0.0,0.0,0.0,0.0,0.0,0.0,0.0,0.0,0.0,-1.5193,-1.5193,-1.5808,-1.6116,-1.587,-1.6085,-1.6194,-1.6194,-1.6166,-1.6139,-1.6139,0.0,0.0,0.0,0.0,0.0,0.0,-1.8856,-1.96,-2.0109,-2.1684,-2.2014,0.0,0.0,0.0,-2.0079,0.0,0.0,-2.0258,0.0,0.0,0.0,0.0,0.0,0.0,0.0,-2.4627,-2.3152,-2.3999,-2.3071,-2.1844,-2.2742,-2.2233,0.0,0.0,0.0,0.0,0.0,0.0,0.0,0.0,0.0,0.0,0.0,0.0,0.0,0.0,0.0,0.0,0.0,0.0,0.0,0.0,0.0,0.0,0.0,0.0,0.0,0.0,0.0,0.0,0.0,0.0,0.0,-3.516,-3.516,-3.528,-3.5489,-3.5519,-3.5519,-3.5519,-3.5519,-3.5519,-3.5519,-3.5938,-3.6148,-3.6178,-3.6806,-3.7345,-3.7764,-3.8212,-3.902,-4.0157,-4.1302,-4.1482,-4.1175,-4.2491,-4.2731,-4.247,-4.309,-4.329,-4.329,0.0,0.0,0.0,0.0,0.0,0.0,0.0,0.0,0.0,-1.3144,0.0,0.0,0.0,0.0,0.0,-1.5224,-1.5839,-1.5931,-1.5285,-1.5839,-1.6194,-1.6194,-1.6194,-1.6194,-1.6239,0.0,0.0,0.0,0.0,0.0,0.0,0.0,-1.939,-2.0677,-2.1306,-2.1246,-2.0658,0.0,-2.0718,-2.0688,0.0,-2.0748,-2.1047,0.0,0.0,0.0,-2.6153,-2.6632,0.0,-2.6662,0.0,0.0,0.0,0.0,-2.361,-2.361,0.0,0.0,0.0,0.0,0.0,0.0,0.0,0.0,0.0,0.0,0.0,0.0,0.0,0.0,0.0,0.0,0.0,0.0,0.0,0.0,0.0,0.0,0.0,0.0,0.0,0.0,0.0,0.0,0.0,0.0,-3.3484,-3.3784,-3.4444,-3.4474,-3.4803,-3.5459,-3.5459,-3.5489,-3.5519,-3.5519,-3.5519,-3.5519,-3.5519,-3.5519,-3.5519,-3.6178,-3.6477,-3.6567,-3.7793,-3.8721,-3.9403,-4.0127,-4.0397,-4.0516,-4.1871,-4.2381,-4.244,-4.309,-4.329,-4.329,0.0,0.0,0.0,0.0,0.0,0.0,-1.3005,-1.3362,-1.3698,0.0,0.0,0.0,-1.5162,-1.5624,-1.5931,-1.5931,-1.6085,-1.6102,-1.5931,-1.6116,-1.6194,-1.6194,-1.6194,-1.6409,-1.6901,0.0,0.0,0.0,0.0,0.0,0.0,0.0,0.0,0.0,-1.9539,-1.9726,-2.0019,-2.1006,0.0,0.0,-2.1754,-2.2164,0.0,0.0,0.0,0.0,0.0,-2.7645,-2.8038,0.0,-2.6722,-2.4866,0.0,0.0,0.0,0.0,0.0,0.0,-2.3242,0.0,0.0,0.0,0.0,0.0,0.0,0.0,0.0,0.0,0.0,0.0,0.0,0.0,0.0,0.0,0.0,0.0,0.0,0.0,0.0,0.0,0.0,0.0,0.0,0.0,0.0,0.0,-3.3484,-3.3574,-3.3754,-3.3754,-3.4083,-3.4773,-3.4803,-3.5011,-3.5519,-3.5519,-3.5519,-3.5519,-3.5519,-3.5519,-3.5519,-3.5699,-3.6028,-3.6507,-3.6866,-3.7644,-3.8751,-3.9918,-4.0127,-3.9858,-4.1692,-4.2111,-4.1841,-4.291,-4.329,-4.329,0.0,0.0,0.0,0.0,0.0,0.0,-1.3709,-1.4239,-1.4621,0.0,0.0,0.0,-1.5948,-1.6624,-1.7024,-1.7024,-1.6778,-1.6624,-1.6624,-1.6362,-1.6194,-1.6194,-1.6194,-1.6379,-1.6778,0.0,0.0,0.0,0.0,0.0,0.0,0.0,0.0,0.0,0.0,0.0,0.0,0.0,0.0,0.0,-2.1665,0.0,0.0,-2.5136,-2.6273,0.0,0.0,0.0,-3.0103,-2.9295,-2.8038,0.0,0.0,0.0,0.0,0.0,0.0,0.0,0.0,0.0,0.0,0.0,0.0,0.0,-2.1006,-2.1515,0.0,0.0,0.0,0.0,0.0,0.0,0.0,0.0,0.0,0.0,0.0,0.0,0.0,0.0,0.0,0.0,0.0,-3.2018,-3.2377,-3.2647,-3.2677,-3.2796,-3.3066,-3.3335,-3.3664,-3.4053,-3.4354,-3.4713,-3.507,-3.537,-3.5519,-3.5519,-3.5519,-3.5519,-3.5519,-3.5519,-3.5699,-3.6088,-3.6357,-3.7045,-3.8063,-3.911,-3.9499,-3.9553,-4.1294,-4.1752,-4.1534,-4.2811,-4.329,-4.329,0.0,0.0,0.0,-1.3523,-1.4117,-1.4522,-1.4609,-1.506,-1.5439,0.0,-1.5531,-1.5993,-1.7178,-1.7854,-1.8207,-1.8207,-1.7669,-1.73,-1.73,-1.6747,-1.6409,-1.6409,-1.6409,-1.6454,-1.6546,-1.6454,0.0,0.0,0.0,0.0,0.0,0.0,0.0,0.0,0.0,0.0,0.0,0.0,0.0,-2.1914,-2.1445,-2.2403,0.0,0.0,-2.8064,-2.8936,-3.0673,-3.172,-3.1988,-3.0013,-2.8992,0.0,0.0,0.0,0.0,0.0,-2.2802,0.0,0.0,0.0,0.0,0.0,0.0,0.0,-2.1455,-2.1186,-2.1066,0.0,0.0,0.0,0.0,0.0,0.0,0.0,0.0,0.0,0.0,0.0,0.0,0.0,0.0,0.0,-3.0223,-3.0283,-3.0582,-3.1241,-3.1361,-3.166,-3.2258,-3.2916,-3.3305,-3.3395,-3.3994,-3.4354,-3.4503,-3.507,-3.5429,-3.5519,-3.5519,-3.5519,-3.5519,-3.5519,-3.5519,-3.5549,-3.6118,-3.6776,-3.7464,-3.8033,-3.8721,-3.9559,-4.0786,-4.1324,-4.1534,-4.2761,-4.323,-4.329,0.0,0.0,0.0,-1.472,-1.549,-1.6057,-1.6575,-1.6731,-1.6993,-1.7546,0.0,0.0,0.0,-1.8115,-1.8207,-1.8207,-1.8099,-1.8007,-1.8007,-1.7869,-1.7823,-1.7823,-1.7823,-1.8084,-1.8685,-1.8115,-1.8084,0.0,0.0,0.0,0.0,0.0,0.0,0.0,0.0,0.0,0.0,0.0,0.0,-2.3616,-2.4475,0.0,-2.7043,-2.7455,-2.8364,-2.9445,-2.9834,-3.0372,-3.0582,-2.8663,-2.7914,-2.7405,0.0,0.0,0.0,-2.4605,0.0,0.0,0.0,0.0,0.0,0.0,0.0,0.0,-2.1754,-2.1186,-2.0946,0.0,0.0,0.0,0.0,0.0,0.0,0.0,0.0,0.0,0.0,0.0,0.0,0.0,0.0,0.0,-2.8846,-2.8966,-2.9235,-2.9924,-3.0432,-3.0761,-3.0881,-3.1511,-3.2138,-3.2677,-3.2826,-3.3395,-3.4503,-3.4653,-3.4951,-3.5519,-3.5519,-3.5519,-3.5519,-3.5519,-3.5519,-3.5519,-3.5639,-3.6357,-3.7434,-3.7554,-3.8332,-3.9499,-4.0277,-4.0905,-4.1512,-4.2291,-4.288,-4.329,0.0,0.0,0.0,-1.5699,-1.6418,-1.7045,-1.7757,-1.8099,0.0,0.0,0.0,0.0,0.0,0.0,-1.9269,-1.9269,-1.8931,-1.8746,-1.8746,-1.8407,-1.8207,-1.8207,-1.8207,-1.8376,-1.8746,-1.8376,-1.8376,-1.8746,0.0,0.0,0.0,0.0,0.0,0.0,0.0,0.0,0.0,0.0,-2.304,-2.5129,-2.4234,0.0,-2.6922,-2.7206,-2.7936,-2.8906,-2.9569,-2.9753,-2.9492,-2.8453,-2.7884,0.0,-2.6033,-2.5615,-2.5531,0.0,-2.4178,-2.3152,0.0,0.0,0.0,-2.2703,0.0,0.0,0.0,-2.1186,-2.0868,0.0,0.0,0.0,0.0,0.0,0.0,0.0,0.0,0.0,0.0,0.0,0.0,0.0,0.0,0.0,-2.75,-2.759,-2.8008,-2.9026,-2.9983,-3.0492,-3.0492,-3.1122,-3.166,-3.1989,-3.2318,-3.2826,-3.3484,-3.3814,-3.4322,-3.4981,-3.4981,-3.519,-3.5519,-3.5519,-3.5519,-3.5519,-3.5519,-3.6058,-3.6956,-3.7285,-3.8003,-3.899,-4.0008,-4.0816,-4.1482,-4.2141,-4.2761,-4.329,0.0,0.0,0.0,-1.653,-1.7175,-1.7787,-1.8531,-1.9012,0.0,0.0,0.0,0.0,0.0,0.0,0.0,0.0,-2.0104,-1.961,-1.9857,-1.9085,-1.8591,-1.8591,-1.8591,-1.8591,-1.8591,-1.8591,-1.8591,-1.8591,0.0,0.0,0.0,0.0,0.0,0.0,0.0,0.0,0.0,0.0,0.0,-2.6173,0.0,-2.4289,-2.6488,-2.6957,-2.7534,-2.8147,-2.936,-2.9459,-2.8992,-2.8689,-2.8423,-2.8025,-2.6956,-2.6393,0.0,0.0,0.0,0.0,0.0,0.0,0.0,0.0,0.0,-2.2203,0.0,0.0,0.0,0.0,0.0,0.0,0.0,0.0,0.0,0.0,0.0,0.0,0.0,0.0,0.0,0.0,0.0,0.0,0.0,-2.6243,-2.6901,-2.8128,-2.9295,-3.0013,-3.0133,-3.0883,-3.1301,-3.1301,-3.1959,-3.2348,-3.2527,-3.3155,-3.3814,-3.4503,-3.4653,-3.4981,-3.5519,-3.5519,-3.5519,-3.5519,-3.5519,-3.5878,-3.6537,-3.7015,-3.7674,-3.8512,-3.9738,-4.0606,-4.1265,-4.1961,-4.2581,-4.311,-1.5502,-1.5497,0.0,0.0,-1.7909,-1.8548,-1.9135,-1.9257,0.0,0.0,0.0,0.0,0.0,0.0,0.0,0.0,0.0,0.0,-2.1874,0.0,-2.0056,-2.0056,-2.0056,-2.0056,-2.0056,-2.0056,-2.0056,-2.0056,0.0,0.0,0.0,0.0,0.0,0.0,-2.2655,0.0,0.0,0.0,-2.4451,0.0,-2.6019,-2.6727,0.0,-2.7794,-2.783,-2.8086,-2.8712,-2.9342,-2.9732,0.0,-2.9432,-2.9991,0.0,-2.735,-2.7799,-2.5412,0.0,0.0,0.0,0.0,0.0,0.0,-2.3887,0.0,0.0,0.0,-2.2164,-2.1036,0.0,0.0,0.0,0.0,0.0,0.0,0.0,0.0,0.0,0.0,0.0,0.0,0.0,0.0,0.0,-2.5016,-2.6033,-2.6752,-2.7525,-2.8214,-2.8786,-2.9953,-3.0612,-3.0612,-3.1241,-3.1899,-3.2467,-3.3155,-3.3814,-3.4503,-3.51,-3.5429,-3.5519,-3.5519,-3.5519,-3.5519,-3.5519,-3.5878,-3.654,-3.6567,-3.7315,-3.8452,-3.923,-3.9918,-4.0576,-4.1302,-4.1961,-4.259,-1.6155,-1.618,0.0,0.0,-1.7749,-1.8205,-1.9262,-2.068,0.0,0.0,0.0,0.0,0.0,0.0,0.0,0.0,0.0,-2.2594,0.0,0.0,0.0,-2.2563,-2.1134,-2.0857,-2.2028,-2.1288,-2.1073,-2.1473,-2.175,0.0,0.0,0.0,0.0,0.0,-2.2286,0.0,-2.2243,0.0,-2.4697,0.0,0.0,0.0,0.0,-2.7734,-2.8192,-2.8308,-2.885,-2.9007,-2.8916,0.0,-2.888,0.0,0.0,0.0,0.0,-2.6542,0.0,0.0,0.0,0.0,0.0,0.0,0.0,0.0,-2.3002,0.0,-2.1485,0.0,0.0,0.0,0.0,0.0,0.0,0.0,-1.942,0.0,0.0,0.0,0.0,0.0,0.0,0.0,0.0,0.0,0.0,0.0,-2.6207,-2.7141,-2.741,-2.9056,-3.0133,-3.0492,-3.0763,-3.1241,-3.1899,-3.2557,-3.3275,-3.3903,-3.4592,-3.513,-3.5519,-3.5519,-3.5519,-3.5519,-3.5519,-3.5669,-3.5938,-3.6327,-3.6806,-3.7375,-3.8422,-3.9469,-4.0427,-4.0696,-4.1512,-4.244,-1.6554,0.0,0.0,0.0,0.0,0.0,-1.9777,0.0,0.0,0.0,0.0,0.0,-2.5988,-2.5118,0.0,0.0,-2.6103,-2.4841,0.0,0.0,-2.2594,0.0,0.0,0.0,-2.2717,-2.2182,-2.1904,-2.2028,-2.2378,0.0,0.0,0.0,0.0,0.0,0.0,-2.2501,-2.2501,0.0,0.0,-2.5527,-2.6965,-2.6965,-2.6296,-2.7611,-2.8258,-2.8449,-2.8786,-2.8731,-2.8608,-2.897,-2.8949,0.0,-2.9275,0.0,-2.7715,0.0,0.0,0.0,-2.5023,0.0,0.0,0.0,0.0,0.0,0.0,0.0,0.0,0.0,0.0,0.0,0.0,0.0,0.0,0.0,0.0,-1.8642,0.0,0.0,0.0,0.0,0.0,0.0,0.0,0.0,0.0,-2.3041,-2.4418,-2.5555,-2.6273,-2.7859,-2.9146,-2.9953,-3.0313,-3.0731,-3.1212,-3.2258,-3.2946,-3.3245,-3.4114,-3.4741,-3.522,-3.522,-3.534,-3.5519,-3.5519,-3.5519,-3.5549,-3.6028,-3.6327,-3.6567,-3.7494,-3.8691,-3.9888,-4.0247,-4.0995,-4.1901,-1.661,-1.661,0.0,0.0,0.0,0.0,0.0,0.0,0.0,0.0,0.0,0.0,0.0,0.0,0.0,0.0,0.0,-2.7272,-2.7334,0.0,-2.364,0.0,0.0,-2.2644,0.0,-2.2594,-2.2594,-2.1319,-2.2624,0.0,0.0,0.0,0.0,0.0,0.0,-2.3979,-2.5158,-2.525,-2.645,-2.8288,-2.835,-2.835,-2.8258,0.0,-2.7827,-2.8387,-2.8266,0.0,0.0,-2.9829,-3.0437,0.0,0.0,0.0,0.0,0.0,0.0,0.0,0.0,0.0,0.0,-2.5734,0.0,0.0,0.0,0.0,-2.3947,0.0,0.0,0.0,0.0,0.0,0.0,0.0,0.0,0.0,0.0,0.0,0.0,0.0,0.0,0.0,0.0,0.0,0.0,-2.1695,-2.1814,-2.2951,-2.5495,-2.6303,-2.729,-2.8637,-2.9864,-3.0522,-3.0522,-3.2497,-3.3155,-3.2557,-3.3873,-3.4503,-3.4533,-3.4533,-3.4891,-3.5519,-3.5519,-3.5519,-3.5519,-3.5519,-3.5908,-3.6477,-3.6537,-3.7315,-3.8601,-3.9918,-4.0427,-4.0546,0.0,0.0,0.0,0.0,0.0,0.0,0.0,-2.2561,0.0,0.0,0.0,0.0,0.0,-3.2044,-3.2382,0.0,0.0,-3.0689,-3.0689,-2.8381,0.0,0.0,0.0,-2.5118,0.0,0.0,-2.3979,-2.2624,0.0,0.0,0.0,0.0,0.0,0.0,0.0,-2.3394,0.0,0.0,0.0,0.0,0.0,-2.7557,-2.8381,0.0,-2.8196,-2.8473,-2.8855,-2.8885,0.0,-2.9317,-2.9658,-2.975,-2.9194,-2.9021,-2.8784,-2.7582,-2.74,-2.7546,0.0,0.0,-2.856,-2.7374,0.0,0.0,0.0,0.0,0.0,0.0,0.0,0.0,0.0,0.0,0.0,0.0,0.0,0.0,0.0,0.0,0.0,0.0,0.0,0.0,0.0,0.0,0.0,-2.0337,-2.1186,-2.2443,-2.4178,-2.5345,-2.6752,-2.8547,-2.9445,-3.0103,-3.0492,-3.2048,-3.2946,-3.3185,-3.4053,-3.4711,-3.516,-3.516,-3.528,-3.5519,-3.5519,-3.5519,-3.5519,-3.5519,-3.5639,-3.5908,-3.6776,-3.7375,-3.7853,-3.8751,-3.9649,-4.0487,-1.8619,0.0,0.0,0.0,0.0,0.0,0.0,0.0,0.0,0.0,-3.0004,0.0,-3.4903,0.0,-3.5153,0.0,-3.5029,-3.3429,-3.2444,-3.0782,0.0,-2.9089,-2.8042,0.0,0.0,0.0,0.0,0.0,0.0,-2.3363,0.0,0.0,0.0,0.0,0.0,0.0,-2.4697,0.0,-2.5826,0.0,0.0,-2.7218,0.0,0.0,-2.835,-2.8781,0.0,-2.8781,-2.8479,-2.9081,-2.9271,-2.9245,-2.917,-2.8997,-2.8753,-2.8216,-2.8246,-2.8484,-2.8379,-2.8986,0.0,-2.8465,-2.7557,0.0,-2.5618,0.0,-2.4297,0.0,0.0,0.0,0.0,0.0,0.0,0.0,0.0,0.0,0.0,-1.695,0.0,0.0,0.0,0.0,0.0,0.0,-1.8642,-1.9301,-2.0367,-2.1844,0.0,-2.4754,-2.6183,-2.8158,-2.9142,-2.9774,-3.0163,-3.1719,-3.2617,-3.2796,-3.3694,-3.4352,-3.4801,-3.504,-3.528,-3.5519,-3.5519,-3.5519,-3.5519,-3.5519,-3.5519,-3.5579,-3.6417,-3.7015,-3.7524,-3.8422,-3.929,-4.0157,0.0,0.0,0.0,0.0,-2.0004,0.0,0.0,0.0,-2.8175,0.0,-3.1778,-3.4056,-3.4802,-3.589,-3.6846,-3.7461,-3.6907,-3.5399,-3.2721,-3.2536,0.0,0.0,-2.9243,-2.8264,-2.5465,0.0,0.0,0.0,0.0,0.0,0.0,0.0,0.0,0.0,-2.3671,0.0,-2.5281,-2.598,-2.6718,-2.7396,-2.7426,-2.7457,-2.7488,-2.7457,-2.8258,-2.931,-2.8658,-2.8411,-2.8504,-2.915,-2.9341,-2.9341,-2.9341,-2.9771,-3.0022,-2.8602,-2.9587,-3.0788,-2.9407,-2.9021,-2.9052,-2.9021,-2.8044,0.0,0.0,0.0,-2.7212,0.0,0.0,0.0,0.0,0.0,0.0,0.0,0.0,0.0,0.0,0.0,0.0,0.0,0.0,0.0,0.0,-1.6967,-1.7938,-1.8642,-1.9301,-2.1126,0.0,-2.4575,-2.5501,-2.7495,-2.8873,-2.9621,-2.9621,-3.1509,-3.2138,-3.157,-3.2856,-3.3484,-3.3574,-3.4234,-3.4861,-3.5519,-3.5519,-3.5519,-3.5519,-3.5519,-3.5519,-3.5519,-3.5549,-3.6327,-3.7614,-3.8931,-3.9373,-3.9529,-2.0421,-2.07,-2.1237,0.0,-2.2037,-2.2946,0.0,0.0,0.0,0.0,-3.3647,-3.5237,-3.7309,-3.7801,-3.7861,-3.7523,-3.7338,0.0,0.0,0.0,0.0,-3.1459,-3.2013,-3.0658,-2.6934,-2.7519,-2.638,-2.3302,0.0,0.0,-2.2336,0.0,0.0,0.0,0.0,0.0,-2.4564,-2.4748,-2.5826,-2.7426,-2.795,-2.8442,-2.8818,0.0,-2.8688,-2.931,-2.8658,-2.8411,-2.8442,-2.8596,-2.8658,-2.8658,-2.8658,-2.8781,-2.8818,-2.8455,-2.907,-2.9782,-2.9419,-2.9639,-2.9914,-2.9292,-2.8528,-2.774,0.0,0.0,0.0,0.0,0.0,0.0,0.0,0.0,0.0,0.0,0.0,0.0,0.0,0.0,0.0,-1.7758,0.0,0.0,0.0,-1.7055,-1.7443,-1.8612,-1.9301,-2.0936,-2.3699,0.0,0.0,-2.6836,-2.8663,-2.9621,-2.9621,-3.1032,-3.1929,-3.2228,-3.2587,-3.3275,-3.4264,-3.4444,-3.4861,-3.5519,-3.5519,-3.5519,-3.5519,-3.5519,-3.5519,-3.5549,-3.6058,-3.7015,-3.8242,-3.911,-3.9373,-3.9529,-2.2429,0.0,0.0,-2.4594,0.0,0.0,-2.7557,-2.8942,0.0,-3.4077,-3.5498,0.0,-3.7809,-3.8397,-3.8458,-3.7776,-3.7619,0.0,-3.5674,0.0,0.0,-3.2936,-3.2906,-3.1336,-2.7919,-2.7588,0.0,-2.3733,0.0,0.0,-2.2748,0.0,0.0,0.0,0.0,-2.3948,0.0,-2.4912,-2.5887,-2.7026,-2.7703,-2.8196,0.0,-2.8104,-2.8381,-2.8935,-2.8535,-2.8411,-2.8411,-2.8411,-2.8411,-2.8411,-2.8411,-2.8411,-2.8411,-2.8411,-2.8873,-2.9402,-2.9402,-2.9679,-2.9863,-2.9388,-2.8995,-2.8511,-2.771,-2.7747,-2.7899,0.0,-2.6724,-2.5788,0.0,0.0,0.0,0.0,0.0,0.0,0.0,0.0,0.0,0.0,-1.8476,0.0,-1.8553,-1.7443,-1.7384,-1.9001,-1.9498,-2.0976,0.0,0.0,0.0,-2.6542,-2.8547,-2.9322,-2.8723,-3.0881,-3.1809,-3.1629,-3.2228,-3.3066,-3.4053,-3.4384,-3.4861,-3.5519,-3.5519,-3.5519,-3.5519,-3.5519,-3.5519,-3.5609,-3.6537,-3.7315,-3.8093,-3.905,-3.9373,-3.9529,0.0,0.0,0.0,0.0,0.0,0.0,0.0,-3.1912,0.0,-3.5366,0.0,-3.787,-3.7369,-3.8154,-3.8528,-3.7904,0.0,-3.7064,-3.5918,-3.6168,-3.5522,-3.3614,-3.2813,-3.1182,-2.8596,-2.7157,-2.5773,0.0,-2.3763,-2.3425,0.0,0.0,0.0,0.0,0.0,0.0,0.0,-2.5681,-2.6296,-2.6587,-2.7242,-2.7519,-2.755,-2.7642,-2.8011,-2.8535,-2.8535,-2.8473,-2.8411,-2.8411,-2.8411,-2.8411,-2.8411,-2.8411,-2.8411,-2.8411,-2.8873,-2.9371,-2.9279,-2.931,-2.9402,-2.9402,-2.931,-2.9125,-2.8504,-2.8756,-2.8945,-2.848,-2.7252,-2.6367,-2.6488,0.0,0.0,0.0,0.0,0.0,0.0,0.0,0.0,0.0,0.0,0.0,0.0,0.0,-1.7639,-1.9558,-1.9708,0.0,0.0,0.0,-2.4448,-2.6273,-2.8368,-2.8963,-2.7854,-3.0851,-3.1898,-3.0911,-3.1898,-3.2826,-3.3634,-3.4144,-3.4771,-3.5519,-3.5519,-3.5519,-3.5519,-3.5519,-3.5519,-3.5609,-3.6716,-3.7255,-3.7554,-3.8721,-3.926,-3.9529,0.0,0.0,0.0,0.0,0.0,-3.1703,-3.483,-3.4541,-3.4672,-3.6609,-3.7177,-3.7525,-3.781,-3.753,-3.7311,-3.7218,-3.7002,0.0,0.0,0.0,0.0,-3.4351,-3.3059,-3.1397,-2.9248,-2.7919,-2.6534,-2.5127,-2.4471,-2.4133,-2.4133,0.0,0.0,0.0,0.0,0.0,-2.5127,-2.5373,0.0,-2.7272,-2.795,-2.8227,-2.8288,-2.8842,-2.9095,-2.9218,-2.9218,-2.8873,-2.8411,-2.8411,-2.8411,-2.8411,-2.8411,-2.8411,-2.8411,-2.8411,-2.8873,-2.9304,-2.875,-2.8996,-2.9402,-2.9402,-2.8972,-2.8664,-2.9125,-2.8855,-2.8639,-2.91,-2.8547,-2.7786,-2.7187,0.0,0.0,0.0,0.0,0.0,0.0,0.0,0.0,0.0,0.0,-2.0545,0.0,0.0,0.0,0.0,0.0,0.0,0.0,0.0,-2.4029,0.0,-2.744,0.0,0.0,0.0,-3.2108,-3.2946,-3.2079,-3.2617,-3.4324,-3.3873,-3.4352,-3.5519,-3.5519,-3.5519,-3.5519,-3.5519,-3.5519,-3.5519,-3.5759,-3.6477,-3.7434,-3.7674,-3.8452,-3.9529,0.0,0.0,0.0,0.0,0.0,0.0,0.0,-3.6216,-3.6693,-3.7265,-3.7014,-3.689,-3.7147,-3.721,-3.7241,-3.7241,-3.7089,-3.6968,-3.6968,-3.6103,-3.5303,-3.4653,-3.2869,-3.1089,-2.9433,-2.8104,-2.6718,-2.5281,-2.4973,-2.4656,-2.4317,0.0,0.0,0.0,0.0,-2.5004,0.0,0.0,0.0,-2.7488,-2.8504,-2.8935,-2.8996,-2.9648,-2.9925,-2.9925,-2.9925,-2.971,-2.9371,-2.9058,-2.8688,-2.8473,-2.8812,-2.8688,-2.8411,-2.8411,-2.8627,-2.8812,-2.8504,-2.8658,-2.8879,-2.8879,-2.8658,-2.8504,-2.8812,-2.8904,-2.8935,-2.8904,-2.8904,-2.8479,-2.7049,-2.5365,0.0,0.0,0.0,0.0,0.0,0.0,-2.2111,0.0,0.0,0.0,0.0,0.0,0.0,0.0,0.0,-2.1066,-2.3041,0.0,-2.3729,0.0,0.0,0.0,-2.8064,0.0,-3.2198,-3.148,-3.2198,-3.3036,-3.3963,-3.3993,-3.4562,-3.5519,-3.5519,-3.5519,-3.5519,-3.5519,-3.5519,-3.5549,-3.5878,-3.6387,-3.7015,-3.7674,-3.8332,-3.899,0.0,-3.2068,0.0,0.0,-3.4156,0.0,-3.5935,-3.7316,-3.8207,-3.7954,-3.7164,-3.6661,-3.6819,-3.7227,-3.751,-3.751,-3.7329,-3.7115,-3.699,-3.6065,-3.5233,-3.455,-3.2423,-3.0794,-2.9718,-2.8206,-2.691,-2.5808,-2.5478,-2.5078,-2.4533,0.0,0.0,0.0,0.0,0.0,0.0,0.0,-2.7703,-2.7919,-2.8972,-2.9402,-2.9464,-2.9986,-3.0171,-3.0171,-3.0171,-3.0171,-3.0109,-2.974,-2.9248,-2.8904,-2.9304,-2.915,-2.8781,-2.8504,-2.8596,-2.8781,-2.8473,-2.8504,-2.8627,-2.8627,-2.8504,-2.8442,-2.8596,-2.8935,-2.9058,-2.8504,-2.8842,-2.8719,-2.7119,-2.6496,0.0,0.0,0.0,0.0,0.0,0.0,0.0,0.0,0.0,0.0,-2.2838,0.0,0.0,0.0,0.0,-2.1695,-2.349,-2.3032,-2.3541,0.0,0.0,-2.7824,-2.707,0.0,-3.2137,-3.0698,-3.2467,-3.3514,-3.3933,-3.4292,-3.4861,-3.5519,-3.5519,-3.5519,-3.5519,-3.5519,-3.5519,-3.5579,-3.6237,-3.6567,-3.6836,-3.7973,-3.8482,-3.8691,0.0,0.0,0.0,0.0,0.0,0.0,-3.7931,-3.7767,-3.8016,-3.9155,-3.8175,-3.7607,-3.8239,-3.7796,-3.751,-3.751,-3.7329,-3.6927,-3.633,-3.5466,-3.4693,-3.3979,-3.1981,-3.0797,-3.0672,-2.8685,-2.758,-2.7387,-2.6116,-2.5379,0.0,0.0,0.0,0.0,0.0,0.0,0.0,-2.798,-2.8658,-2.9218,-2.9341,-2.9402,-2.9402,-2.9464,-2.9494,-2.9494,-2.9494,-2.9494,-2.9556,-3.0109,-3.0263,-3.0109,-2.9556,-2.9771,-2.9956,-2.8781,-2.9248,-2.9956,-2.875,-2.8842,-2.931,-2.931,-2.8873,-2.8565,-2.9181,-2.8879,-2.8473,-2.8411,-2.8442,-2.8442,-2.8258,-2.7211,-2.5918,0.0,0.0,0.0,0.0,0.0,-2.3611,-2.2586,0.0,0.0,-2.2297,-2.15,0.0,0.0,-2.2084,-2.2203,-2.352,-2.3032,-2.331,-2.4664,-2.6063,-2.7365,-2.8574,-3.0038,-3.1927,-3.4209,-3.3126,-3.3544,-3.528,-3.4741,-3.4861,-3.5519,-3.5519,-3.5519,-3.5519,-3.5519,-3.5519,-3.5579,-3.6237,-3.6836,-3.7404,-3.8123,-3.8781,-3.932,0.0,0.0,0.0,0.0,0.0,0.0,0.0,-3.8711,-3.9162,-3.9325,-3.827,-3.7605,-3.7859,-3.7668,-3.751,-3.751,-3.745,-3.7076,-3.6353,-3.5545,-3.4582,-3.3459,-3.1748,-3.0604,-3.023,-2.8982,-2.8147,0.0,0.0,0.0,-2.5997,0.0,0.0,0.0,0.0,-2.7703,-2.8658,-2.9335,-2.974,-3.0017,-3.0443,-3.0351,-3.0048,-3.0443,-3.0351,-2.9986,-2.9986,-2.9986,-3.0048,-3.0294,-2.9863,-2.9279,-2.9833,-2.9617,-2.9095,-2.8565,-2.8781,-2.9064,-2.8565,-2.8596,-2.8904,-2.9279,-2.8904,-2.8596,-2.9248,-2.9212,-2.8904,-2.8504,-2.8411,-2.8411,-2.8411,-2.795,-2.7149,-2.5764,0.0,0.0,0.0,0.0,0.0,-2.2563,0.0,-2.4317,0.0,0.0,0.0,0.0,0.0,-2.2888,-2.3794,-2.3997,-2.4467,-2.5288,0.0,-2.7876,-2.8781,-3.0528,-3.1918,-3.2945,-3.3547,-3.4206,-3.4923,-3.5138,-3.5351,-3.5621,-3.5522,-3.5519,-3.5519,-3.5519,-3.5519,-3.5579,-3.6237,-3.6626,-3.6985,-3.8003,-3.8571,-3.8871,-3.7594,0.0,-3.7376,0.0,-3.8327,-3.8646,-3.8646,-3.9362,-3.9725,-3.9255,-3.8511,-3.7947,-3.7772,-3.7567,-3.7569,-3.7743,-3.7552,-3.7109,-3.6377,-3.5625,-3.4474,-3.2924,-3.1626,0.0,-2.9922,-2.9233,-2.8584,-2.8061,-2.7493,0.0,0.0,0.0,0.0,0.0,-2.8497,-2.9089,-2.974,-3.0386,-3.0694,-3.0751,-3.1213,-3.112,-3.072,-3.0782,-3.0535,-3.0079,-2.9863,-2.9802,-2.9833,-3.0048,-2.9341,-2.8596,-2.974,-2.9863,-2.9458,-2.8873,-2.8965,-2.9212,-2.8812,-2.8842,-2.9027,-2.9089,-2.8904,-2.8781,-2.9058,-2.9119,-2.8972,-2.8504,-2.8411,-2.8411,-2.8411,-2.8411,-2.795,-2.6618,0.0,0.0,0.0,-2.4471,0.0,-2.2336,-2.3609,-2.4256,-2.3117,-2.2915,0.0,0.0,0.0,-2.364,-2.4246,-2.455,-2.5053,0.0,0.0,0.0,-2.9187,-3.0876,-3.2059,-3.282,-3.4091,-3.4751,-3.4866,-3.5445,-3.5688,-3.5688,-3.5653,-3.5619,-3.5554,-3.5619,-3.5739,-3.5914,-3.6573,-3.6963,-3.7199,-3.8342,-3.8727,-3.8751,-4.0687,-4.086,-4.0836,-4.086,-4.0368,-3.9986,-3.9986,-3.9558,-3.9222,-3.9189,-3.9162,-3.8947,-3.8362,-3.7799,-3.7714,-3.8222,-3.7635,-3.6923,-3.6232,-3.5493,-3.4291,0.0,0.0,-3.0907,-3.0236,-2.9461,-2.9013,-2.8889,0.0,0.0,-2.8779,0.0,-2.8938,-2.9565,-2.9446,-2.974,-3.0417,-3.1089,-3.1393,-3.1393,-3.1424,-3.1424,-3.1213,-2.992,-2.9427,-2.9335,-2.8658,-2.8442,-2.8535,-2.9212,-2.8965,-2.8535,-2.9187,-3.0782,-3.1951,-2.9981,-3.032,-3.1059,-2.9766,-2.9863,-3.0048,-2.875,-2.8904,-2.9243,-2.8565,-2.8411,-2.8411,-2.8411,-2.8411,-2.8411,-2.8411,-2.8411,-2.795,-2.6618,0.0,0.0,0.0,-2.404,0.0,-2.1627,-2.2501,-2.3055,-2.2397,-2.2305,0.0,0.0,0.0,0.0,0.0,0.0,0.0,-2.5948,-2.6009,0.0,-3.0143,-3.0742,-3.2416,-3.5156,-3.4848,-3.5055,-3.5688,-3.5688,-3.5688,-3.572,-3.591,-3.5878,-3.572,-3.591,-3.6271,-3.674,-3.7436,-3.7996,-3.8487,-3.9354,-3.9589,-3.9409,-4.0756,-4.0894,-4.0894,-4.0894,-4.0752,-4.0597,-4.0597,-4.0476,-4.0353,-4.0353,-3.9995,-3.9655,-3.9473,-3.9001,-3.8504,0.0,-3.788,-3.7255,0.0,-3.544,-3.4187,-3.2168,-3.1515,-3.063,-2.9485,-2.9209,-2.9091,-2.9036,0.0,0.0,0.0,-2.9924,-3.041,-3.0964,-3.0912,-3.123,-3.1767,-3.1982,-3.2074,-3.2074,-3.2074,-3.152,-3.0663,-3.0233,-2.9494,-2.8688,-2.8473,-2.8411,-2.8442,-2.8658,-2.8873,-2.9058,-2.8812,-2.915,-2.955,-2.8904,-2.9027,-2.9273,-2.8842,-2.9187,-2.9617,-2.9212,-2.9243,-2.9341,-2.915,-2.875,-2.8411,-2.8411,-2.8411,-2.8411,-2.8411,-2.8411,-2.795,-2.6618,-2.678,0.0,-2.3363,0.0,-2.5025,-2.2305,-2.3579,-2.441,-2.3733,-2.4071,0.0,0.0,0.0,0.0,0.0,0.0,0.0,0.0,-2.9154,0.0,-3.2221,-3.2492,-3.3502,-3.5187,-3.5095,-3.5399,-3.6038,-3.5973,-3.5943,-3.6038,-3.6005,-3.5973,-3.591,-3.5973,-3.6368,-3.6937,-3.7469,-3.8065,-3.8657,-3.9277,-3.9445,-3.9409,-4.0791,-4.0894,-4.0894,-4.0894,-4.0894,-4.0894,-4.0894,-4.0894,-4.0894,-4.0894,-4.0573,-4.0319,-4.0319,-4.002,0.0,-3.8445,-3.8086,-3.7419,-3.63,-3.562,-3.4388,-3.2298,-3.1907,-3.1074,-2.9681,-2.9448,0.0,-2.9357,-2.9666,-3.0256,-3.1124,-3.1487,-3.1847,-3.2146,-3.2093,-3.2203,-3.2496,-3.2496,-3.2468,-3.2382,-3.2105,-3.152,-3.072,-3.0202,-2.9494,-2.875,-2.8504,-2.8411,-2.8411,-2.8411,-2.8688,-2.8965,-2.8535,-2.8411,-2.8442,-2.8719,-2.8965,-2.9119,-2.8818,-2.9248,-2.9648,-2.915,-2.9187,-2.931,-2.9064,-2.8719,-2.8411,-2.8411,-2.8411,-2.8411,-2.8411,-2.8411,-2.8134,-2.7272,-2.7272,-2.6626,-2.4379,0.0,-2.5149,0.0,0.0,0.0,0.0,-2.5281,-2.5496,0.0,0.0,0.0,0.0,0.0,-2.824,-2.924,-3.0663,-3.2139,-3.3683,-3.3769,-3.4417,-3.5677,-3.5615,-3.5798,-3.6196,-3.6132,-3.6132,-3.6196,-3.6195,-3.6132,-3.61,-3.6438,-3.6894,-3.7499,-3.8034,-3.8663,-3.9229,-3.9581,-3.9696,-3.9625,-4.0894,-4.0894,-4.0894,-4.0894,-4.0894,-4.0894,-4.0894,-4.0894,-4.0894,-4.0894,-4.0894,-4.0894,-4.0894,-4.0894,-4.0336,-3.8977,0.0,0.0,-3.6729,-3.6005,-3.4734,-3.273,-3.263,-3.1934,-3.0531,-3.0075,-2.987,-2.9902,-3.0839,-3.1962,-3.3266,-3.3198,-3.315,-3.3096,-3.2993,-3.28,-3.2605,-3.2605,-3.2523,-3.2379,-3.1732,-3.1424,-3.1182,-2.995,-2.9402,-2.9248,-2.8627,-2.8411,-2.8411,-2.8411,-2.8411,-2.8411,-2.8411,-2.8411,-2.8535,-2.915,-2.9771,-3.0109,-2.9494,-2.9802,-3.0017,-2.8719,-2.8873,-2.9181,-2.8535,-2.8411,-2.8411,-2.8411,-2.8411,-2.8411,-2.8411,-2.8381,-2.8319,-2.8319,-2.7734,-2.678,-2.5404,-2.5281,-2.482,0.0,0.0,0.0,-2.5435,-2.6111,-2.6511,0.0,0.0,0.0,0.0,0.0,-2.9089,-2.9648,-3.0966,-3.2656,-3.4628,-3.4628,-3.5275,-3.6507,-3.632,-3.6196,-3.6196,-3.6196,-3.6196,-3.6227,-3.6414,-3.6383,-3.6288,-3.709,-3.7734,-3.8274,-3.8886,-3.9516,-4.0046,-4.0222,-4.0187,-4.0046,0.0,0.0,-4.0894,-4.0894,-4.0894,-4.0894,-4.0894,-4.0894,-4.0894,-4.0894,-4.0894,-4.0894,-4.0894,-4.0894,-4.0295,-3.8814,-3.8517,-3.783,-3.6479,-3.5912,-3.489,-3.3296,-3.2828,-3.1934,-3.0531,-3.0393,-3.0573,-3.1111,-3.1888,-3.2518,-3.2987,-3.359,-3.3591,-3.3096,-3.3069,-3.2962,-3.28,-3.2691,-3.2578,-3.2551,-3.2283,-3.1551,-3.0602,-3.0263,-2.9525,-2.8627,-2.8473,-2.8411,-2.8411,-2.8411,-2.8411,-2.8411,-2.8411,-2.8411,-2.8442,-2.8596,-2.875,-2.8842,-2.8688,-2.915,-2.9433,-2.8627,-2.8535,-2.8596,-2.8442,-2.8411,-2.8411,-2.8411,-2.8411,-2.8411,-2.8411,-2.798,-2.7642,-2.7642,-2.6595,-2.5496,-2.4656,-2.4973,-2.5189,-2.485,-2.638,-2.7488,-2.7673,-2.8264,-2.8449,0.0,0.0,-2.9679,-2.9212,-3.1643,-3.2875,-3.2475,-3.3798,-3.5028,-3.6045,-3.6014,-3.6168,-3.6507,-3.6445,-3.6414,-3.6414,-3.6414,-3.6414,-3.6414,-3.6476,-3.6445,-3.6445,-3.6661,-3.7399,-3.8409,-3.843,-3.9157,-4.0222,-4.0117,-4.0046,-4.0011,-4.0894,-4.0894,-4.0894,-4.0894,-4.0894,-4.0894,-4.0894,-4.0894,-4.0894,-4.0894,-4.0584,-4.0353,-4.0353,-4.0066,-3.9376,-3.8203,-3.841,-3.7939,-3.6387,-3.5741,-3.4895,-3.3789,-3.3079,-3.2212,-3.1117,-3.0885,-3.0995,-3.1494,-3.1891,-3.2296,-3.2718,-3.3517,-3.3582,-3.3035,-3.3636,-3.3565,-3.2989,-3.3118,-3.3113,-3.2997,-3.263,-3.1857,-3.0867,-3.0867,-2.9825,-2.8442,-2.875,-2.8658,-2.8436,-2.8668,-2.874,-2.8818,-2.9391,-2.9525,-2.9619,-2.9959,-2.9255,-2.8473,-2.8781,-2.8904,-2.8935,-2.8873,-2.8873,-2.8873,-2.8873,-2.8873,-2.8781,-2.8473,-2.8411,-2.8411,-2.8411,-2.7857,-2.7396,-2.7396,-2.5949,-2.482,-2.4779,-2.4789,-2.521,-2.6164,-2.755,-2.875,-2.9673,-2.9827,-2.9956,-3.0197,-3.0905,0.0,-3.1243,-3.3583,-3.4475,-3.3429,-3.506,-3.6107,-3.6507,-3.6507,-3.6507,-3.6507,-3.6507,-3.6507,-3.6507,-3.6507,-3.6507,-3.6507,-3.6507,-3.6507,-3.6507,-3.6815,-3.7554,-3.8506,-3.8747,-3.945,-4.0366,-4.0261,-4.0226,-4.0226,-4.0894,-4.0894,-4.0894,-4.0894,-4.0894,-4.0894,-4.0894,-4.0894,-4.0894,-4.0894,-4.0308,-3.9871,-3.9871,-3.9215,-3.8456,-3.7754,-3.8134,-3.7767,-3.6215,-3.5559,-3.48,-3.3958,-3.3248,-3.2559,-3.18,-3.153,-3.1409,-3.1553,-3.1774,-3.2097,-3.2453,-3.3271,-3.3425,-3.308,-3.4149,-3.417,-3.3382,-3.3758,-3.3853,-3.3712,-3.3108,-3.2392,-3.1678,-3.1678,-3.0576,-2.9042,-2.9608,-2.9359,-2.8848,-2.9232,-2.937,-2.9557,-3.0568,-3.0898,-3.1027,-3.1774,-3.0458,-2.8907,-2.9515,-2.92,-2.8812,-2.9279,-2.9464,-2.9556,-2.9556,-2.9464,-2.9273,-2.8812,-2.8535,-2.8442,-2.8535,-2.7919,-2.7365,-2.7272,-2.5672,-2.4604,-2.5066,-2.4912,-2.5518,-2.7457,-2.8473,-2.9704,-3.152,-3.1182,-3.1366,-3.2598,-3.2721,-3.2998,-3.3675,-3.4937,-3.506,-3.3767,-3.5522,-3.6507,-3.6507,-3.6507,-3.6507,-3.6507,-3.6507,-3.6507,-3.6507,-3.6507,-3.6507,-3.6507,-3.6507,-3.6507,-3.6538,-3.7123,-3.7738,-3.8415,-3.9,-3.9644,-4.0351,-4.0351,-4.0413,-4.0505,-4.0894,-4.0894,-4.0894,-4.0894,-4.0894,-4.0894,-4.0894,-4.0894,-4.0894,-4.0894,-4.0791,-4.0722,-4.0722,-4.0008,-3.9215,-3.8491,-3.7961,-3.7029,-3.5456,-3.5249,-3.4559,-3.3145,-3.2972,-3.2559,-3.18,-3.2364,-3.2322,-3.1751,-3.3054,-3.3196,-3.2244,-3.3005,-3.345,-3.3571,-3.3796,-3.4112,-3.4529,-3.4496,-3.4471,-3.4414,-3.4219,-3.3713,-3.3083,-3.3083,-3.2476,-3.163,-3.1727,-3.1214,-3.0509,-3.06,-3.0623,-3.0655,-3.0843,-3.0898,-3.1027,-3.1727,-3.1246,-3.0555,-3.0837,-3.0522,-2.9986,-2.9494,-2.9833,-3.0233,-3.0233,-2.9802,-2.9525,-2.9986,-2.9212,-2.8565,-2.915,-2.8227,-2.7211,-2.6626,-2.5764,-2.4973,-2.4512,0.0,-2.7457,-2.8935,-3.0689,-3.2105,-3.2998,-3.2998,-3.3275,-3.4135,-3.4166,-3.4474,-3.5152,-3.5922,-3.5984,-3.5213,-3.6014,-3.6507,-3.6507,-3.6507,-3.6507,-3.6507,-3.6507,-3.6507,-3.6507,-3.6507,-3.6507,-3.6507,-3.6507,-3.6507,-3.6507,-3.6599,-3.7061,-3.7677,-3.7769,-3.8569,-3.9677,-3.9677,-4.0013,-4.0505,-4.0894,-4.0894,-4.0894,-4.0894,-4.0894,-4.0894,-4.0894,-4.0894,-4.0894,-4.0894,-4.017,-3.9652,-3.9652,-3.8594,-3.7732,-3.7387,-3.7042,-3.6387,-3.5249,-3.518,-3.4869,-3.418,-3.3352,-3.2559,-3.18,-3.2524,-3.2731,-3.2386,-3.3544,-3.3564,-3.2593,-3.3365,-3.3426,-3.2959,-3.4013,-3.441,-3.4263,-3.4885,-3.5134,-3.5111,-3.5065,-3.4585,-3.3928,-3.4328,-3.3568,-3.2348,-3.2718,-3.206,-3.1089,-3.1298,-3.1396,-3.1418,-3.1613,-3.2209,-3.2907,-3.3217,-3.222,-3.1031,-3.1163,-3.0816,-3.0417,-3.0474,-3.072,-3.0936,-3.0936,-3.0689,-3.0474,-3.0417,-2.9894,-2.9464,-2.9402,-2.8596,-2.7734,-2.7057,-2.601,-2.5465,-2.5918,-2.7119,-2.8565,-3.0258,-3.1921,-3.3367,-3.4414,-3.4198,-3.4414,-3.5521,-3.5244,-3.5337,-3.5984,-3.6322,-3.6353,-3.6045,-3.6322,-3.6507,-3.6507,-3.6507,-3.6507,-3.6507,-3.6507,-3.6507,-3.6507,-3.6507,-3.6507,-3.6507,-3.6507,-3.6507,-3.6507,-3.6507,-3.6907,-3.7492,-3.7492,-3.8323,-3.949,-3.949,-3.9674,-4.0013,-4.0894,-4.0894,-4.0894,-4.0894,-4.0894,-4.0894,-4.0894,-4.0756,-4.0618,-4.0618,-3.9583,-3.8767,-3.8594,-3.7525,-3.6766,-3.6594,-3.6422,-3.6042,-3.549,-3.5456,-3.5283,-3.4938,-3.3628,-3.2628,-3.2076,-3.28,-3.3179,-3.3179,-3.38,-3.3697,-3.2904,-3.3352,-3.3245,-3.272,-3.4246,-3.4716,-3.4375,-3.534,-3.5766,-3.5766,-3.5766,-3.537,-3.4851,-3.5384,-3.4645,-3.335,-3.3649,-3.2929,-3.18,-3.1955,-3.2106,-3.2282,-3.253,-3.3486,-3.4549,-3.4549,-3.3211,-3.1669,-3.1412,-3.1162,-3.1114,-3.1639,-3.1888,-3.1955,-3.1854,-3.1703,-3.1433,-3.0962,-3.0602,-3.0294,-2.995,-2.9335,-2.8658,-2.798,0.0,-2.6849,-2.795,-2.8812,-3.0012,-3.1917,-3.3152,-3.4352,-3.5614,-3.5275,-3.5398,-3.6415,-3.6014,-3.5953,-3.6476,-3.6507,-3.6507,-3.6507,-3.6507,-3.6507,-3.6507,-3.6507,-3.6507,-3.6507,-3.6507,-3.6507,-3.6507,-3.6507,-3.6507,-3.6507,-3.6507,-3.6507,-3.6507,-3.6507,-3.6784,-3.7277,-3.7277,-3.7984,-3.9062,-3.9062,-3.9213,-3.9551,-4.0894,-4.0894,-4.0894,-4.0894,-4.0894,-4.0894,-4.0894,-4.0273,-3.9767,-3.9767,-3.9698,-3.9353,-3.8663,-3.8491,-3.8168,-3.7478,-3.6732,-3.6284,-3.6215,-3.6215,-3.5594,-3.4234,-3.3352,-3.2869,-3.2835,-3.3593,-3.4007,-3.4007,-3.4096,-3.3697,-3.2904,-3.2248,-3.2678,-3.3968,-3.4111,-3.4898,-3.6109,-3.622,-3.6241,-3.6241,-3.6241,-3.6207,-3.6151,-3.622,-3.6122,-3.5822,-3.5116,-3.4301,-3.3434,-3.2753,-3.3011,-3.3557,-3.3577,-3.4116,-3.4678,-3.4678,-3.4153,-3.3284,-3.2131,-3.2289,-3.2756,-3.287,-3.3329,-3.3662,-3.3171,-3.2593,-3.2154,-3.2245,-3.1274,-3.0571,-3.1151,-3.072,-3.0017,-2.9341,0.0,0.0,-3.0171,-3.1305,-3.2628,-3.4104,-3.4905,-3.5614,-3.6353,-3.6384,-3.6384,-3.6476,-3.6445,-3.6445,-3.6507,-3.6507,-3.6507,-3.6507,-3.6507,-3.6507,-3.6507,-3.6507,-3.6507,-3.6507,-3.6507,-3.6507,-3.6507,-3.6507,-3.6507,-3.6507,-3.6507,-3.6507,-3.6507,-3.6507,-3.6507,-3.6569,-3.6569,-3.6999,-3.7646,-3.7646,-3.8446,-3.949,-4.1117,-4.1023,-4.1,-4.0894,-4.0894,-4.0894,-4.0894,-4.0653,-4.0273,-3.9767,-3.9698,-3.925,-3.8065,-3.7927,-3.7594,-3.6801,-3.649,-3.6284,-3.6284,-3.587,-3.5352,-3.48,-3.4042,-3.3628,-3.3628,-3.3958,-3.4096,-3.4096,-3.5007,-3.4835,-3.3628,-3.3835,-3.3973,-3.413,-3.4579,-3.5076,-3.5628,-3.6111,-3.6284,-3.6284,-3.6284,-3.6284,-3.6284,-3.6284,-3.5987,-3.5621,-3.5738,-3.5029,-3.3957,-3.4048,-3.4268,-3.4418,-3.3912,-3.4247,-3.4738,-3.4239,-3.3901,-3.3688,-3.376,-3.366,-3.359,-3.359,-3.3817,-3.396,-3.3726,-3.3482,-3.3335,-3.3386,-3.3072,-3.2688,-3.245,-3.2625,-3.2452,-3.133,0.0,-3.2221,-3.2252,-3.309,-3.4073,-3.5028,-3.5707,-3.6199,-3.6476,-3.6507,-3.6507,-3.6507,-3.6507,-3.6507,-3.6507,-3.6507,-3.6507,-3.6507,-3.6507,-3.6507,-3.6507,-3.6507,-3.6507,-3.6507,-3.6507,-3.6507,-3.6507,-3.6507,-3.6507,-3.6507,-3.6507,-3.6507,-3.6507,-3.6507,-3.6507,-3.6507,-3.6507,-3.6907,-3.7554,-3.7984,-3.8446,-3.9,-4.1613,-4.1448,-4.1312,-4.1163,-4.1035,-4.0976,-4.0894,-4.0687,-4.0342,-3.9767,-3.9491,-3.887,-3.765,-3.7512,-3.7202,-3.6387,-3.6284,-3.6284,-3.6284,-3.5835,-3.5352,-3.4869,-3.4594,-3.4476,-3.4476,-3.4476,-3.4579,-3.4766,-3.5352,-3.5076,-3.4096,-3.4111,-3.4111,-3.413,-3.4628,-3.5111,-3.5594,-3.6077,-3.6284,-3.6284,-3.6284,-3.6284,-3.6284,-3.6284,-3.5973,-3.5594,-3.587,-3.5283,-3.4421,-3.4375,-3.4644,-3.4919,-3.4137,-3.4542,-3.5185,-3.4596,-3.4404,-3.4575,-3.5361,-3.5305,-3.4955,-3.493,-3.4906,-3.4923,-3.4954,-3.4969,-3.4919,-3.4767,-3.4786,-3.4686,-3.414,-3.4523,-3.4553,-3.3393,-3.3805,-3.4219,-3.407,-3.469,-3.5306,-3.5737,-3.6199,-3.6507,-3.6507,-3.6507,-3.6507,-3.6507,-3.6507,-3.6507,-3.6507,-3.6507,-3.6599,-3.6815,-3.6815,-3.6907,-3.7123,-3.6907,-3.6815,-3.6815,-3.6815,-3.6692,-3.6507,-3.6507,-3.6507,-3.6507,-3.6507,-3.6507,-3.6507,-3.6507,-3.6507,-3.6507,-3.6507,-3.6784,-3.7277,-3.7954,-3.8323,-3.8662,-4.2521,-4.216,-4.186,-4.1731,-4.1346,-4.1047,-4.0918,-4.0239,-3.9698,-3.9698,-3.9077,-3.8341,-3.7581,-3.7512,-3.7202,-3.6387,-3.6284,-3.6284,-3.6284,-3.6284,-3.5628,-3.4165,-3.48,-3.518,-3.5214,-3.518,-3.5559,-3.6284,-3.4835,-3.413,-3.4061,-3.2524,-3.2628,-3.4096,-3.4096,-3.4904,-3.6284,-3.6284,-3.6284,-3.6284,-3.6284,-3.6284,-3.6284,-3.6284,-3.6284,-3.618,-3.5456,-3.518,-3.4938,-3.3455,-3.3938,-3.5076,-3.4337,-3.5084,-3.6182,-3.6041,-3.5997,-3.6168,-3.6898,-3.7103,-3.7058,-3.6945,-3.6922,-3.6965,-3.7103,-3.7119,-3.6934,-3.6411,-3.6306,-3.6306,-3.6306,-3.6306,-3.6093,-3.5498,-3.5989,-3.6232,-3.5612,-3.6107,-3.6507,-3.6507,-3.6507,-3.6507,-3.6507,-3.6507,-3.6507,-3.6507,-3.6538,-3.6476,-3.6507,-3.6507,-3.6815,-3.7461,-3.7492,-3.7831,-3.8508,-3.7831,-3.7492,-3.7492,-3.7492,-3.7153,-3.6507,-3.6507,-3.6507,-3.6507,-3.6507,-3.6507,-3.6507,-3.6507,-3.6507,-3.6507,-3.6507,-3.6507,-3.6569,-3.7246,-3.7923,-3.86,-4.264,-4.2262,-4.2015,-4.2241,-4.1666,-4.1346,-4.1825,-4.1203,-4.055,-4.0241,-3.9695,-3.887,-3.765,-3.7512,-3.7202,-3.6387,-3.6284,-3.6077,-3.5559,-3.5525,-3.5318,-3.4869,-3.5076,-3.5421,-3.5939,-3.5456,-3.5318,-3.5525,-3.5594,-3.5111,-3.4096,-3.4145,-3.4145,-3.4096,-3.4096,-3.4337,-3.4766,-3.4766,-3.4766,-3.4766,-3.4766,-3.4766,-3.4766,-3.4766,-3.4387,-3.4042,-3.4869,-3.4869,-3.4545,-3.5076,-3.5594,-3.5835,-3.5111,-3.5159,-3.5483,-3.5442,-3.5442,-3.5717,-3.7025,-3.7403,-3.744,-3.7786,-3.7877,-3.7876,-3.7821,-3.7783,-3.7711,-3.7467,-3.7484,-3.7555,-3.7444,-3.7915,-3.8097,-3.7419,-3.7916,-3.8154,-3.7562,-3.7636,-3.7767,-3.7767,-3.7767,-3.7767,-3.7767,-3.7767,-3.7767,-3.7767,-3.7387,-3.6968,-3.6507,-3.6507,-3.6786,-3.7432,-3.7432,-3.7958,-3.9047,-3.7997,-3.7492,-3.7492,-3.7492,-3.7153,-3.6507,-3.6999,-3.6938,-3.6507,-3.6507,-3.6507,-3.6507,-3.6507,-3.6507,-3.6507,-3.6507,-3.6507,-3.6569,-3.7246,-3.7615,-3.7892,-4.323,-4.283,-4.2582,-4.2755,-4.2206,-4.1909,-4.2306,-4.1839,-4.1318,-4.0945,-4.0257,-3.9295,-3.8065,-3.7685,-3.7202,-3.6387,-3.6284,-3.5973,-3.5249,-3.5456,-3.549,-3.5214,-3.549,-3.5835,-3.6284,-3.5594,-3.518,-3.518,-3.5042,-3.4663,-3.4096,-3.3938,-3.3938,-3.4096,-3.3785,-3.38,-3.4096,-3.4096,-3.4096,-3.4096,-3.4096,-3.4096,-3.4096,-3.4096,-3.38,-3.3524,-3.4766,-3.4904,-3.4683,-3.5559,-3.587,-3.5835,-3.5663,-3.5628,-3.5628,-3.5628,-3.587,-3.6387,-3.7616,-3.8168,-3.8537,-3.9192,-3.9031,-3.8824,-3.9013,-3.901,-3.8962,-3.8865,-3.8849,-3.8866,-3.8787,-3.9202,-3.932,-3.8645,-3.8924,-3.9001,-3.8362,-3.8306,-3.8306,-3.8306,-3.8306,-3.8306,-3.8306,-3.8306,-3.8306,-3.8306,-3.7969,-3.7592,-3.7207,-3.7207,-3.7394,-3.7766,-3.7798,-3.8294,-3.9354,-3.8371,-3.7872,-3.7841,-3.7619,-3.7153,-3.6507,-3.6907,-3.6876,-3.6507,-3.6507,-3.6507,-3.6507,-3.6507,-3.6507,-3.6507,-3.6507,-3.6507,-3.6569,-3.7246,-3.7492,-3.7615,-4.3986,-4.3677,-4.337,-4.3264,-4.2904,-4.2621,-4.2602,-4.2241,-4.1909,-4.1754,-4.0653,-3.9589,-3.8737,-3.7953,-3.7226,-3.6478,-3.6333,-3.5946,-3.5249,-3.5835,-3.5904,-3.5214,-3.5904,-3.6284,-3.6215,-3.5525,-3.5145,-3.5111,-3.3697,-3.3352,-3.3958,-3.2559,-3.2593,-3.3835,-3.311,-3.3214,-3.3889,-3.3889,-3.3889,-3.3889,-3.3889,-3.3923,-3.3992,-3.3923,-3.3992,-3.4199,-3.4855,-3.5145,-3.5214,-3.5283,-3.5283,-3.5421,-3.6077,-3.6284,-3.6318,-3.6387,-3.6926,-3.7685,-3.8479,-3.9181,-3.9871,-4.0722,-4.0259,-3.9798,-4.0363,-4.0412,-4.0313,-4.0313,-4.0213,-4.0138,-4.0138,-4.0138,-3.9952,-3.9435,-3.9295,-3.9109,-3.8557,-3.8474,-3.8474,-3.8446,-3.8446,-3.8446,-3.8446,-3.8446,-3.8446,-3.8362,-3.8362,-3.8362,-3.8306,-3.8306,-3.8373,-3.8485,-3.8455,-3.877,-3.9466,-3.8802,-3.8456,-3.8459,-3.7904,-3.7312,-3.6662,-3.6724,-3.6693,-3.6569,-3.6569,-3.6538,-3.6507,-3.6507,-3.6507,-3.6507,-3.6507,-3.6507,-3.6569,-3.7184,-3.74,-3.7523,-4.3986,-4.3677,-4.351,-4.3758,-4.323,-4.2959,-4.3493,-4.2959,-4.2308,-4.1903,-4.0809,-3.9734,-3.8911,-3.8146,-3.7593,-3.7358,-3.6434,-3.5699,-3.5235,-3.5352,-3.5352,-3.5214,-3.5904,-3.6042,-3.5456,-3.5283,-3.4904,-3.4337,-3.4007,-3.3593,-3.3145,-3.2835,-3.2524,-3.2283,-3.211,-3.2145,-3.2283,-3.2283,-3.2283,-3.2283,-3.2283,-3.2628,-3.311,-3.2524,-3.3041,-3.413,-3.4303,-3.4717,-3.5283,-3.587,-3.6042,-3.6077,-3.6249,-3.6284,-3.6422,-3.7042,-3.7374,-3.7789,-3.9112,-3.956,-3.9871,-4.0722,-4.0767,-4.0593,-4.0645,-4.0607,-4.0558,-4.0485,-4.0436,-4.0412,-4.0412,-4.0412,-4.0387,-4.0229,-4.0204,-4.0129,-3.9901,-3.9876,-3.9825,-3.9722,-3.9722,-3.9722,-3.9722,-3.9722,-3.9506,-3.9028,-3.9001,-3.881,-3.8334,-3.8306,-3.8511,-3.9013,-3.9013,-3.9325,-3.9947,-3.9325,-3.9051,-3.9084,-3.8967,-3.8584,-3.794,-3.8456,-3.8159,-3.7208,-3.7208,-3.6938,-3.6507,-3.6507,-3.6507,-3.6507,-3.6507,-3.6507,-3.6507,-3.6661,-3.6722,-3.6876,-4.3986,-4.3844,-4.3742,-4.3955,-4.3644,-4.351,-4.3913,-4.3387,-4.2869,-4.2575,-4.1814,-4.0832,-3.9625,-3.9085,-3.8528,-3.7721,-3.7059,-3.6608,-3.638,-3.6361,-3.6322,-3.6283,-3.6669,-3.6529,-3.5811,-3.5406,-3.4638,-3.3524,-3.3524,-3.3317,-3.2904,-3.2524,-3.2352,-3.2317,-3.1972,-3.18,-3.18,-3.18,-3.18,-3.18,-3.18,-3.2248,-3.2869,-3.2455,-3.3041,-3.4165,-3.449,-3.5076,-3.5766,-3.618,-3.6559,-3.6801,-3.6422,-3.6559,-3.687,-3.6904,-3.7456,-3.818,-3.8974,-3.9698,-4.0353,-4.0791,-4.0894,-4.0871,-4.0799,-4.0762,-4.069,-4.0607,-4.0534,-4.051,-4.051,-4.051,-4.051,-4.051,-4.051,-4.0485,-4.0412,-4.0387,-4.0362,-4.0313,-4.0288,-4.0288,-4.0288,-4.0238,-4.0062,-3.9747,-3.967,-3.948,-3.9189,-3.9162,-3.9162,-3.9189,-3.9189,-3.9348,-3.967,-3.9382,-3.9361,-3.9698,-3.9442,-3.8991,-3.8339,-3.9408,-3.9137,-3.7825,-3.8206,-3.7968,-3.7356,-3.7356,-3.7356,-3.7356,-3.7356,-3.7356,-3.7326,-3.7028,-3.6938,-3.7123,-4.3986,-4.3986,-4.3986,-4.3986,-4.3986,-4.3986,-4.3986,-4.371,-4.3419,-4.315,-4.2704,-4.1869,-4.0311,-4.0004,-3.9354,-3.7948,-3.7823,-3.7754,-3.7632,-3.7632,-3.7596,-3.7524,-3.7542,-3.7184,-3.6416,-3.5881,-3.4783,-3.3076,-3.2898,-3.2791,-3.2791,-3.2113,-3.2145,-3.2697,-3.2076,-3.1869,-3.1972,-3.2065,-3.2115,-3.2198,-3.2272,-3.2703,-3.3283,-3.3145,-3.3662,-3.4545,-3.5028,-3.5663,-3.6284,-3.6284,-3.6835,-3.7374,-3.6697,-3.7042,-3.7581,-3.7042,-3.7801,-3.8801,-3.8939,-3.9928,-4.0894,-4.0894,-4.0894,-4.0894,-4.0894,-4.0799,-4.0704,-4.0704,-4.0631,-4.0583,-4.0583,-4.0583,-4.0583,-4.0583,-4.0583,-4.0558,-4.0534,-4.0534,-4.0534,-4.051,-4.051,-4.051,-4.051,-4.0387,-4.0337,-4.0337,-4.0238,-4.0188,-4.0188,-4.0163,-3.9901,-3.9375,-3.9382,-3.9348,-3.9348,-3.9348,-3.9618,-4.0113,-3.9836,-3.9331,-3.8678,-4.0013,-3.9826,-3.8479,-3.9227,-3.9072,-3.8306,-3.8306,-3.8306,-3.8306,-3.8306,-3.8306,-3.8222,-3.7738,-3.7533,-3.7748,-4.3986,-4.3986,-4.3986,-4.3986,-4.3986,-4.3986,-4.3986,-4.3939,-4.3648,-4.2943,-4.2193,-4.1385,-4.0459,-3.963,-3.8927,-3.8339,-3.8259,-3.8059,-3.7719,-3.7702,-3.7684,-3.7684,-3.7632,-3.7238,-3.6503,-3.6952,-3.6096,-3.3839,-3.2861,-3.2389,-3.2372,-3.1981,-3.1834,-3.1938,-3.1834,-3.2145,-3.275,-3.3139,-3.3468,-3.3805,-3.4152,-3.453,-3.48,-3.418,-3.48,-3.5939,-3.5387,-3.5663,-3.6284,-3.6284,-3.6835,-3.7478,-3.7374,-3.7858,-3.856,-3.9077,-3.9388,-3.9698,-4.0411,-4.0756,-4.0894,-4.0894,-4.0894,-4.0894,-4.0894,-4.0871,-4.0871,-4.0871,-4.0847,-4.0847,-4.0847,-4.0847,-4.0847,-4.0847,-4.0847,-4.0799,-4.0714,-4.0655,-4.0607,-4.051,-4.051,-4.051,-4.051,-4.0485,-4.0485,-4.0485,-4.0461,-4.0461,-4.0461,-4.0337,-4.0238,-4.0163,-4.0062,-3.9952,-3.9952,-3.9952,-4.0037,-4.0113,-4.0676,-4.0591,-3.9884,-4.0725,-4.0361,-3.9115,-3.9869,-3.9434,-3.8306,-3.8306,-3.8306,-3.8306,-3.8306,-3.8306,-3.8278,-3.8193,-3.8165,-3.8294,-4.3986,-4.3986,-4.3986,-4.3986,-4.3986,-4.3838,-4.3392,-4.3726,-4.354,-4.2277,-4.2203,-4.1794,-4.0531,-3.9611,-3.897,-3.8803,-3.8759,-3.8655,-3.8418,-3.8418,-3.8402,-3.8355,-3.8344,-3.8182,-3.7833,-3.7665,-3.7051,-3.6012,-3.5073,-3.4375,-3.3913,-3.3758,-3.3459,-3.3019,-3.3019,-3.2845,-3.2613,-3.3212,-3.358,-3.3819,-3.4459,-3.5183,-3.5817,-3.5273,-3.5734,-3.6545,-3.6008,-3.6008,-3.6284,-3.6284,-3.7111,-3.8043,-3.765,-3.8306,-3.9181,-3.9112,-3.9388,-3.9767,-4.0112,-4.0584,-4.0894,-4.0894,-4.0894,-4.0894,-4.0894,-4.124,-4.1412,-4.0998,-4.124,-4.1412,-4.0998,-4.0894,-4.0894,-4.0894,-4.0894,-4.0871,-4.0799,-4.0799,-4.0948,-4.1312,-4.1346,-4.1346,-4.1346,-4.1685,-4.1704,-4.1258,-4.115,-4.1125,-4.1125,-4.0666,-4.0412,-4.0412,-4.0362,-4.0337,-4.0337,-4.0337,-4.0288,-4.0213,-4.096,-4.0875,-4.0146,-4.1271,-4.104,-3.9729,-4.0467,-4.0234,-3.9322,-3.9322,-3.9322,-3.9322,-3.9322,-3.9109,-3.8865,-3.9189,-3.9109,-3.8964]},{"header":{"parameterUnit":"m.s-1","parameterCategory":1,"la1":30.6,"la2":28.766,"lo1":-90.7593,"lo2":-88.6598,"dy":0.0162,"dx":0.0183,"nx":116,"ny":114,"refTime":"2023-06-11T06:00:00:Z","depth":0,"parameterNumber":3,"parameterNumberName":"V-component_of_WINDS"},"data":[0.0,0.0,0.0,0.0,0.0,0.0,0.0,0.0,0.0,0.0,0.0,0.0,0.0,0.0,0.0,0.0,0.0,0.0,0.0,0.0,0.0,0.0,0.0,0.0,0.0,0.0,0.0,0.0,0.0,0.0,0.0,0.0,0.0,0.0,0.0,0.0,0.0,0.0,0.0,0.0,0.0,0.0,0.0,0.0,0.0,0.0,0.0,0.0,0.0,0.0,0.0,0.0,0.0,0.0,0.0,0.0,0.0,0.0,0.0,0.0,0.0,0.0,0.0,0.0,0.0,0.0,0.0,0.0,0.0,0.0,0.0,0.0,0.0,0.0,0.0,0.0,0.0,0.0,0.0,0.0,0.0,0.0,0.0,0.0,0.0,0.0,0.0,0.0,0.0,0.0,0.0,0.0,0.0,0.0,0.0,0.0,0.0,0.0,0.0,0.0,0.0,0.0,0.0,0.0,0.0,0.0,0.0,0.0,0.0,0.0,0.0,0.0,0.0,0.0,0.0,0.0,0.0,0.0,0.0,0.0,0.0,0.0,0.0,0.0,0.0,0.0,0.0,0.0,0.0,0.0,0.0,0.0,0.0,0.0,0.0,0.0,0.0,0.0,0.0,0.0,0.0,0.0,0.0,0.0,0.0,0.0,0.0,0.0,0.0,0.0,0.0,0.0,0.0,0.0,0.0,0.0,0.0,0.0,0.0,0.0,0.0,0.0,0.0,0.0,0.0,0.0,0.0,0.0,0.0,0.0,0.0,0.0,0.0,0.0,0.0,0.0,0.0,0.0,0.0,0.0,0.0,0.0,0.0,0.0,0.0,0.0,0.0,0.0,0.0,0.0,0.0,0.0,0.0,0.0,0.0,0.0,0.0,0.0,0.0,0.0,0.0,0.0,0.0,0.0,0.0,0.0,0.0,0.0,0.0,0.0,0.0,0.0,0.0,0.0,0.0,0.0,0.0,0.0,0.0,0.0,0.0,0.0,0.0,0.0,0.0,0.0,0.0,0.0,0.0,0.0,0.0,0.0,0.0,0.0,0.0,0.0,0.0,0.0,0.0,0.0,0.0,0.0,0.0,0.0,0.0,0.0,0.0,0.0,0.0,0.0,0.0,0.0,0.0,0.0,0.0,0.0,0.0,0.0,0.0,0.0,0.0,0.0,0.0,0.0,0.0,0.0,0.0,0.0,0.0,0.0,0.0,0.0,0.0,0.0,0.0,0.0,0.0,0.0,0.0,0.0,0.0,0.0,0.0,0.0,0.0,0.0,0.0,0.0,0.0,0.0,0.0,0.0,0.0,0.0,0.0,0.0,0.0,0.0,0.0,0.0,0.0,0.0,0.0,0.0,0.0,0.0,0.0,0.0,0.0,0.0,0.0,0.0,0.0,0.0,0.0,0.0,0.0,0.0,0.0,0.0,0.0,0.0,0.0,0.0,0.0,0.0,0.0,0.0,0.0,0.0,0.0,0.0,0.0,0.0,0.0,0.0,0.0,0.0,0.0,0.0,0.0,0.0,0.0,0.0,0.0,0.0,0.0,0.0,0.0,0.0,0.0,0.0,0.0,0.0,0.0,0.0,0.0,0.0,0.0,0.0,0.0,0.0,0.0,0.0,0.0,0.0,0.0,0.0,0.0,0.0,0.0,0.0,0.0,0.0,0.0,0.0,0.0,0.0,0.0,0.0,0.0,0.0,0.0,0.0,0.0,0.0,0.0,0.0,0.0,0.0,0.0,0.0,0.0,0.0,0.0,0.0,0.0,0.0,0.0,0.0,0.0,0.0,0.0,0.0,0.0,0.0,0.0,0.0,0.0,0.0,0.0,0.0,0.0,0.0,0.0,0.0,0.0,0.0,0.0,0.0,0.0,0.0,0.0,0.0,0.0,0.0,0.0,0.0,0.0,0.0,0.0,0.0,0.0,0.0,0.0,0.0,0.0,0.0,0.0,0.0,0.0,0.0,0.0,0.0,0.0,0.0,0.0,0.0,0.0,0.0,0.0,0.0,0.0,0.0,0.0,0.0,0.0,0.0,0.0,0.0,0.0,0.0,0.0,0.0,0.0,0.0,0.0,0.0,0.0,0.0,0.0,0.0,0.0,0.0,0.0,0.0,0.0,0.0,0.0,0.0,0.0,0.0,0.0,0.0,0.0,0.0,0.0,0.0,0.0,0.0,0.0,0.0,0.0,0.0,0.0,0.0,0.0,0.0,0.0,0.0,0.0,0.0,0.0,0.0,0.0,0.0,0.0,0.0,0.0,0.0,0.0,0.0,0.0,0.0,0.0,0.0,0.0,0.0,0.0,0.0,0.0,0.0,0.0,0.0,0.0,0.0,0.0,0.0,0.0,0.0,0.0,0.0,0.0,0.0,0.0,0.0,0.0,0.0,0.0,0.0,0.0,0.0,0.0,0.0,0.0,0.0,0.0,0.0,0.0,0.0,0.0,0.0,0.0,0.0,0.0,0.0,0.0,0.0,0.0,0.0,0.0,0.0,0.0,0.0,0.0,0.0,0.0,0.0,0.0,0.0,0.0,0.0,0.0,0.0,0.0,0.0,0.0,0.0,0.0,0.0,0.0,0.0,0.0,0.0,0.0,0.0,0.0,0.0,0.0,0.0,0.0,0.0,0.0,0.0,0.0,0.0,0.0,0.0,0.0,0.0,0.0,0.0,0.0,0.0,0.0,0.0,0.0,0.0,0.0,0.0,0.0,0.0,0.0,0.0,0.0,0.0,0.0,0.0,0.0,0.0,0.0,0.0,0.0,0.0,0.0,0.0,0.0,0.0,0.0,0.0,0.0,0.0,0.0,0.0,0.0,0.0,0.0,0.0,0.0,0.0,0.0,0.0,0.0,0.0,0.0,0.0,0.0,0.0,0.0,0.0,0.0,0.0,0.0,0.0,0.0,0.0,0.0,0.0,0.0,0.0,0.0,0.0,0.0,0.0,0.0,0.0,0.0,0.0,0.0,0.0,0.0,0.0,0.0,0.0,0.0,0.0,0.0,0.0,0.0,0.0,0.0,0.0,0.0,0.0,0.0,0.0,0.0,0.0,0.0,0.0,0.0,0.0,0.0,0.0,0.0,0.0,0.0,0.0,0.0,0.0,0.0,0.0,0.0,0.0,0.0,0.0,0.0,0.0,0.0,0.0,0.0,0.0,0.0,0.0,0.0,0.0,0.0,0.0,0.0,0.0,0.0,0.0,0.0,0.0,0.0,0.0,0.0,0.0,0.0,0.0,0.0,0.0,0.0,0.0,0.0,0.0,0.0,0.0,0.0,0.0,0.0,0.0,0.0,0.0,0.0,0.0,0.0,0.0,0.0,0.0,0.0,0.0,0.0,0.0,0.0,0.0,0.0,0.0,0.0,0.0,0.0,0.0,0.0,0.0,0.0,0.0,0.0,0.0,0.0,0.0,0.0,0.0,0.0,0.0,0.0,0.0,0.0,0.0,0.0,0.0,0.0,0.0,0.0,0.0,0.0,0.0,0.0,0.0,0.0,0.0,0.0,0.0,0.0,0.0,0.0,0.0,0.0,0.0,0.0,0.0,0.0,0.0,0.0,0.0,0.0,0.0,0.0,0.0,0.0,0.0,0.0,0.0,0.0,0.0,0.0,0.0,0.0,0.0,0.0,0.0,0.0,0.0,0.0,0.0,0.0,0.0,0.0,0.0,0.0,0.0,0.0,0.0,0.0,0.0,0.0,0.0,0.0,0.0,0.0,0.0,0.0,0.0,0.0,0.0,0.0,0.0,0.0,0.0,0.0,0.0,0.0,0.0,0.0,0.0,0.0,0.0,0.0,0.0,0.0,0.0,0.0,0.0,0.0,0.0,0.0,0.0,0.0,0.0,0.0,0.0,0.0,0.0,0.0,0.0,0.0,0.0,0.0,0.0,0.0,0.0,0.0,0.0,0.0,0.0,0.0,0.0,0.0,0.0,0.0,0.0,0.0,0.0,0.0,0.0,0.0,0.0,0.0,0.0,0.0,0.0,0.0,0.0,0.0,0.0,0.0,0.0,0.0,0.0,0.0,0.0,0.0,0.0,0.0,0.0,0.0,0.0,0.0,0.0,0.0,0.0,0.0,0.0,0.0,0.0,0.0,0.0,0.0,0.0,0.0,0.0,0.0,0.0,0.0,0.0,0.0,0.0,0.0,0.0,0.0,0.0,0.0,0.0,0.0,0.0,0.0,0.0,0.0,0.0,0.0,0.0,0.0,0.0,0.0,0.0,0.0,0.0,0.0,0.0,0.0,0.0,0.0,0.0,0.0,0.0,0.0,0.0,0.0,0.0,0.0,0.0,0.0,0.0,0.0,0.0,0.0,0.0,0.0,0.0,0.0,0.0,0.0,0.0,0.0,0.0,0.0,0.0,0.0,0.0,0.0,0.0,0.0,0.0,0.0,0.0,0.0,0.0,0.0,0.0,0.0,0.0,0.0,0.0,0.0,0.0,0.0,0.0,0.0,0.0,0.0,0.0,0.0,0.0,0.0,0.0,0.0,0.0,0.0,0.0,0.0,0.0,0.0,0.0,0.0,0.0,0.0,0.0,0.0,0.0,0.0,0.0,0.0,0.0,0.0,0.0,0.0,0.0,0.0,0.0,0.0,0.0,0.0,0.0,0.0,0.0,0.0,0.0,0.0,0.0,0.0,0.0,0.0,0.0,0.0,0.0,0.0,0.0,0.0,0.0,0.0,0.0,0.0,0.0,0.0,0.0,0.0,0.0,0.0,0.0,0.0,0.0,0.0,0.0,0.0,0.0,0.0,0.0,0.0,0.0,0.0,0.0,0.0,0.0,0.0,0.0,0.0,0.0,0.0,0.0,0.0,0.0,0.0,0.0,0.0,0.0,0.0,0.0,0.0,0.0,0.0,0.0,0.0,0.0,0.0,0.0,0.0,0.0,0.0,0.0,0.0,0.0,0.0,0.0,0.0,0.0,0.0,0.0,0.0,0.0,0.0,0.0,0.0,0.0,0.0,0.0,0.0,0.0,0.0,0.0,0.0,0.0,0.0,0.0,0.0,0.0,0.0,0.0,0.0,0.0,0.0,0.0,0.0,0.0,0.0,0.0,0.0,0.0,0.0,0.0,0.0,0.0,0.0,0.0,0.0,0.0,0.0,0.0,0.0,0.0,0.0,0.0,0.0,0.0,0.0,0.0,0.0,0.0,0.0,0.0,0.0,0.0,0.0,0.0,0.0,0.0,0.0,0.0,0.0,0.0,0.0,0.0,0.0,0.0,0.0,0.0,0.0,0.0,0.0,0.0,0.0,0.0,0.0,0.0,0.0,0.0,0.0,0.0,0.0,0.0,0.0,0.0,0.0,0.0,0.0,0.0,0.0,0.0,0.0,0.0,0.0,0.0,0.0,0.0,0.0,0.0,0.0,0.0,0.0,0.0,0.0,0.0,0.0,0.0,0.0,0.0,0.0,0.0,0.0,0.0,0.0,0.0,0.0,0.0,0.0,0.0,0.0,0.0,0.0,0.0,0.0,0.0,0.0,0.0,0.0,0.0,0.0,0.0,0.0,0.0,0.0,0.0,0.0,0.0,0.0,0.0,0.0,0.0,0.0,0.0,0.0,0.0,0.0,0.0,0.0,0.0,0.0,0.0,0.0,0.0,0.0,0.0,0.0,0.0,0.0,0.0,0.0,0.0,0.0,0.0,0.0,0.0,0.0,0.0,0.0,0.0,0.0,0.0,0.0,0.0,0.0,0.0,0.0,0.0,0.0,0.0,0.0,0.0,0.0,0.0,0.0,0.0,0.0,0.0,0.0,0.0,0.0,0.0,0.0,0.0,0.0,0.0,0.0,0.0,0.0,0.0,0.0,0.0,0.0,0.0,0.0,0.0,0.0,0.0,0.0,0.0,0.0,0.0,0.0,0.0,0.0,0.0,0.0,0.0,0.0,0.0,0.0,0.0,0.0,0.0,0.0,0.0,0.0,0.0,0.0,0.0,0.0,0.0,0.0,0.0,0.0,0.0,0.0,0.0,0.0,0.0,0.0,0.0,0.0,0.0,0.0,0.0,0.0,0.0,0.0,0.0,0.0,0.0,0.0,0.0,0.0,0.0,0.0,0.0,0.0,0.0,0.0,0.0,0.0,0.0,0.0,0.0,-2.2722,0.0,0.0,0.0,0.0,0.0,0.0,0.0,0.0,0.0,0.0,0.0,0.0,0.0,0.0,0.0,0.0,0.0,0.0,0.0,0.0,0.0,0.0,0.0,0.0,0.0,0.0,0.0,0.0,0.0,0.0,0.0,0.0,0.0,0.0,0.0,0.0,0.0,0.0,0.0,0.0,0.0,0.0,0.0,0.0,0.0,0.0,0.0,0.0,0.0,0.0,0.0,0.0,0.0,0.0,0.0,0.0,0.0,0.0,0.0,0.0,0.0,0.0,0.0,0.0,0.0,0.0,0.0,0.0,0.0,0.0,0.0,0.0,0.0,0.0,0.0,0.0,0.0,0.0,0.0,0.0,0.0,0.0,0.0,0.0,0.0,0.0,0.0,0.0,0.0,0.0,0.0,0.0,0.0,0.0,0.0,0.0,0.0,0.0,0.0,0.0,0.0,0.0,0.0,0.0,0.0,0.0,0.0,0.0,0.0,0.0,0.0,0.0,0.0,0.0,0.0,0.0,-2.4627,0.0,0.0,0.0,0.0,0.0,0.0,0.0,0.0,0.0,0.0,0.0,0.0,0.0,0.0,0.0,0.0,0.0,0.0,0.0,0.0,0.0,0.0,0.0,0.0,0.0,0.0,0.0,0.0,0.0,0.0,0.0,0.0,0.0,0.0,0.0,0.0,0.0,0.0,0.0,0.0,0.0,0.0,0.0,0.0,0.0,0.0,0.0,0.0,0.0,0.0,0.0,0.0,0.0,0.0,0.0,0.0,0.0,0.0,0.0,0.0,0.0,0.0,0.0,0.0,0.0,0.0,0.0,0.0,0.0,0.0,0.0,0.0,0.0,0.0,0.0,0.0,0.0,0.0,0.0,0.0,0.0,0.0,0.0,0.0,0.0,0.0,0.0,0.0,0.0,0.0,0.0,0.0,0.0,0.0,0.0,0.0,0.0,0.0,0.0,0.0,0.0,0.0,0.0,0.0,0.0,0.0,0.0,0.0,-3.2223,-3.2739,-3.3613,-3.3613,-3.3352,-3.2711,-3.01,-2.8116,-2.6681,-2.6576,0.0,0.0,0.0,0.0,0.0,0.0,0.0,0.0,0.0,0.0,0.0,0.0,0.0,0.0,0.0,0.0,0.0,0.0,0.0,0.0,0.0,0.0,0.0,0.0,0.0,0.0,0.0,0.0,0.0,0.0,0.0,0.0,0.0,0.0,0.0,0.0,0.0,0.0,-1.8676,-1.9447,-1.9521,-1.9022,0.0,0.0,0.0,0.0,0.0,0.0,0.0,0.0,0.0,0.0,0.0,0.0,0.0,0.0,0.0,0.0,0.0,0.0,0.0,0.0,0.0,0.0,0.0,0.0,0.0,0.0,0.0,0.0,0.0,0.0,0.0,0.0,0.0,0.0,0.0,0.0,0.0,0.0,0.0,0.0,0.0,0.0,0.0,0.0,-1.8157,-1.8827,0.0,0.0,0.0,0.0,0.0,0.0,0.0,0.0,0.0,0.0,0.0,0.0,0.0,-3.0626,-3.3375,-3.3996,-3.4949,-3.6227,-3.6739,-3.7097,-3.722,-3.722,-3.7168,-3.7037,-3.56,0.0,-3.0268,-2.9735,0.0,0.0,0.0,0.0,0.0,0.0,0.0,0.0,0.0,0.0,0.0,0.0,0.0,0.0,0.0,0.0,0.0,0.0,0.0,0.0,0.0,0.0,0.0,0.0,0.0,0.0,0.0,0.0,0.0,0.0,0.0,0.0,0.0,0.0,0.0,0.0,-1.8912,-2.0106,-2.1307,-2.1747,-2.2143,-2.2408,-2.0997,-1.9296,-1.7423,-1.7084,0.0,0.0,0.0,0.0,0.0,0.0,0.0,0.0,0.0,0.0,0.0,0.0,0.0,0.0,0.0,0.0,0.0,0.0,0.0,0.0,0.0,0.0,0.0,0.0,0.0,0.0,0.0,0.0,0.0,0.0,0.0,0.0,0.0,0.0,0.0,0.0,0.0,0.0,0.0,-1.9195,-2.0549,-2.0235,-2.1963,-2.2669,0.0,0.0,0.0,0.0,0.0,0.0,0.0,0.0,0.0,-3.2161,-3.2736,-3.4241,-3.6802,-3.7717,-3.8919,-4.0383,-4.0984,-4.1428,-4.1768,-4.1742,-4.1559,-4.1219,-4.0357,-3.8423,-3.5626,-3.3117,-3.1339,-3.0137,0.0,0.0,0.0,0.0,-2.7471,-2.7758,0.0,0.0,0.0,0.0,0.0,0.0,0.0,0.0,0.0,0.0,0.0,0.0,0.0,0.0,0.0,-1.8905,0.0,0.0,0.0,0.0,0.0,0.0,0.0,0.0,0.0,0.0,0.0,0.0,-2.1688,-2.2782,-2.4309,-2.4381,-2.4772,-2.5305,-2.471,-2.2423,-1.9028,-1.8437,-1.7496,0.0,0.0,0.0,0.0,0.0,0.0,0.0,0.0,0.0,0.0,0.0,0.0,0.0,0.0,0.0,0.0,0.0,0.0,0.0,0.0,0.0,0.0,0.0,0.0,0.0,0.0,0.0,0.0,0.0,0.0,0.0,0.0,0.0,0.0,0.0,0.0,0.0,0.0,-2.0848,-2.2361,-2.1507,-2.3895,-2.5063,0.0,0.0,0.0,0.0,0.0,0.0,-3.1536,-3.2581,-3.4173,-3.6541,-3.675,-3.8004,-4.0461,-4.1167,-4.2265,-4.3702,-4.4121,-4.4643,-4.5218,-4.5192,-4.4931,-4.4487,-4.3781,-4.25,-4.0618,-3.6567,-3.3875,-3.2254,-3.1679,-3.0623,-2.95,-2.9666,-3.0006,-3.0409,0.0,0.0,0.0,0.0,0.0,0.0,0.0,0.0,0.0,0.0,0.0,0.0,0.0,0.0,-2.0079,-2.2596,-2.1559,-2.0692,0.0,0.0,0.0,0.0,0.0,0.0,0.0,0.0,0.0,-2.4246,-2.4742,-2.5944,-2.7838,-2.7838,-2.7861,-2.7782,-2.6795,-2.4636,-2.1642,-2.0656,-1.9372,-1.7928,0.0,0.0,0.0,0.0,0.0,0.0,0.0,0.0,0.0,0.0,0.0,0.0,0.0,0.0,0.0,0.0,0.0,0.0,0.0,0.0,0.0,0.0,0.0,0.0,0.0,0.0,0.0,0.0,0.0,0.0,0.0,0.0,0.0,0.0,0.0,0.0,0.0,0.0,0.0,-2.2012,-2.6409,0.0,0.0,0.0,0.0,-2.9767,-3.1458,-3.3416,-3.5678,-3.641,-3.8527,-4.2474,-4.1559,-4.2396,-4.5245,-4.48,-4.4879,-4.5506,-4.5532,-4.5846,-4.6395,-4.6395,-4.6369,-4.629,-4.5166,-4.4617,-4.4199,-4.0122,-3.7429,-3.5783,-3.526,-3.4972,-3.4763,-3.3718,-3.3352,-3.33,0.0,0.0,0.0,0.0,0.0,0.0,0.0,0.0,0.0,0.0,0.0,0.0,0.0,-2.1634,-2.3084,-2.5101,-2.5103,-2.4372,-2.2924,0.0,0.0,0.0,0.0,0.0,0.0,0.0,-2.4041,-2.6827,-2.8062,-2.9131,-2.998,-3.0252,-3.0067,-2.9574,-2.9221,-2.7679,-2.515,-2.2868,-2.0986,-1.9487,-1.8506,-1.7404,0.0,0.0,0.0,0.0,0.0,0.0,0.0,0.0,0.0,0.0,0.0,0.0,0.0,0.0,0.0,0.0,0.0,0.0,0.0,0.0,0.0,0.0,0.0,0.0,0.0,0.0,0.0,0.0,0.0,0.0,0.0,0.0,0.0,0.0,0.0,0.0,0.0,-2.6657,-3.0918,0.0,-3.1043,-3.2246,-3.3227,-3.3416,-3.5757,-3.7821,-3.9364,-4.0697,-4.2422,-4.4563,-4.467,-4.548,-4.7257,-4.7466,-4.7649,-4.7858,-4.7858,-4.7754,-4.7571,-4.7571,-4.7362,-4.6996,-4.6604,-4.5794,-4.4643,-4.3206,-4.0932,-3.8266,-3.7325,-3.6488,-3.5809,-3.5783,-3.5783,-3.5757,0.0,0.0,0.0,0.0,0.0,0.0,0.0,0.0,0.0,0.0,0.0,-1.9939,-2.2368,-2.4104,-2.5862,-2.7695,-2.7555,-2.644,-2.4406,0.0,0.0,0.0,0.0,0.0,0.0,0.0,-2.6645,-2.9341,-3.0471,-3.1281,-3.1689,-3.1785,-3.1583,-3.1072,-3.0687,-2.9702,-2.8138,-2.5578,-2.3397,-2.156,-2.0205,-1.9057,-1.7978,0.0,0.0,0.0,0.0,0.0,0.0,0.0,0.0,0.0,0.0,0.0,0.0,0.0,0.0,0.0,0.0,0.0,0.0,0.0,0.0,0.0,0.0,0.0,0.0,0.0,0.0,0.0,0.0,0.0,0.0,0.0,0.0,0.0,0.0,0.0,-3.0025,-3.1008,-3.4972,-3.7224,-3.5987,-3.7098,-3.7978,-3.8187,-4.0514,-4.2265,-4.3023,-4.433,-4.5663,-4.7022,-4.7074,-4.7702,-4.9035,-4.9244,-4.9348,-4.9348,-4.9165,-4.8878,-4.8486,-4.8277,-4.7989,-4.7597,-4.7357,-4.6578,-4.5297,-4.514,-4.3467,-4.0932,-3.9782,-3.8841,-3.8161,-3.8161,-3.8161,-3.8109,0.0,0.0,0.0,0.0,0.0,0.0,0.0,0.0,0.0,0.0,-1.7945,-2.1652,-2.4525,-2.6339,-2.8222,-3.0457,-2.8574,-2.6565,-2.4926,-2.2698,0.0,0.0,0.0,0.0,0.0,0.0,0.0,0.0,-3.1955,-3.2379,-3.3093,-3.2636,-3.2394,-3.2302,-3.1139,-3.0553,-3.0438,-2.8788,-2.6674,-2.4177,-2.2144,-2.1293,-2.0925,0.0,0.0,0.0,0.0,0.0,0.0,0.0,0.0,0.0,0.0,0.0,0.0,0.0,0.0,0.0,0.0,0.0,0.0,0.0,0.0,0.0,0.0,0.0,0.0,0.0,0.0,0.0,0.0,0.0,0.0,0.0,0.0,0.0,-2.6342,-3.0562,-3.3865,-3.4791,-3.8554,-4.0927,-4.0598,-4.2134,-4.3337,-4.3885,-4.5558,-4.6552,-4.6525,-4.71,-4.8198,-4.9845,-4.8826,-4.9087,-5.076,-5.0237,-4.9923,-4.9897,-4.9401,-4.9113,-4.9061,-4.8486,-4.8224,-4.8146,-4.7623,-4.7048,-4.6421,-4.5872,-4.4957,-4.3781,-4.2709,-4.2238,-4.2081,-4.088,-4.0435,-4.0226,0.0,0.0,0.0,0.0,0.0,0.0,0.0,0.0,0.0,0.0,-1.9082,-2.2719,-2.5134,-2.7243,-2.9202,-3.1009,-2.846,-2.6348,-2.5435,0.0,0.0,0.0,0.0,0.0,0.0,0.0,0.0,0.0,0.0,-3.4827,-3.5018,-3.5061,-3.4568,-3.3683,-3.3358,-3.2406,-3.1056,-3.0596,-2.9476,-2.7805,-2.5004,-2.3236,-2.2075,0.0,0.0,0.0,0.0,0.0,0.0,0.0,0.0,0.0,0.0,0.0,0.0,0.0,0.0,0.0,0.0,0.0,0.0,0.0,0.0,0.0,0.0,0.0,0.0,0.0,0.0,0.0,0.0,0.0,0.0,0.0,0.0,-3.1887,-3.1975,-3.4775,-3.7913,-4.0824,-4.3429,-4.4921,-4.4853,-4.5245,-4.5428,-4.5166,-4.7153,-4.8172,-4.7728,-4.9061,-4.9845,-4.9897,-5.0002,-5.0315,-5.0786,-5.1021,-5.0943,-5.0551,-5.0394,-4.9897,-4.9087,-4.9322,-4.8956,-4.8198,-4.8486,-4.778,-4.6473,-4.6316,-4.5558,-4.4408,-4.3676,-4.2944,-4.2185,-4.1794,-4.0906,-3.973,0.0,0.0,0.0,0.0,0.0,0.0,0.0,0.0,0.0,0.0,-1.9432,-2.3075,-2.5059,-2.7433,-2.9189,-2.9955,-2.7656,-2.5493,-2.3979,0.0,0.0,0.0,0.0,0.0,0.0,0.0,0.0,0.0,0.0,0.0,-3.5797,-3.6035,-3.5695,-3.4966,-3.4729,-3.3978,-3.2836,-3.2232,-3.1567,-3.0714,-2.8391,-2.645,-2.4719,-2.2731,-2.1743,-2.1192,-1.9592,-1.9569,-2.0097,-1.846,0.0,0.0,0.0,0.0,0.0,0.0,0.0,0.0,0.0,0.0,0.0,0.0,0.0,0.0,0.0,0.0,0.0,0.0,0.0,0.0,0.0,0.0,0.0,0.0,-3.3535,-3.659,-3.8707,-4.0096,-4.1957,-4.4875,-4.6612,-4.7649,-4.7885,-4.8146,-4.8146,-4.7806,-4.9479,-5.0054,-4.8956,-5.0315,-5.0864,-5.0289,-5.0603,-5.089,-5.1126,-5.1439,-5.1439,-5.1126,-5.089,-5.0446,-4.9793,-4.9871,-4.9401,-4.859,-4.893,-4.8224,-4.6813,-4.6578,-4.5924,0.0,0.0,0.0,0.0,0.0,-4.101,-3.986,0.0,0.0,0.0,0.0,0.0,0.0,0.0,0.0,0.0,0.0,0.0,-2.2673,-2.4324,-2.6857,-2.8311,-2.8047,-2.6314,-2.4155,0.0,0.0,0.0,0.0,0.0,0.0,0.0,0.0,0.0,0.0,0.0,0.0,0.0,0.0,-3.6392,-3.6261,-3.5685,-3.5347,-3.5091,-3.3679,-3.3076,-3.2959,-3.1692,-2.9963,-2.7897,-2.5532,-2.482,-2.4774,-2.2466,-2.173,-2.1707,-2.0572,0.0,0.0,0.0,0.0,0.0,0.0,0.0,0.0,0.0,0.0,0.0,0.0,0.0,0.0,0.0,0.0,0.0,0.0,0.0,0.0,0.0,0.0,0.0,0.0,-3.6619,-4.0305,-4.5218,-4.5584,-4.595,-4.7545,-4.8643,-4.9453,-4.9949,-5.0472,-5.0786,-5.0786,-5.1858,-5.1779,-5.0159,0.0,0.0,0.0,0.0,-5.1256,-5.1596,-5.1675,-5.1675,-5.1596,-5.1126,-5.0864,-5.076,-5.0289,-4.974,-4.9165,-4.9165,-4.8512,-4.7388,-4.6734,-4.6055,-4.5271,-4.365,-4.3023,-4.2892,-4.1742,-4.0932,-4.0331,0.0,0.0,0.0,0.0,0.0,0.0,0.0,0.0,0.0,-1.5278,-1.8284,-2.0941,-2.2623,-2.4449,-2.6113,-2.7344,-2.4682,-2.2523,0.0,0.0,0.0,0.0,0.0,0.0,0.0,0.0,0.0,0.0,0.0,0.0,0.0,0.0,0.0,-3.756,-3.7423,-3.6773,-3.5765,-3.4752,-3.4292,-3.4076,-3.2737,-3.0996,-2.9068,-2.7736,-2.6835,-2.5991,-2.4659,-2.5004,-2.5784,-2.3948,-2.381,-2.4016,-2.1848,0.0,0.0,0.0,0.0,0.0,0.0,0.0,0.0,0.0,0.0,0.0,0.0,0.0,0.0,0.0,0.0,0.0,0.0,0.0,0.0,-3.6619,-4.0252,-4.3885,-4.7231,-4.8381,-4.9191,-5.0028,-5.0315,-5.0498,-5.0603,-5.0707,-5.0786,-5.0786,-5.1858,-5.2145,-5.1309,-5.2406,-5.2563,-5.1465,-5.238,-5.2485,-5.1596,-5.2067,-5.2067,-5.1596,0.0,0.0,-5.0812,-5.1126,-5.0707,-4.974,-4.974,-4.9087,-4.7937,-4.6917,-4.5584,-4.4121,-4.3337,-4.3023,-4.2892,-4.1742,-4.0932,-4.0331,0.0,0.0,0.0,0.0,0.0,0.0,0.0,0.0,0.0,0.0,-1.736,-1.9333,-2.0512,-2.2146,-2.315,-2.315,-2.1644,0.0,0.0,0.0,0.0,0.0,0.0,0.0,0.0,0.0,0.0,0.0,0.0,0.0,0.0,0.0,0.0,-3.8762,-3.8762,-3.8392,-3.7779,-3.6902,-3.6283,-3.5767,-3.4686,-3.311,-3.1249,-2.9986,-2.9022,-2.8241,-2.7483,-2.7529,-2.7759,-2.6519,-2.6083,-2.583,-2.4292,-2.2432,-2.0595,0.0,0.0,0.0,0.0,0.0,0.0,0.0,0.0,0.0,0.0,0.0,0.0,0.0,0.0,-3.0372,-3.1235,0.0,-3.7665,-3.9703,-4.318,-4.6316,-4.8355,-4.9845,-5.076,-5.0786,-5.1021,-5.1073,-5.0812,-5.1021,-5.1204,-5.1204,-5.2276,-5.2694,-5.2067,-5.2903,-5.2981,-5.2067,-5.2642,-5.2511,-5.1596,-5.2197,-5.2197,-5.1596,-5.1596,-5.1465,-5.1204,-5.1204,-5.0707,-4.9871,-4.961,-4.8982,-4.8094,-4.6944,-4.5611,-4.4225,-4.3363,-4.284,-4.25,-4.1638,-4.1115,-4.0749,0.0,0.0,0.0,0.0,0.0,0.0,0.0,0.0,0.0,0.0,0.0,-1.7613,-1.8306,-1.966,-1.9987,0.0,0.0,0.0,0.0,0.0,0.0,0.0,0.0,0.0,0.0,0.0,0.0,0.0,0.0,0.0,0.0,0.0,0.0,0.0,-3.9685,-3.9707,-3.9707,-3.8879,-3.824,-3.769,-3.6606,-3.5149,-3.3519,-3.1894,-3.0905,-3.0308,-2.9825,-2.9045,-2.8241,-2.8149,-2.7433,-2.6467,-2.6221,-2.4889,-2.3156,-2.1583,-2.0527,0.0,0.0,0.0,0.0,0.0,0.0,0.0,0.0,0.0,-2.8445,-3.0608,-3.2567,-3.4199,-3.5495,-3.8501,-4.1246,-4.2605,-4.5558,-4.8015,-4.8956,-5.0342,-5.11,-5.0655,-5.1309,-5.1518,-5.0864,-5.1387,-5.1831,-5.1936,-5.2851,-5.3243,-5.2851,-5.3191,-5.3112,-5.2511,-5.2616,-5.2328,-5.1596,-5.2197,-5.2197,-5.1596,-5.1596,-5.1596,-5.157,-5.1047,-5.0577,-5.0185,-4.9531,-4.8721,-4.778,-4.6865,-4.5715,-4.446,-4.3415,-4.2657,-4.2159,-4.1533,-4.1324,-4.1167,0.0,0.0,0.0,0.0,0.0,0.0,0.0,0.0,0.0,0.0,0.0,0.0,0.0,0.0,0.0,0.0,0.0,0.0,0.0,0.0,0.0,0.0,0.0,0.0,0.0,0.0,0.0,0.0,0.0,0.0,0.0,0.0,0.0,0.0,0.0,-4.0086,-4.0282,-3.9468,-3.9373,-3.9574,-3.7536,-3.605,-3.4904,-3.3012,-3.1731,-3.0859,-3.0331,-2.8654,-2.695,-2.8195,-2.7667,-2.6651,-2.7461,-2.6996,-2.5777,-2.4223,0.0,-2.0297,-2.0182,-2.0274,-2.0756,-2.219,-2.3685,-2.6015,0.0,0.0,-3.4882,-3.7036,-3.9395,-4.0906,-4.0592,-4.2971,-4.5009,-4.5218,-4.7283,-4.893,-4.9061,-4.9662,-5.0054,-5.0002,-5.1413,-5.1962,-5.089,-5.1753,-5.2616,-5.3164,-5.3321,-5.3583,-5.4001,-5.3609,-5.3112,-5.2511,-5.3008,-5.2746,-5.1596,-5.2197,-5.2197,-5.1596,-5.1596,-5.1596,-5.157,-5.1047,-5.1021,-5.1335,-5.0263,-4.8616,-4.6656,-4.6525,-4.548,-4.3912,-4.3258,-4.2657,-4.2159,-4.1533,-4.1324,-4.1219,0.0,0.0,0.0,0.0,0.0,0.0,0.0,0.0,0.0,0.0,0.0,0.0,0.0,0.0,0.0,0.0,0.0,0.0,0.0,0.0,0.0,0.0,0.0,0.0,0.0,0.0,0.0,0.0,0.0,0.0,0.0,0.0,0.0,0.0,0.0,0.0,-4.0683,-4.0308,-4.0159,-4.0006,-3.9088,-3.7782,-3.623,-3.4823,-3.2981,-3.0988,-2.912,-2.7598,0.0,0.0,-2.629,-2.6152,-2.6904,-2.6237,-2.4958,-2.4039,-2.28,0.0,-2.28,-2.3029,0.0,0.0,-2.7405,-2.9944,-3.3579,-3.5951,-3.813,-4.0616,-4.2476,-4.3702,-4.3807,-4.5294,-4.6734,0.0,-4.8224,-4.9087,-4.9087,-4.927,-4.893,-4.7571,-4.8643,-4.9688,-5.0211,-5.042,-5.076,-5.1309,-5.1962,-5.2589,-5.3191,-5.3008,-5.2929,-5.3008,-5.3269,-5.2825,-5.1596,-5.2537,-5.2537,-5.1596,-5.1596,-5.1596,-5.157,-5.1047,-5.0551,-5.008,-4.9244,-4.7963,-4.6473,-4.6473,-4.5454,-4.3807,-4.3258,-4.2657,-4.2159,-4.1533,-4.1324,-4.1219,0.0,0.0,0.0,0.0,0.0,0.0,0.0,0.0,0.0,0.0,0.0,0.0,0.0,0.0,0.0,0.0,0.0,0.0,0.0,0.0,0.0,0.0,0.0,0.0,0.0,0.0,0.0,0.0,0.0,0.0,0.0,0.0,0.0,0.0,0.0,0.0,-4.0795,-4.0795,-4.049,-4.0007,-3.9804,-3.8517,-3.6578,-3.5106,-3.2783,-2.9958,-2.7914,-2.631,0.0,0.0,-2.4091,-2.4345,-2.5156,-2.4903,-2.4131,-2.3728,-2.319,-2.2937,-2.4177,0.0,0.0,-2.8195,-3.0836,-3.3635,-3.6692,-3.8995,-4.1247,-4.3679,-4.4869,-4.5529,-4.6029,-4.673,-4.7519,-4.8094,-4.8695,-4.9087,-4.9087,-4.8669,-4.7675,-4.5846,-4.5794,-4.6525,-4.8068,-4.846,-4.8956,-4.9819,-5.0812,-5.1779,-5.2694,-5.2589,-5.2772,-5.3373,-5.3086,-5.2485,-5.1596,-5.2459,-5.2459,-5.1596,-5.1596,-5.1596,-5.157,-5.1047,-5.008,-4.8826,-4.8381,-4.7545,-4.6473,-4.6316,-4.5218,-4.3598,-4.318,-4.2579,-4.1873,-4.1455,-4.1324,-4.1246,0.0,0.0,0.0,0.0,0.0,0.0,0.0,0.0,0.0,0.0,0.0,0.0,0.0,0.0,0.0,0.0,0.0,0.0,0.0,0.0,0.0,0.0,0.0,0.0,0.0,0.0,0.0,0.0,0.0,0.0,0.0,0.0,0.0,0.0,0.0,0.0,0.0,-4.0517,-4.0184,-3.9647,-3.907,-3.7514,-3.529,-3.3039,-3.0187,-2.7308,-2.7222,0.0,0.0,0.0,-2.1172,-2.064,-2.229,-2.3442,0.0,-2.4177,-2.3465,0.0,0.0,0.0,-2.6542,-3.0055,-3.3375,-3.6735,-4.0402,-4.3069,-4.5211,-4.6914,-4.7203,-4.72,-4.7226,-4.7252,-4.7519,-4.8094,-4.8695,-4.9087,-4.9087,-4.7623,-4.6316,-4.5715,-4.3676,-4.2839,0.0,-4.6081,-4.8094,-4.9766,-5.0472,-5.157,-5.3269,-5.2825,-5.2772,-5.3373,-5.225,-5.1622,-5.1596,-5.1622,-5.1622,-5.1596,-5.1596,-5.1596,-5.157,-5.1047,-4.9845,-4.8224,-4.8198,-4.7545,-4.6421,-4.5872,-4.4617,-4.3049,-4.3023,-4.2317,-4.135,-4.1324,-4.1324,-4.1324,0.0,0.0,0.0,0.0,0.0,0.0,0.0,0.0,0.0,0.0,0.0,0.0,0.0,0.0,0.0,0.0,0.0,0.0,0.0,0.0,0.0,0.0,0.0,0.0,0.0,0.0,0.0,0.0,0.0,0.0,0.0,0.0,0.0,0.0,0.0,0.0,0.0,0.0,-3.9343,-3.9568,-3.827,-3.6917,-3.5372,-3.2326,-2.9401,-2.6569,0.0,0.0,0.0,0.0,0.0,0.0,-2.0575,0.0,0.0,-2.3295,-2.3902,-2.4764,0.0,0.0,-3.1892,-3.4785,-3.8105,-4.1277,-4.354,-4.5405,-4.6798,-4.721,-4.5775,-4.4251,-4.3493,-4.2709,-4.2892,-4.4983,-4.582,-4.663,-4.7754,-4.7414,-4.5976,-4.3101,-4.3075,0.0,0.0,0.0,0.0,-4.7466,-4.8512,-4.9976,-5.2093,-5.238,-5.2772,-5.3373,-5.3008,-5.2406,-5.1596,-5.1988,-5.1988,-5.1596,-5.123,-5.1073,-5.1021,-5.008,-4.9113,-4.8172,-4.778,-4.697,-4.5872,-4.5297,-4.4251,-4.2997,-4.2605,-4.1977,-4.1324,-4.1324,-4.1324,-4.1324,0.0,0.0,0.0,0.0,0.0,0.0,0.0,0.0,0.0,0.0,0.0,0.0,0.0,0.0,0.0,0.0,0.0,0.0,0.0,0.0,0.0,0.0,0.0,0.0,0.0,0.0,0.0,0.0,0.0,0.0,0.0,0.0,0.0,0.0,0.0,0.0,0.0,0.0,-3.6814,-3.6386,-3.5353,-3.3768,-3.1705,-2.9202,-2.6641,0.0,0.0,0.0,0.0,0.0,0.0,0.0,0.0,-2.0583,-2.1991,-2.4147,-2.5564,-2.733,-3.127,-3.3664,-3.5643,-3.8194,-4.1265,-4.4003,-4.5348,-4.6463,-4.6976,-4.5968,-4.3827,-4.1611,-4.0069,-3.8841,-3.8998,-4.1873,-4.25,-4.3572,-4.6286,-4.6003,-4.4748,-4.2762,-4.2971,-4.2683,0.0,0.0,0.0,-4.6003,-4.7623,-4.9401,-5.1492,-5.2171,-5.2851,-5.3661,-5.3295,-5.2694,-5.1936,-5.2302,-5.2093,-5.1309,-5.0969,-5.0577,-5.0159,-4.9427,-4.8643,-4.7858,-4.7283,-4.6499,-4.5558,-4.4774,-4.3885,-4.2971,-4.2396,-4.1821,-4.1324,-4.1324,-4.1324,-4.1324,0.0,0.0,0.0,0.0,0.0,0.0,0.0,0.0,0.0,0.0,0.0,0.0,0.0,0.0,0.0,0.0,0.0,0.0,0.0,0.0,0.0,0.0,0.0,0.0,0.0,0.0,0.0,0.0,0.0,0.0,0.0,0.0,0.0,0.0,0.0,0.0,0.0,0.0,0.0,-3.0432,-3.0607,-2.8435,-2.4951,-2.4017,0.0,0.0,0.0,0.0,0.0,0.0,0.0,0.0,0.0,0.0,-2.4938,-2.6791,-2.845,-3.0498,-3.3933,-3.6036,-3.7868,-4.0495,-4.3005,-4.5087,-4.5954,-4.6327,-4.5809,-4.3361,-4.1338,-3.9285,0.0,0.0,-3.6018,-3.8919,-3.9102,-4.0461,-4.4983,-4.3807,-4.3049,0.0,0.0,0.0,0.0,0.0,0.0,-4.5637,0.0,-4.9766,-5.1518,-5.2171,-5.2981,-5.4079,-5.306,-5.2485,-5.2459,-5.2459,-5.1884,-5.0786,-5.076,-5.0159,-4.9087,-4.9061,-4.8407,-4.7257,-4.6682,-4.6107,-4.5454,-4.4278,-4.3467,-4.2918,-4.2343,-4.1794,-4.1324,-4.1324,-4.1324,-4.1324,0.0,0.0,0.0,0.0,0.0,0.0,0.0,0.0,0.0,0.0,0.0,0.0,0.0,0.0,0.0,0.0,0.0,0.0,0.0,0.0,0.0,0.0,0.0,0.0,0.0,0.0,0.0,0.0,0.0,0.0,0.0,0.0,0.0,0.0,0.0,0.0,0.0,0.0,0.0,0.0,0.0,-2.56,-2.4233,0.0,0.0,0.0,0.0,0.0,0.0,0.0,0.0,0.0,0.0,-2.5349,-2.7386,-3.0893,-3.2986,-3.5093,-3.9267,-4.1208,-4.2699,-4.5281,-4.6382,-4.6812,-4.6526,-4.5468,-4.3693,-4.0482,-3.6709,-3.3416,0.0,0.0,0.0,-3.594,-3.9155,0.0,-4.5218,-4.6212,0.0,-4.5506,0.0,-4.5689,-4.4826,-4.5637,0.0,0.0,-4.7675,-4.8904,-5.1465,-5.2171,-5.2642,-5.2929,-5.2642,-5.2276,-5.1831,-5.1831,-5.1465,-5.0786,-5.0342,-4.9766,-4.9061,-4.8616,-4.778,-4.6656,-4.6081,-4.5271,-4.4225,-4.3075,-4.2552,-4.2317,-4.1768,-4.1455,-4.1324,-4.1324,-4.1324,-4.1324,0.0,0.0,0.0,0.0,0.0,0.0,0.0,0.0,0.0,0.0,0.0,0.0,0.0,0.0,0.0,0.0,0.0,0.0,0.0,0.0,0.0,0.0,0.0,0.0,0.0,0.0,0.0,0.0,0.0,0.0,0.0,0.0,0.0,0.0,0.0,0.0,0.0,0.0,0.0,0.0,0.0,0.0,0.0,0.0,0.0,0.0,0.0,0.0,0.0,0.0,0.0,-2.5824,-2.7803,-2.9578,-3.1679,-3.5469,0.0,-3.9413,-4.3005,-4.4867,-4.6066,-4.7101,-4.7442,-4.6972,-4.4843,-4.311,-4.0644,-3.5913,-3.2698,0.0,0.0,0.0,0.0,0.0,0.0,0.0,-4.433,-4.5689,-4.6395,0.0,-4.731,0.0,-4.6813,-4.7571,-4.8329,0.0,-4.8878,-4.9662,-5.1492,-5.2171,-5.2616,-5.2877,-5.2642,-5.2328,-5.1988,-5.1727,-5.1335,-5.0786,-5.0185,-4.961,-4.9061,-4.8198,-4.731,-4.6421,0.0,-4.4722,-4.3834,-4.2682,-4.2211,-4.2159,-4.1533,-4.1324,-4.1324,-4.1324,-4.1324,-4.1324,0.0,0.0,0.0,0.0,0.0,0.0,0.0,0.0,0.0,0.0,0.0,0.0,0.0,0.0,0.0,0.0,0.0,0.0,0.0,0.0,0.0,0.0,0.0,0.0,0.0,0.0,0.0,0.0,0.0,0.0,0.0,0.0,0.0,0.0,0.0,0.0,0.0,0.0,0.0,0.0,0.0,0.0,0.0,0.0,0.0,0.0,0.0,0.0,0.0,0.0,-2.7941,-2.9483,-3.185,-3.4199,-3.675,-4.0017,-4.1821,-4.3309,-4.579,-4.7399,-4.8232,-4.757,-4.7294,-4.6138,-4.2236,-3.9949,-3.6985,-3.0884,0.0,-2.7732,-2.5332,0.0,-2.8665,-3.2228,0.0,-3.7665,-4.3206,-4.4121,-4.5271,-4.8068,-4.8407,-4.8486,-4.8616,-4.9113,-4.961,-5.008,-5.0603,-5.11,-5.157,-5.2093,-5.2616,-5.3138,-5.2642,-5.2354,-5.2276,-5.1753,-5.1178,-5.0551,-5.0028,-4.9505,-4.893,-4.7832,-4.7022,-4.6395,-4.5166,-4.4278,-4.3676,-4.2526,-4.2107,-4.2004,-4.1507,-4.1324,-4.1324,-4.1324,-4.1324,-4.1324,0.0,0.0,0.0,0.0,0.0,0.0,0.0,0.0,0.0,0.0,-1.2306,-1.1801,0.0,0.0,0.0,0.0,0.0,0.0,0.0,0.0,0.0,0.0,0.0,0.0,0.0,0.0,0.0,0.0,0.0,0.0,0.0,0.0,0.0,0.0,0.0,0.0,0.0,0.0,0.0,0.0,0.0,0.0,0.0,0.0,0.0,0.0,0.0,0.0,0.0,0.0,-3.0481,-3.3169,-3.5966,-3.8423,-4.0749,-4.3258,-4.48,-4.6264,-4.8596,-4.9148,-4.924,-4.9925,-4.7709,-4.4529,-4.1311,-3.7111,0.0,0.0,0.0,-2.4256,-2.4256,-2.6028,0.0,-3.2803,0.0,0.0,0.0,0.0,-4.6917,0.0,0.0,0.0,0.0,0.0,0.0,0.0,0.0,-5.1492,-5.1596,-5.1701,-5.1805,-5.191,-5.1805,-5.1544,-5.11,-5.0969,-5.042,-4.9374,-4.927,-4.8904,-4.8329,-4.7649,-4.7022,-4.6395,-4.4748,0.0,-4.3075,-4.1925,-4.1455,-4.1455,-4.135,-4.1324,-4.1324,-4.1324,-4.1324,-4.1324,0.0,0.0,0.0,0.0,0.0,0.0,0.0,-1.2902,-1.3023,-1.3819,-1.3457,-1.3047,-1.2764,-1.2234,-1.2147,0.0,0.0,0.0,0.0,0.0,0.0,0.0,0.0,0.0,0.0,0.0,0.0,0.0,0.0,0.0,0.0,0.0,0.0,0.0,0.0,0.0,0.0,0.0,0.0,0.0,0.0,0.0,0.0,0.0,0.0,0.0,0.0,0.0,0.0,0.0,-2.921,-3.3012,-3.7403,-4.0357,-4.2526,-4.4251,-4.6003,-4.7728,-4.9427,-5.0156,-5.0426,-5.035,-4.7328,-4.322,-3.8773,0.0,0.0,0.0,-2.355,-2.2871,-2.3158,0.0,0.0,0.0,0.0,0.0,0.0,0.0,0.0,0.0,0.0,0.0,0.0,0.0,0.0,0.0,0.0,-5.0969,-5.157,-5.1335,-5.1309,-5.1596,-5.1021,-5.0734,-5.0786,-5.0472,-5.0054,-4.9505,-4.9218,-4.893,-4.8616,-4.7414,-4.6734,-4.6369,-4.4671,-4.3546,-4.2971,-4.2108,-4.1585,-4.1324,-4.1324,-4.1324,-4.1324,-4.1324,-4.1324,-4.1324,0.0,0.0,0.0,0.0,0.0,0.0,0.0,-1.3409,-1.3553,-1.4205,-1.3987,-1.3674,-1.336,-1.2589,-1.222,0.0,0.0,0.0,0.0,0.0,0.0,0.0,0.0,0.0,0.0,0.0,0.0,0.0,0.0,0.0,0.0,0.0,0.0,0.0,0.0,0.0,0.0,0.0,0.0,0.0,0.0,0.0,0.0,0.0,0.0,0.0,0.0,0.0,0.0,0.0,-2.6933,-3.0973,-3.6105,-3.9812,-4.2552,-4.3833,-4.6003,-4.8277,-4.9557,-5.0734,-5.1282,-5.0028,-4.6578,-4.2056,-3.6541,-3.1888,0.0,0.0,-2.2218,-2.2139,-2.2506,0.0,0.0,0.0,0.0,0.0,0.0,0.0,0.0,0.0,0.0,0.0,0.0,0.0,0.0,0.0,0.0,0.0,-5.1178,-5.0838,-5.0786,-5.1204,-5.0368,-5.0054,-5.042,-4.9949,-4.9662,-4.9531,-4.9087,-4.8826,-4.8669,-4.7153,-4.6421,-4.6212,-4.4591,-4.3546,-4.2971,-4.2396,-4.1821,-4.1324,-4.1324,-4.1324,-4.1324,-4.1324,-4.1324,-4.1324,0.0,0.0,0.0,0.0,0.0,0.0,0.0,-1.3095,-1.3143,-1.4176,-1.3023,-1.2282,-1.2733,-1.2738,-1.253,0.0,0.0,0.0,0.0,0.0,0.0,0.0,0.0,0.0,0.0,0.0,0.0,0.0,0.0,0.0,0.0,0.0,0.0,0.0,0.0,0.0,0.0,0.0,0.0,0.0,0.0,0.0,0.0,0.0,0.0,0.0,0.0,0.0,0.0,0.0,0.0,-2.7628,-3.0641,-3.5435,-4.0252,-4.1925,0.0,0.0,-4.9453,-5.0734,-5.1204,-4.9557,-4.5715,-4.1138,-3.6384,0.0,0.0,-2.3027,-2.159,-2.1302,-2.2844,-2.3315,0.0,0.0,0.0,0.0,0.0,0.0,0.0,0.0,0.0,0.0,0.0,0.0,0.0,0.0,0.0,0.0,-5.0054,-5.0002,-5.0002,-5.0054,-4.9949,-4.9688,-4.9244,-4.9191,-4.8878,-4.8329,-4.8303,-4.7989,-4.7409,-4.6787,-4.6186,-4.5637,-4.4408,-4.3546,0.0,-4.2396,-4.1821,-4.1324,-4.1324,-4.1324,-4.1324,-4.1324,-4.1324,-4.1324,0.0,0.0,0.0,0.0,0.0,0.0,-1.2999,-1.3119,-1.3336,-1.377,-1.3529,-1.3192,-1.2758,-1.2472,-1.2093,-1.1511,0.0,0.0,0.0,0.0,0.0,0.0,0.0,0.0,0.0,0.0,0.0,0.0,0.0,0.0,0.0,0.0,0.0,0.0,0.0,0.0,0.0,0.0,0.0,0.0,0.0,0.0,0.0,0.0,0.0,0.0,0.0,0.0,0.0,0.0,0.0,0.0,-2.4515,-2.823,0.0,0.0,-4.1455,-4.5114,-4.6865,-4.8904,-5.0159,-4.846,-4.4539,-3.9913,-3.5312,0.0,0.0,-2.2923,-2.1485,-2.1093,-2.248,-2.2714,-2.3757,0.0,0.0,0.0,0.0,0.0,0.0,0.0,0.0,0.0,0.0,0.0,0.0,0.0,0.0,0.0,-4.8878,-4.9218,-4.9557,-4.9871,-4.9218,-4.893,-4.9087,-4.8721,-4.8433,-4.8172,-4.8172,-4.7885,-4.7252,-4.6734,-4.6159,-4.5529,-4.4748,-4.4068,0.0,-4.2918,-4.2343,-4.1794,-4.1455,-4.1324,-4.1324,-4.1324,-4.1324,-4.1324,0.0,0.0,0.0,0.0,0.0,-1.274,-1.2908,-1.3119,-1.3264,-1.3264,-1.3457,-1.324,-1.233,-1.1801,-1.1318,-1.0894,-1.143,0.0,0.0,0.0,0.0,0.0,0.0,0.0,0.0,0.0,0.0,0.0,0.0,0.0,0.0,0.0,0.0,0.0,0.0,0.0,0.0,0.0,0.0,0.0,0.0,0.0,0.0,0.0,0.0,0.0,0.0,0.0,0.0,0.0,0.0,0.0,0.0,0.0,0.0,0.0,-3.7697,-4.1925,-4.3833,-4.6447,-4.825,-4.6708,-4.2971,-3.8553,0.0,0.0,0.0,-2.3054,-2.1616,-2.1118,-2.2401,-2.2532,-2.3106,0.0,0.0,0.0,0.0,0.0,0.0,0.0,0.0,0.0,0.0,0.0,0.0,0.0,0.0,0.0,-4.8198,-4.8433,-4.8826,-4.9374,-4.8616,-4.8381,-4.8826,-4.8224,-4.7937,-4.7937,-4.7754,-4.7388,-4.6756,-4.6421,-4.582,-4.5088,-4.4853,-4.4304,0.0,-4.318,-4.2683,-4.2159,-4.1533,-4.1324,-4.1324,-4.1324,-4.1324,-4.1324,0.0,0.0,0.0,0.0,0.0,0.0,-1.3409,-1.3047,-1.2709,-1.2709,-1.2258,-1.1728,-1.1174,-1.063,-1.0317,-1.0317,-1.0873,0.0,0.0,0.0,0.0,0.0,0.0,0.0,0.0,0.0,-1.1306,-1.2095,-1.1776,-1.2025,0.0,0.0,0.0,0.0,0.0,0.0,0.0,0.0,0.0,0.0,0.0,0.0,0.0,0.0,0.0,0.0,0.0,0.0,0.0,0.0,0.0,0.0,0.0,0.0,0.0,0.0,-3.3792,-3.8449,-4.0749,-4.3467,-4.5401,-4.4199,-4.0906,-3.7011,0.0,0.0,0.0,-2.3446,-2.1878,-2.1197,-2.2897,-2.274,-2.2951,-2.473,0.0,0.0,0.0,0.0,0.0,0.0,0.0,0.0,0.0,0.0,0.0,0.0,0.0,0.0,-4.8172,-4.7649,-4.7623,-4.8172,-4.8198,-4.8172,-4.8198,-4.7623,-4.7278,-4.7278,-4.6761,-4.6186,-4.5637,-4.5637,-4.5009,-4.3912,-4.4487,-4.4095,0.0,-4.3023,-4.2683,-4.2159,-4.1533,-4.1324,-4.1324,-4.1324,-4.1324,-4.1324,0.0,0.0,0.0,0.0,0.0,0.0,0.0,-1.2571,-1.2427,-1.1704,-1.1776,-1.1704,-1.1159,-1.063,-1.0461,-1.0822,-1.1006,0.0,0.0,0.0,0.0,0.0,0.0,0.0,0.0,0.0,-1.1169,-1.1756,-1.1984,-1.2194,-1.2446,-1.2754,0.0,0.0,0.0,0.0,0.0,0.0,0.0,0.0,0.0,0.0,0.0,0.0,0.0,0.0,0.0,0.0,0.0,0.0,0.0,0.0,0.0,0.0,0.0,0.0,0.0,0.0,-3.4999,-3.7534,-3.9364,-3.7795,-3.5861,-3.3535,-3.0451,0.0,0.0,0.0,-2.1877,-2.1538,-2.2479,-2.2818,-2.3759,-2.6295,0.0,0.0,0.0,0.0,0.0,0.0,0.0,0.0,0.0,0.0,0.0,0.0,0.0,0.0,-4.7597,-4.7074,-4.7022,-4.7571,-4.7231,-4.7022,-4.7022,-4.6839,-4.6761,-4.6734,-4.6552,-4.6186,-4.5581,-4.5581,-4.4983,-4.3912,-4.4487,-4.4304,-4.3572,-4.318,-4.2918,-4.2657,-4.169,-4.1324,-4.1324,-4.1324,-4.1324,-4.1324,0.0,0.0,0.0,0.0,0.0,0.0,0.0,-1.2306,-1.209,-1.1207,-1.1207,-1.1159,-1.0822,-1.0317,-1.0207,-1.075,-1.0798,0.0,0.0,0.0,0.0,0.0,0.0,0.0,0.0,-1.091,-1.1137,-1.1591,-1.1882,-1.2193,-1.2523,-1.277,-1.2772,-1.2545,0.0,0.0,0.0,0.0,0.0,0.0,0.0,0.0,-1.3488,0.0,0.0,0.0,0.0,0.0,0.0,0.0,0.0,0.0,0.0,0.0,0.0,0.0,-2.3764,0.0,0.0,-3.2855,-3.4789,-3.3718,-3.2411,0.0,0.0,0.0,0.0,0.0,0.0,0.0,0.0,0.0,0.0,0.0,0.0,0.0,0.0,0.0,0.0,0.0,0.0,0.0,0.0,0.0,0.0,0.0,0.0,0.0,-4.7278,-4.6578,-4.6316,-4.6626,-4.6552,-4.6473,-4.6473,-4.6264,-4.6159,-4.6159,-4.5924,-4.5637,-4.5271,-4.5062,-4.446,-4.3572,-4.3938,-4.3755,0.0,-4.284,-4.2709,-4.2605,-4.169,-4.1324,-4.1324,-4.1324,-4.1324,-4.1324,0.0,0.0,0.0,0.0,0.0,0.0,0.0,-1.2282,-1.1752,-1.1174,-1.0678,-1.0341,-1.0255,-0.9798,-0.9713,-1.0226,0.0,0.0,0.0,0.0,0.0,0.0,0.0,0.0,0.0,-1.0869,-1.1116,-1.1591,-1.1654,-1.2109,-1.2956,-1.3018,-1.2998,-1.2894,-1.2894,0.0,0.0,0.0,0.0,0.0,0.0,0.0,0.0,0.0,0.0,0.0,0.0,0.0,0.0,0.0,0.0,0.0,0.0,0.0,0.0,0.0,0.0,0.0,0.0,0.0,0.0,0.0,0.0,0.0,0.0,0.0,0.0,0.0,0.0,0.0,0.0,0.0,0.0,0.0,0.0,0.0,0.0,0.0,0.0,0.0,0.0,0.0,0.0,0.0,0.0,0.0,0.0,0.0,-4.7148,-4.6133,-4.5506,-4.5506,-4.5976,-4.6264,-4.6342,-4.582,-4.5558,-4.5558,-4.4955,-4.4642,-4.4643,-4.4147,-4.3572,0.0,-4.3049,-4.2735,-4.2211,-4.2211,-4.2211,-4.2159,-4.1533,-4.1324,-4.1324,-4.1324,-4.1324,-4.1324,0.0,0.0,0.0,0.0,0.0,0.0,0.0,0.0,0.0,0.0,-1.099,-1.0606,-0.9774,-0.9582,-0.9607,0.0,0.0,0.0,0.0,0.0,0.0,0.0,0.0,0.0,0.0,-1.0541,-1.0766,-1.1591,-1.2275,-1.2874,-1.3452,-1.4179,-1.3927,-1.2894,-1.2894,-1.2482,0.0,0.0,0.0,0.0,0.0,0.0,0.0,0.0,0.0,0.0,-1.5037,-1.5357,0.0,0.0,0.0,0.0,0.0,0.0,0.0,0.0,-1.9199,-2.0126,-2.078,0.0,-2.3913,-2.3913,-2.3968,0.0,0.0,0.0,0.0,0.0,0.0,0.0,0.0,0.0,0.0,0.0,0.0,0.0,0.0,0.0,0.0,0.0,0.0,0.0,0.0,0.0,0.0,0.0,0.0,-4.6499,-4.5999,-4.4931,-4.4278,-4.4278,-4.399,-4.4251,-4.514,-4.5009,-4.4877,-4.4931,-4.4746,-4.4487,-4.4095,-4.4382,-4.3729,-4.2422,-4.3284,-4.3101,-4.2211,-4.2211,-4.2211,-4.2159,-4.1533,-4.1324,-4.1324,-4.1324,-4.1324,-4.1324,0.0,0.0,0.0,0.0,0.0,0.0,0.0,0.0,0.0,0.0,0.0,0.0,0.0,0.0,0.0,0.0,0.0,0.0,0.0,0.0,0.0,0.0,0.0,0.0,-1.0561,-1.0334,-1.0766,-1.1923,-1.24,-1.3062,-1.3931,-1.4221,-1.3848,-1.2874,-1.2254,-1.1716,0.0,0.0,0.0,0.0,-1.2392,0.0,0.0,0.0,0.0,0.0,-1.4928,-1.5236,0.0,-1.7415,-1.8033,-1.8226,0.0,0.0,0.0,0.0,-1.8507,-1.9118,-1.8327,-2.0152,-2.2296,-2.2296,-2.2531,-2.2766,0.0,0.0,0.0,0.0,0.0,0.0,0.0,0.0,0.0,0.0,0.0,0.0,0.0,0.0,0.0,0.0,0.0,0.0,0.0,0.0,0.0,0.0,0.0,-4.595,-4.5637,-4.4513,-4.3912,-4.3912,-4.331,-4.331,-4.3938,-4.3938,-4.3938,-4.3938,-4.3938,-4.3781,-4.3493,-4.352,-4.3049,-4.2238,-4.2552,-4.2343,-4.1768,-4.1768,-4.1768,-4.1742,-4.1428,-4.1324,-4.1324,-4.1324,-4.1324,-4.1324,0.0,0.0,0.0,0.0,0.0,0.0,0.0,0.0,0.0,0.0,0.0,0.0,0.0,0.0,0.0,0.0,0.0,0.0,0.0,0.0,0.0,0.0,0.0,-0.9625,-1.0276,-1.0164,-1.0783,-1.2173,-1.2464,-1.323,-1.4407,-1.4366,-1.3976,-1.3255,-1.1756,-1.1068,0.0,0.0,0.0,0.0,-1.2473,0.0,0.0,0.0,0.0,0.0,0.0,0.0,0.0,-1.7068,-1.7561,-1.7778,-1.8069,0.0,0.0,0.0,0.0,0.0,-1.7891,-2.0337,-2.3027,-2.2766,-2.2869,-2.308,0.0,0.0,0.0,0.0,0.0,0.0,0.0,0.0,0.0,0.0,0.0,0.0,0.0,0.0,0.0,0.0,0.0,0.0,0.0,0.0,0.0,0.0,0.0,-4.5428,-4.519,-4.4199,-4.3677,-4.3677,-4.3049,-4.2762,-4.2762,-4.2944,-4.3023,-4.3023,-4.3023,-4.2971,-4.2866,-4.2474,-4.2213,-4.2004,0.0,0.0,-4.1324,-4.1324,-4.1324,-4.1324,-4.1324,-4.1324,-4.1324,-4.1324,-4.1324,-4.1324,0.0,0.0,0.0,0.0,0.0,0.0,0.0,0.0,0.0,0.0,0.0,0.0,0.0,0.0,0.0,0.0,0.0,0.0,0.0,0.0,0.0,0.0,-0.8772,-0.9135,-1.0673,-0.9986,-1.0281,-1.1632,-1.3223,-1.4304,-1.4925,-1.6788,-1.6783,-1.5078,-1.2936,-1.1765,-1.1434,-1.184,-1.2041,-1.2131,-1.2473,0.0,0.0,0.0,0.0,0.0,0.0,0.0,0.0,-1.7257,-1.7905,-1.84,-1.8032,0.0,0.0,0.0,0.0,0.0,-1.9796,-2.1225,-2.2166,-2.0701,-2.1407,-2.2506,0.0,0.0,0.0,0.0,0.0,0.0,0.0,0.0,0.0,0.0,0.0,0.0,0.0,0.0,0.0,0.0,0.0,0.0,0.0,0.0,0.0,0.0,0.0,-4.446,-4.3467,-4.2788,-4.2473,-4.2473,-4.1873,-4.1585,-4.1585,-4.2526,-4.3023,-4.3023,-4.3023,-4.2762,-4.2368,-4.2709,-4.2369,-4.1455,0.0,-4.1768,-4.1324,-4.1324,-4.1324,-4.1324,-4.1324,-4.1324,-4.1324,-4.1324,-4.1324,-4.1324,0.0,0.0,0.0,0.0,0.0,0.0,0.0,0.0,0.0,0.0,0.0,0.0,0.0,0.0,0.0,0.0,0.0,0.0,0.0,0.0,0.0,-0.947,-0.9212,-0.9669,-1.1001,-1.0721,-1.1536,-1.3501,-1.3786,-1.5037,-1.7219,-1.6878,-1.5794,-1.4015,-1.2498,-1.1818,-1.1859,-1.2198,-1.236,-1.2419,0.0,0.0,0.0,0.0,0.0,0.0,0.0,0.0,0.0,0.0,-1.7454,-1.7999,-1.7811,0.0,0.0,0.0,0.0,0.0,-1.9662,-2.1224,-2.2635,-2.1851,-2.2479,-2.3237,0.0,0.0,0.0,0.0,0.0,0.0,0.0,0.0,0.0,0.0,0.0,0.0,0.0,0.0,0.0,0.0,0.0,0.0,0.0,0.0,0.0,0.0,0.0,0.0,-4.3075,-4.2474,-4.2211,-4.2211,-4.1611,-4.1324,-4.1324,-4.1847,-4.2108,-4.2108,-4.2108,-4.1951,-4.1716,-4.1825,-4.1591,-4.1073,0.0,-4.1104,-4.0871,-4.0871,-4.0871,-4.0846,-4.1047,-4.1097,-4.1097,-4.1274,-4.1198,-4.1097,0.0,0.0,0.0,0.0,0.0,0.0,0.0,0.0,0.0,0.0,0.0,0.0,0.0,0.0,0.0,0.0,0.0,0.0,0.0,0.0,-0.9123,-0.9769,-1.0279,-1.086,-1.1543,-1.1746,-1.2941,-1.513,-1.4834,-1.614,-1.894,-1.6302,-1.4398,-1.3209,-1.2235,-1.193,-1.224,-1.2597,-1.2703,-1.265,0.0,0.0,0.0,0.0,0.0,0.0,0.0,0.0,0.0,0.0,0.0,0.0,0.0,0.0,0.0,-1.8851,-1.9568,-2.0317,-1.948,-2.099,-2.2763,-2.2791,0.0,0.0,-2.4622,0.0,0.0,0.0,0.0,0.0,0.0,0.0,0.0,0.0,0.0,0.0,0.0,0.0,0.0,0.0,0.0,0.0,0.0,0.0,0.0,0.0,0.0,0.0,-4.2554,-4.211,-4.185,-4.1799,-4.1331,-4.1147,-4.1198,-4.1198,-4.1274,-4.1324,-4.1274,-4.1198,-4.1198,-4.0946,-4.0795,-4.0795,-4.0593,-4.0517,-4.0517,-4.0517,-4.0517,-4.0491,-4.0744,-4.0795,-4.0846,-4.1047,-4.0997,-4.0846,0.0,0.0,0.0,0.0,0.0,0.0,0.0,0.0,0.0,0.0,0.0,0.0,0.0,0.0,0.0,0.0,0.0,0.0,0.0,0.0,-1.0517,-1.0689,-1.1969,-1.2652,-1.2584,-1.2793,-1.3564,-1.4926,-1.6894,-1.8125,-1.8578,-1.5708,-1.443,-1.4514,-1.3205,-1.2603,-1.2573,-1.2983,-1.2931,-1.265,-1.3042,0.0,0.0,0.0,0.0,0.0,0.0,0.0,0.0,0.0,0.0,0.0,0.0,0.0,-1.9272,-1.871,-1.9471,-2.0473,-2.0421,-2.0888,-2.1458,-2.159,0.0,0.0,-2.836,0.0,0.0,0.0,0.0,0.0,0.0,0.0,0.0,0.0,0.0,0.0,0.0,0.0,0.0,0.0,0.0,0.0,0.0,0.0,0.0,0.0,0.0,0.0,-4.1102,-4.1024,-4.0847,-4.0619,-4.0567,-4.0694,-4.0946,-4.0946,-4.1047,-4.1324,-4.1047,-4.0946,-4.0946,-4.0643,-4.0542,-4.0542,-4.0517,-4.0517,-4.0517,-4.0517,-4.0517,-4.0517,-4.0491,-4.0542,-4.0542,-4.0542,-4.0567,-4.0542,0.0,0.0,0.0,0.0,0.0,0.0,0.0,0.0,0.0,0.0,0.0,0.0,0.0,0.0,0.0,0.0,0.0,0.0,0.0,0.0,-1.0533,-1.1495,-1.2143,-1.2758,-1.3429,-1.3646,-1.4636,-1.6442,-1.7699,-1.7629,-1.6262,-1.5011,-1.4222,-1.3781,-1.2972,-1.2764,-1.2965,-1.3146,-1.3112,-1.2983,-1.3146,-1.3198,0.0,0.0,0.0,0.0,0.0,0.0,0.0,0.0,-1.6093,-1.674,0.0,-1.815,-1.9272,-1.8734,-1.9166,-1.9779,-1.9516,-2.0888,-2.2522,-2.2998,0.0,0.0,0.0,0.0,0.0,0.0,0.0,0.0,0.0,0.0,0.0,0.0,0.0,0.0,0.0,0.0,0.0,0.0,0.0,0.0,0.0,0.0,0.0,0.0,0.0,0.0,-4.0922,-4.0896,-4.0846,-4.0744,-4.0593,-4.0542,-4.0643,-4.0643,-4.0694,-4.0795,-4.0896,-4.0795,-4.0643,-4.0389,-4.0236,-4.0236,-4.0083,-4.0006,-4.0006,-4.0006,-4.0006,-4.0006,-4.0185,-4.0236,-4.0287,-4.0466,-4.0389,-4.0287,0.0,0.0,0.0,0.0,0.0,0.0,0.0,0.0,0.0,0.0,0.0,0.0,0.0,0.0,0.0,0.0,0.0,0.0,0.0,-1.0114,-1.075,-1.2021,-1.2283,-1.2901,-1.3944,-1.4116,-1.5037,-1.6808,-1.6979,-1.6361,-1.4966,-1.4145,-1.3679,-1.3532,-1.2866,-1.2941,-1.3483,-1.3273,-1.3198,-1.3198,-1.3198,-1.3198,0.0,0.0,0.0,0.0,0.0,0.0,0.0,0.0,0.0,0.0,0.0,0.0,0.0,0.0,-1.8836,-1.9039,-1.8593,-2.0268,-2.2363,0.0,0.0,0.0,0.0,0.0,0.0,0.0,0.0,0.0,0.0,0.0,0.0,0.0,0.0,0.0,0.0,0.0,0.0,0.0,0.0,0.0,0.0,0.0,0.0,0.0,0.0,0.0,0.0,-4.0206,-4.0053,-4.0003,-3.9802,-3.9752,-3.9828,-3.9828,-3.9904,-4.0083,-4.0285,-4.0285,-4.0109,-3.9829,-3.9626,-3.9449,-3.9246,-3.927,-3.9421,-3.9421,-3.9546,-3.9749,-3.9878,-3.9981,-3.9981,-4.0185,-4.0134,-3.9981,0.0,0.0,0.0,0.0,0.0,0.0,0.0,0.0,0.0,0.0,0.0,0.0,0.0,0.0,0.0,0.0,0.0,0.0,-1.0264,-1.0822,-1.1446,-1.216,-1.2643,-1.3265,-1.4072,-1.4091,-1.4568,-1.5487,-1.4629,-1.4496,-1.5063,-1.3134,-1.2889,-1.4072,-1.307,-1.3172,-1.4065,-1.3441,-1.3198,-1.3198,-1.3198,-1.3198,-1.3223,0.0,0.0,0.0,0.0,0.0,0.0,0.0,-1.4884,0.0,0.0,0.0,0.0,0.0,-1.8486,-1.8477,-1.7865,-1.894,0.0,0.0,0.0,0.0,0.0,0.0,0.0,0.0,0.0,0.0,0.0,0.0,0.0,0.0,0.0,0.0,0.0,0.0,0.0,0.0,0.0,0.0,0.0,0.0,0.0,0.0,0.0,0.0,0.0,-3.8738,-3.8261,-3.8015,-3.8015,-3.8114,-3.836,-3.8409,-3.8713,-3.9271,-3.9271,-3.9297,-3.9297,-3.902,-3.8542,-3.8015,-3.8015,-3.8341,-3.8919,-3.8919,-3.9195,-3.9697,-3.9697,-3.9697,-3.9697,-3.9697,-3.9697,-3.9697,0.0,0.0,0.0,0.0,0.0,0.0,0.0,0.0,0.0,0.0,0.0,0.0,0.0,0.0,0.0,0.0,0.0,0.0,-1.1351,-1.1584,-1.1963,-1.2668,-1.2787,-1.3046,-1.3466,-1.3194,-1.3711,-1.5081,-1.4173,-1.3951,-1.438,-1.3512,-1.3462,-1.4072,-1.377,-1.3813,-1.4065,-1.3441,-1.3441,-1.3828,-1.3828,-1.4054,-1.4356,0.0,0.0,0.0,0.0,0.0,0.0,0.0,0.0,0.0,0.0,0.0,0.0,-1.7745,-1.8526,-1.9333,-1.8899,0.0,0.0,0.0,0.0,0.0,0.0,0.0,0.0,0.0,0.0,0.0,0.0,0.0,0.0,0.0,0.0,0.0,0.0,0.0,0.0,0.0,0.0,0.0,0.0,0.0,0.0,0.0,0.0,0.0,0.0,-3.851,-3.836,-3.8261,-3.8114,-3.8064,-3.8114,-3.8114,-3.8189,-3.8365,-3.8365,-3.8642,-3.902,-3.8919,-3.8542,-3.8015,-3.8015,-3.809,-3.8291,-3.8693,-3.9195,-3.9697,-3.9697,-3.9697,-3.9697,-3.9697,-3.9697,-3.9697,0.0,0.0,0.0,0.0,0.0,0.0,0.0,0.0,0.0,0.0,0.0,0.0,0.0,0.0,0.0,0.0,0.0,0.0,0.0,0.0,-1.2188,-1.2819,-1.2808,-1.292,-1.3163,-1.2948,-1.3427,-1.4576,-1.3489,-1.3131,-1.3494,-1.3496,-1.3827,-1.4425,-1.4425,-1.4551,-1.4683,-1.3885,-1.3903,-1.44,-1.4191,-1.4425,-1.4859,0.0,0.0,0.0,0.0,0.0,0.0,0.0,0.0,0.0,0.0,0.0,0.0,-1.7677,-1.8453,-1.9232,-1.9131,0.0,0.0,0.0,0.0,0.0,0.0,0.0,0.0,0.0,0.0,0.0,0.0,0.0,0.0,0.0,0.0,0.0,0.0,0.0,0.0,0.0,0.0,0.0,0.0,0.0,0.0,0.0,0.0,0.0,0.0,-3.7731,-3.7604,-3.7604,-3.7459,-3.7362,-3.7362,-3.7362,-3.7462,-3.7688,-3.7688,-3.7864,-3.8191,-3.8191,-3.7889,-3.7362,-3.7588,-3.7688,-3.7713,-3.8291,-3.8718,-3.9019,-3.9019,-3.917,-3.9371,-3.9371,-3.9496,-3.9697,0.0,0.0,0.0,0.0,0.0,0.0,0.0,0.0,0.0,0.0,0.0,0.0,0.0,0.0,0.0,0.0,0.0,0.0,0.0,0.0,-1.222,-1.2791,-1.2815,-1.2903,-1.3077,-1.3112,-1.3431,-1.4022,-1.28,-1.2389,-1.2758,-1.3349,-1.4067,-1.4884,-1.4934,-1.5236,-1.5618,-1.4551,-1.4425,-1.4928,-1.4374,-1.4525,-1.5035,-1.4984,0.0,0.0,0.0,0.0,0.0,0.0,0.0,0.0,0.0,0.0,-1.6926,-1.7928,-1.8374,-1.8648,0.0,0.0,0.0,0.0,0.0,0.0,0.0,0.0,0.0,0.0,0.0,0.0,0.0,0.0,0.0,0.0,0.0,0.0,0.0,0.0,0.0,0.0,0.0,0.0,0.0,0.0,0.0,0.0,0.0,0.0,0.0,-3.6556,-3.6304,-3.6405,-3.6355,-3.6355,-3.6405,-3.6405,-3.6631,-3.7036,-3.7086,-3.7086,-3.7036,-3.7136,-3.6933,-3.643,-3.6933,-3.7136,-3.7236,-3.7739,-3.7965,-3.8015,-3.8015,-3.8341,-3.8793,-3.8894,-3.9195,-3.9622,0.0,0.0,0.0,0.0,0.0,0.0,0.0,0.0,0.0,0.0,0.0,0.0,0.0,0.0,0.0,0.0,0.0,0.0,0.0,0.0,-1.2606,-1.2773,-1.2843,-1.2896,-1.2931,-1.2738,-1.2899,-1.3391,-1.3109,-1.324,-1.3795,0.0,0.0,-1.4928,0.0,-1.5593,-1.5618,-1.4551,-1.4651,-1.5467,-1.4934,-1.5311,-1.612,-1.5693,-1.5185,0.0,0.0,0.0,0.0,0.0,0.0,0.0,-1.612,-1.7303,-1.8431,-1.8254,-1.8831,0.0,0.0,0.0,0.0,0.0,0.0,0.0,0.0,0.0,0.0,0.0,0.0,0.0,0.0,0.0,0.0,0.0,0.0,0.0,0.0,0.0,0.0,0.0,0.0,0.0,0.0,0.0,0.0,0.0,0.0,0.0,-3.5834,-3.5378,-3.5479,-3.638,-3.5956,-3.5931,-3.6405,-3.6405,-3.6207,0.0,-3.6332,-3.6307,-3.5884,-3.6784,-3.6933,-3.6405,-3.6531,-3.6832,-3.7186,-3.7312,-3.7613,-3.8015,-3.8015,-3.809,-3.8241,-3.8718,-3.8994,-3.912,0.0,0.0,0.0,0.0,0.0,0.0,0.0,0.0,0.0,0.0,0.0,0.0,0.0,0.0,0.0,0.0,0.0,0.0,0.0,0.0,0.0,-1.2762,-1.2808,-1.2861,-1.2896,-1.2826,-1.306,-1.3634,-1.3634,0.0,0.0,0.0,0.0,-1.5311,0.0,-1.6095,-1.6045,-1.5211,-1.5336,-1.6045,-1.5512,-1.5768,-1.6475,-1.6195,-1.5743,-1.5236,-1.4979,0.0,0.0,0.0,0.0,0.0,0.0,0.0,-1.7804,-1.7802,-1.838,-1.9233,0.0,0.0,0.0,0.0,0.0,0.0,0.0,0.0,0.0,0.0,0.0,0.0,0.0,0.0,0.0,0.0,0.0,0.0,0.0,0.0,0.0,0.0,0.0,0.0,0.0,0.0,0.0,0.0,0.0,-3.4806,-3.5082,-3.4831,-3.4977,-3.5554,-3.5303,-3.5278,-3.5579,-3.5579,-3.5429,-3.5107,-3.5454,-3.5554,-3.5533,-3.6408,-3.6681,-3.6405,-3.6405,-3.6581,-3.6832,-3.6832,-3.696,-3.7211,-3.7211,-3.7387,-3.7638,-3.7939,-3.8241,-3.8542,0.0,0.0,0.0,0.0,0.0,0.0,0.0,0.0,0.0,0.0,0.0,0.0,0.0,0.0,0.0,0.0,0.0,0.0,0.0,0.0,0.0,0.0,-1.2762,-1.2826,-1.2896,-1.3042,-1.3371,-1.3946,0.0,0.0,0.0,0.0,0.0,-1.5718,0.0,-1.65,-1.645,-1.5819,-1.5919,-1.645,-1.5819,-1.5944,-1.65,-1.65,-1.617,-1.5718,-1.5793,-1.5542,-1.5185,-1.5185,0.0,0.0,0.0,0.0,-1.6851,-1.7297,-1.7702,-1.8204,0.0,0.0,0.0,0.0,0.0,0.0,0.0,0.0,0.0,0.0,0.0,0.0,0.0,0.0,0.0,0.0,0.0,0.0,0.0,0.0,0.0,0.0,0.0,0.0,0.0,0.0,0.0,0.0,0.0,-3.4299,-3.4299,-3.4374,-3.4424,-3.4424,-3.4424,-3.4424,-3.4424,-3.4424,-3.4424,-3.4449,-3.4525,-3.4831,-3.5382,-3.5881,-3.6229,-3.6405,-3.6405,-3.6405,-3.6405,-3.6405,-3.6405,-3.6405,-3.6405,-3.6681,-3.7061,-3.7161,-3.7462,-3.7939,0.0,0.0,0.0,0.0,0.0,0.0,0.0,0.0,0.0,0.0,0.0,0.0,0.0,0.0,0.0,0.0,0.0,0.0,-1.2041,0.0,0.0,-1.2709,-1.2762,-1.2826,-1.2896,-1.3042,-1.3179,-1.3315,0.0,0.0,0.0,0.0,0.0,-1.5718,0.0,0.0,-1.6425,-1.5437,-1.5567,-1.64,-1.5412,-1.5613,-1.65,-1.65,-1.617,-1.5768,-1.6245,-1.635,-1.6296,-1.6296,-1.6948,0.0,0.0,0.0,-1.7903,-1.7524,-1.7448,0.0,0.0,0.0,0.0,0.0,0.0,0.0,0.0,0.0,0.0,0.0,0.0,0.0,0.0,0.0,0.0,0.0,0.0,0.0,0.0,0.0,0.0,0.0,0.0,0.0,0.0,0.0,0.0,0.0,-3.2842,-3.2541,-3.2541,-3.3018,-3.3294,-3.3294,-3.3294,-3.3294,-3.3294,-3.3294,-3.3294,-3.3294,-3.3771,-3.4299,-3.4781,-3.4901,-3.5454,-3.6405,-3.6405,-3.6405,-3.6405,-3.6405,-3.6405,-3.6405,-3.6405,-3.6455,-3.6581,-3.701,-3.7236,-3.7362,0.0,0.0,0.0,0.0,0.0,0.0,0.0,0.0,0.0,0.0,0.0,0.0,0.0,0.0,0.0,-1.1063,-1.1801,-1.2282,-1.233,-1.2571,-1.2709,-1.2709,-1.2762,-1.2826,-1.2896,-1.3042,-1.3129,0.0,0.0,0.0,0.0,-1.6346,-1.6798,0.0,0.0,0.0,0.0,0.0,0.0,-1.6475,-1.6346,0.0,0.0,-1.7225,-1.7124,-1.6722,-1.7275,-1.7428,-1.7428,-1.7428,-1.7576,-1.7702,-1.7473,0.0,0.0,0.0,-1.7124,0.0,0.0,0.0,0.0,0.0,0.0,0.0,0.0,0.0,0.0,0.0,0.0,0.0,0.0,0.0,0.0,0.0,0.0,0.0,0.0,0.0,0.0,0.0,0.0,0.0,0.0,0.0,0.0,0.0,-3.1888,-3.1763,-3.1763,-3.1989,-3.2139,-3.2139,-3.2139,-3.2139,-3.2139,-3.2139,-3.2139,-3.2139,-3.2692,-3.3244,-3.3796,-3.4123,-3.47,-3.5454,-3.578,-3.5906,-3.5931,-3.6279,-3.6405,-3.6405,-3.6405,-3.6405,-3.643,-3.6681,-3.6782,-3.6857,0.0,0.0,0.0,0.0,0.0,0.0,0.0,0.0,0.0,0.0,0.0,0.0,0.0,0.0,0.0,0.0,-1.1752,-1.2065,-1.2451,-1.2619,-1.2709,-1.2709,-1.2762,-1.2808,-1.2861,-1.3025,0.0,0.0,0.0,0.0,-1.5718,-1.687,-1.7752,0.0,-1.8405,0.0,0.0,0.0,0.0,0.0,0.0,0.0,0.0,0.0,-1.7526,-1.725,-1.7953,-1.8204,-1.8229,-1.838,-1.8053,-1.7599,-1.7599,-1.72,0.0,0.0,0.0,0.0,0.0,0.0,0.0,0.0,0.0,0.0,0.0,0.0,0.0,0.0,0.0,0.0,0.0,0.0,0.0,0.0,0.0,0.0,0.0,0.0,0.0,0.0,0.0,0.0,0.0,0.0,0.0,0.0,-3.1185,-3.1135,-3.0984,-3.1235,-3.126,-3.0984,-3.111,-3.1135,-3.0984,-3.1135,-3.1185,-3.121,-3.1738,-3.224,-3.2709,-3.3219,-3.3696,-3.4123,-3.4931,-3.5282,-3.5332,-3.5931,-3.6157,-3.6182,-3.6355,-3.6405,-3.6405,-3.6405,-3.6405,-3.6455,0.0,0.0,0.0,0.0,0.0,0.0,0.0,0.0,0.0,0.0,0.0,0.0,-1.0918,-1.1039,-1.1487,-1.254,-1.2186,-1.1921,-1.1945,-1.2403,-1.2709,-1.2709,-1.2762,0.0,-1.2815,-1.299,0.0,0.0,0.0,0.0,-1.5718,-1.687,-1.7953,-1.8958,-1.8958,-1.838,-1.7373,0.0,0.0,0.0,0.0,0.0,0.0,0.0,0.0,0.0,0.0,-1.8204,-1.8279,-1.8782,-1.8581,-1.8154,-1.8154,-1.7777,-1.7448,0.0,0.0,0.0,0.0,0.0,0.0,0.0,0.0,0.0,0.0,0.0,0.0,0.0,0.0,0.0,0.0,0.0,0.0,0.0,0.0,0.0,0.0,0.0,0.0,0.0,0.0,0.0,0.0,0.0,0.0,0.0,-3.0658,-3.0432,-2.9905,-3.0834,-3.0934,-2.9905,-3.0382,-3.0407,-2.988,-3.0407,-3.0658,-3.0658,-3.1185,-3.1461,-3.1486,-3.2039,-3.2315,-3.2441,-3.4073,-3.4731,-3.4756,-3.5307,-3.5533,-3.5583,-3.6157,-3.6405,-3.6405,-3.6405,-3.6405,-3.6405,0.0,0.0,0.0,0.0,0.0,0.0,0.0,0.0,0.0,0.0,0.0,0.0,0.0,-1.1207,-1.1776,-1.2162,-1.233,-1.2403,-1.2403,-1.2595,-1.2709,-1.2709,-1.2762,-1.2815,-1.2815,0.0,0.0,0.0,0.0,-1.3795,-1.5087,-1.6274,-1.7049,-1.7428,-1.8531,-1.8606,-1.7852,-1.6901,0.0,0.0,0.0,0.0,0.0,0.0,0.0,0.0,0.0,0.0,0.0,-2.0413,-1.9761,-1.8757,-1.9133,-1.838,-1.7551,-1.848,-1.8229,0.0,0.0,0.0,0.0,0.0,0.0,0.0,0.0,0.0,0.0,0.0,0.0,0.0,0.0,0.0,0.0,0.0,0.0,0.0,0.0,0.0,0.0,0.0,0.0,0.0,0.0,0.0,0.0,0.0,0.0,-3.0005,-2.9804,-3.0156,-3.0181,-2.9804,-2.998,-2.998,-2.9804,-2.998,-3.008,-3.0105,-3.0633,-3.0884,-3.0909,-3.1436,-3.1863,-3.224,-3.2842,-3.352,-3.4248,-3.5132,-3.5282,-3.5056,-3.6006,-3.6132,-3.5881,-3.6279,-3.6405,-3.6405,0.0,0.0,0.0,0.0,0.0,0.0,0.0,0.0,0.0,0.0,0.0,0.0,0.0,0.0,-1.1897,-1.1897,-1.2379,-1.2619,-1.2427,-1.2595,-1.2709,-1.2709,-1.2745,-1.278,-1.278,0.0,0.0,0.0,0.0,0.0,0.0,-1.5752,-1.6446,-1.6873,-1.8155,-1.8431,0.0,0.0,0.0,-1.6848,0.0,0.0,-1.6999,0.0,0.0,0.0,0.0,0.0,0.0,0.0,-2.0665,-1.9384,-2.0137,-1.9359,-1.8329,-1.9083,-1.8656,0.0,0.0,0.0,0.0,0.0,0.0,0.0,0.0,0.0,0.0,0.0,0.0,0.0,0.0,0.0,0.0,0.0,0.0,0.0,0.0,0.0,0.0,0.0,0.0,0.0,0.0,0.0,0.0,0.0,0.0,0.0,-2.9503,-2.9503,-2.9603,-2.9779,-2.9804,-2.9804,-2.9804,-2.9804,-2.9804,-2.9804,-3.0156,-3.0331,-3.0357,-3.0884,-3.1336,-3.1687,-3.2064,-3.2742,-3.3696,-3.458,-3.4731,-3.455,-3.5655,-3.5855,-3.5558,-3.6157,-3.6405,-3.6405,0.0,0.0,0.0,0.0,0.0,0.0,0.0,0.0,0.0,-1.0269,0.0,0.0,0.0,0.0,0.0,-1.1921,-1.2403,-1.2475,-1.1969,-1.2403,-1.2709,-1.2709,-1.2709,-1.2709,-1.2716,0.0,0.0,0.0,0.0,0.0,0.0,0.0,-1.6271,-1.735,-1.7877,-1.7827,-1.7373,0.0,-1.7423,-1.7398,0.0,-1.7448,-1.77,0.0,0.0,0.0,-2.1945,-2.2347,0.0,-2.2372,0.0,0.0,0.0,0.0,-1.9811,-1.9811,0.0,0.0,0.0,0.0,0.0,0.0,0.0,0.0,0.0,0.0,0.0,0.0,0.0,0.0,0.0,0.0,0.0,0.0,0.0,0.0,0.0,0.0,0.0,0.0,0.0,0.0,0.0,0.0,0.0,0.0,-2.8097,-2.8348,-2.8838,-2.8863,-2.9139,-2.9754,-2.9754,-2.9779,-2.9804,-2.9804,-2.9804,-2.9804,-2.9804,-2.9804,-2.9804,-3.0357,-3.0608,-3.0683,-3.1712,-3.2491,-3.3136,-3.3671,-3.3897,-3.3997,-3.5056,-3.5483,-3.5533,-3.6157,-3.6405,-3.6405,0.0,0.0,0.0,0.0,0.0,0.0,-1.0002,-1.037,-1.0702,0.0,0.0,0.0,-1.1873,-1.2234,-1.2475,-1.2475,-1.2595,-1.2637,-1.2475,-1.2619,-1.2709,-1.2709,-1.2709,-1.2878,-1.3264,0.0,0.0,0.0,0.0,0.0,0.0,0.0,0.0,0.0,-1.6214,-1.6479,-1.6798,-1.7626,0.0,0.0,-1.8254,-1.8556,0.0,0.0,0.0,0.0,0.0,-2.3145,-2.3527,0.0,-2.2422,-2.0865,0.0,0.0,0.0,0.0,0.0,0.0,-1.9459,0.0,0.0,0.0,0.0,0.0,0.0,0.0,0.0,0.0,0.0,0.0,0.0,0.0,0.0,0.0,0.0,0.0,0.0,0.0,0.0,0.0,0.0,0.0,0.0,0.0,0.0,0.0,-2.8097,-2.8172,-2.8323,-2.8323,-2.8599,-2.9113,-2.9139,-2.9377,-2.9804,-2.9804,-2.9804,-2.9804,-2.9804,-2.9804,-2.9804,-2.9955,-3.0231,-3.0633,-3.0934,-3.1587,-3.2516,-3.3495,-3.3671,-3.3445,-3.4906,-3.5257,-3.5031,-3.6006,-3.6405,-3.6405,0.0,0.0,0.0,0.0,0.0,0.0,-1.0496,-1.1025,-1.1423,0.0,0.0,0.0,-1.2516,-1.3047,-1.336,-1.336,-1.3168,-1.3047,-1.3047,-1.2812,-1.2709,-1.2709,-1.2709,-1.2854,-1.3168,0.0,0.0,0.0,0.0,0.0,0.0,0.0,0.0,0.0,0.0,0.0,0.0,0.0,0.0,0.0,-1.8179,0.0,0.0,-2.1091,-2.2046,0.0,0.0,0.0,-2.5259,-2.4582,-2.3527,0.0,0.0,0.0,0.0,0.0,0.0,0.0,0.0,0.0,0.0,0.0,0.0,0.0,-1.7626,-1.8053,0.0,0.0,0.0,0.0,0.0,0.0,0.0,0.0,0.0,0.0,0.0,0.0,0.0,0.0,0.0,0.0,0.0,-2.6866,-2.7168,-2.7394,-2.7419,-2.7519,-2.7745,-2.7971,-2.8247,-2.8574,-2.8762,-2.9063,-2.9428,-2.9679,-2.9804,-2.9804,-2.9804,-2.9804,-2.9804,-2.9804,-2.9955,-3.0281,-3.0507,-3.1085,-3.1938,-3.2817,-3.3144,-3.3262,-3.465,-3.4956,-3.4851,-3.6003,-3.6405,-3.6405,0.0,0.0,0.0,-1.0029,-1.0734,-1.1169,-1.1184,-1.1687,-1.209,0.0,-1.2162,-1.2523,-1.3481,-1.4012,-1.4321,-1.4321,-1.3867,-1.3577,-1.3577,-1.3143,-1.2878,-1.2878,-1.2878,-1.2884,-1.2957,-1.2884,0.0,0.0,0.0,0.0,0.0,0.0,0.0,0.0,0.0,0.0,0.0,0.0,0.0,-1.8307,-1.7955,-1.8757,0.0,0.0,-2.3496,-2.428,-2.5795,-2.6675,-2.6841,-2.5184,-2.4274,0.0,0.0,0.0,0.0,0.0,-1.9133,0.0,0.0,0.0,0.0,0.0,0.0,0.0,-1.8003,-1.7777,-1.7677,0.0,0.0,0.0,0.0,0.0,0.0,0.0,0.0,0.0,0.0,0.0,0.0,0.0,0.0,0.0,-2.536,-2.541,-2.5661,-2.6273,-2.6373,-2.6625,-2.7067,-2.762,-2.7946,-2.8021,-2.8461,-2.8762,-2.8888,-2.9428,-2.9729,-2.9804,-2.9804,-2.9804,-2.9804,-2.9804,-2.9804,-2.9829,-3.0306,-3.0859,-3.1436,-3.1913,-3.2491,-3.3194,-3.4223,-3.4675,-3.4851,-3.5881,-3.6355,-3.6405,0.0,0.0,0.0,-1.1168,-1.1832,-1.2377,-1.292,-1.3101,-1.3336,-1.377,0.0,0.0,0.0,-1.4248,-1.4321,-1.4321,-1.4205,-1.4132,-1.4132,-1.4055,-1.3987,-1.3987,-1.3987,-1.4161,-1.4533,-1.4185,-1.4161,0.0,0.0,0.0,0.0,0.0,0.0,0.0,0.0,0.0,0.0,0.0,0.0,-1.9252,-2.0176,0.0,-2.2342,-2.2885,-2.3747,-2.4707,-2.5034,-2.5485,-2.5661,-2.3998,-2.3371,-2.2945,0.0,0.0,0.0,-2.0691,0.0,0.0,0.0,0.0,0.0,0.0,0.0,0.0,-1.8254,-1.7777,-1.7576,0.0,0.0,0.0,0.0,0.0,0.0,0.0,0.0,0.0,0.0,0.0,0.0,0.0,0.0,0.0,-2.4205,-2.4305,-2.4531,-2.5109,-2.5536,-2.5812,-2.5912,-2.6499,-2.7027,-2.7419,-2.7544,-2.8021,-2.8888,-2.9013,-2.9327,-2.9804,-2.9804,-2.9804,-2.9804,-2.9804,-2.9804,-2.9804,-2.9905,-3.0507,-3.1411,-3.1512,-3.2164,-3.3144,-3.3796,-3.4324,-3.4756,-3.5408,-3.5981,-3.6405,0.0,0.0,0.0,-1.175,-1.2484,-1.3079,-1.3626,-1.4014,0.0,0.0,0.0,0.0,0.0,0.0,-1.5055,-1.5055,-1.479,-1.4646,-1.4646,-1.4446,-1.4321,-1.4321,-1.4321,-1.4422,-1.4646,-1.4422,-1.4422,-1.4646,0.0,0.0,0.0,0.0,0.0,0.0,0.0,0.0,0.0,0.0,-1.8286,-1.9989,-1.9668,0.0,-2.1996,-2.2328,-2.2978,-2.3828,-2.4375,-2.4581,-2.4528,-2.3822,-2.3346,0.0,-2.1845,-2.1493,-2.1471,0.0,-2.0288,-1.9384,0.0,0.0,0.0,-1.9008,0.0,0.0,0.0,-1.7777,-1.7549,0.0,0.0,0.0,0.0,0.0,0.0,0.0,0.0,0.0,0.0,0.0,0.0,0.0,0.0,0.0,-2.3075,-2.315,-2.3502,-2.4356,-2.5159,-2.5586,-2.5586,-2.6172,-2.6625,-2.6901,-2.7178,-2.7544,-2.8097,-2.8373,-2.88,-2.9352,-2.9352,-2.9528,-2.9804,-2.9804,-2.9804,-2.9804,-2.9804,-3.0256,-3.1009,-3.1286,-3.1888,-3.2717,-3.3571,-3.4248,-3.4731,-3.5282,-3.5881,-3.6405,0.0,0.0,0.0,-1.2204,-1.2972,-1.3587,-1.4028,-1.4621,0.0,0.0,0.0,0.0,0.0,0.0,0.0,0.0,-1.5636,-1.5253,-1.5444,-1.4911,-1.459,-1.459,-1.459,-1.459,-1.459,-1.459,-1.459,-1.459,0.0,0.0,0.0,0.0,0.0,0.0,0.0,0.0,0.0,0.0,0.0,-2.0494,0.0,-1.9538,-2.1354,-2.1829,-2.2297,-2.2844,-2.3828,-2.4016,-2.3846,-2.3967,-2.3797,-2.336,-2.2569,-2.2146,0.0,0.0,0.0,0.0,0.0,0.0,0.0,0.0,0.0,-1.8631,0.0,0.0,0.0,0.0,0.0,0.0,0.0,0.0,0.0,0.0,0.0,0.0,0.0,0.0,0.0,0.0,0.0,0.0,0.0,-2.202,-2.2573,-2.3602,-2.4582,-2.5184,-2.5285,-2.5971,-2.6323,-2.6323,-2.6876,-2.7203,-2.7293,-2.7821,-2.8373,-2.8888,-2.9013,-2.9352,-2.9804,-2.9804,-2.9804,-2.9804,-2.9804,-3.0105,-3.0658,-3.106,-3.1612,-3.2315,-3.3345,-3.4073,-3.4625,-3.5132,-3.573,-3.6254,-1.116,-1.1234,0.0,0.0,-1.3556,-1.4136,-1.4782,-1.4944,0.0,0.0,0.0,0.0,0.0,0.0,0.0,0.0,0.0,0.0,-1.7051,0.0,-1.5634,-1.5634,-1.5634,-1.5634,-1.5634,-1.5634,-1.5634,-1.5634,0.0,0.0,0.0,0.0,0.0,0.0,-1.77,0.0,0.0,0.0,-1.9146,0.0,-2.0374,-2.1117,0.0,-2.2658,-2.2738,-2.2794,-2.3511,-2.3974,-2.4238,0.0,-2.4478,-2.4723,0.0,-2.2949,-2.3326,-2.137,0.0,0.0,0.0,0.0,0.0,0.0,-2.0088,0.0,0.0,0.0,-1.8556,-1.7652,0.0,0.0,0.0,0.0,0.0,0.0,0.0,0.0,0.0,0.0,0.0,0.0,0.0,0.0,0.0,-2.0991,-2.1845,-2.2447,-2.3045,-2.3622,-2.4155,-2.5134,-2.5686,-2.5686,-2.6273,-2.6826,-2.7304,-2.7821,-2.8373,-2.8888,-2.9453,-2.9729,-2.9804,-2.9804,-2.9804,-2.9804,-2.9804,-3.0105,-3.0593,-3.0683,-3.1311,-3.2265,-3.2918,-3.3495,-3.4048,-3.458,-3.5132,-3.5658,-1.1657,-1.1756,0.0,0.0,-1.3314,-1.3812,-1.468,-1.5976,0.0,0.0,0.0,0.0,0.0,0.0,0.0,0.0,0.0,-1.7652,0.0,0.0,0.0,-1.7628,-1.6475,-1.6259,-1.7171,-1.6595,-1.6427,-1.6739,-1.6955,0.0,0.0,0.0,0.0,0.0,-1.7412,0.0,-1.7339,0.0,-1.9338,0.0,0.0,0.0,0.0,-2.211,-2.2475,-2.2517,-2.3154,-2.3333,-2.3259,0.0,-2.386,0.0,0.0,0.0,0.0,-2.2272,0.0,0.0,0.0,0.0,0.0,0.0,0.0,0.0,-1.9259,0.0,-1.8028,0.0,0.0,0.0,0.0,0.0,0.0,0.0,-1.6296,0.0,0.0,0.0,0.0,0.0,0.0,0.0,0.0,0.0,0.0,0.0,-2.1942,-2.2774,-2.3,-2.4381,-2.5285,-2.5586,-2.5871,-2.6273,-2.6826,-2.7379,-2.7921,-2.8448,-2.9026,-2.9478,-2.9804,-2.9804,-2.9804,-2.9804,-2.9804,-2.993,-3.0156,-3.0482,-3.0884,-3.1361,-3.224,-3.3119,-3.3922,-3.4148,-3.4756,-3.5533,-1.1972,0.0,0.0,0.0,0.0,0.0,-1.4971,0.0,0.0,0.0,0.0,0.0,-2.035,-1.9624,0.0,0.0,-2.0394,-1.9408,0.0,0.0,-1.7652,0.0,0.0,0.0,-1.7748,-1.7291,-1.7075,-1.7171,-1.7484,0.0,0.0,0.0,0.0,0.0,0.0,-1.758,-1.758,0.0,0.0,-1.9989,-2.1257,-2.1257,-2.0591,-2.1572,-2.2077,-2.2277,-2.2795,-2.2802,-2.2705,-2.3564,-2.3652,0.0,-2.424,0.0,-2.3,0.0,0.0,0.0,-2.1043,0.0,0.0,0.0,0.0,0.0,0.0,0.0,0.0,0.0,0.0,0.0,0.0,0.0,0.0,0.0,0.0,-1.5643,0.0,0.0,0.0,0.0,0.0,0.0,0.0,0.0,0.0,-1.9334,-2.0489,-2.1443,-2.2046,-2.3376,-2.4456,-2.5134,-2.5435,-2.5787,-2.6248,-2.7128,-2.7645,-2.7896,-2.8562,-2.9151,-2.9553,-2.9553,-2.9654,-2.9804,-2.9804,-2.9804,-2.9829,-3.0231,-3.0482,-3.0683,-3.1461,-3.2466,-3.347,-3.3771,-3.4399,-3.5082,-1.2095,-1.2095,0.0,0.0,0.0,0.0,0.0,0.0,0.0,0.0,0.0,0.0,0.0,0.0,0.0,0.0,0.0,-2.1308,-2.1356,0.0,-1.847,0.0,0.0,-1.7651,0.0,-1.7652,-1.7652,-1.6619,-1.7676,0.0,0.0,0.0,0.0,0.0,0.0,-1.8734,-1.97,-1.9772,-2.0711,-2.2101,-2.2149,-2.2149,-2.2077,0.0,-2.174,-2.2228,-2.2383,0.0,0.0,-2.3994,-2.4483,0.0,0.0,0.0,0.0,0.0,0.0,0.0,0.0,0.0,0.0,-2.1594,0.0,0.0,0.0,0.0,-2.0138,0.0,0.0,0.0,0.0,0.0,0.0,0.0,0.0,0.0,0.0,0.0,0.0,0.0,0.0,0.0,0.0,0.0,0.0,-1.8204,-1.8304,-1.9258,-2.1393,-2.2071,-2.2899,-2.4029,-2.5059,-2.5611,-2.5611,-2.7268,-2.7821,-2.7318,-2.8423,-2.8888,-2.8913,-2.8913,-2.9277,-2.9804,-2.9804,-2.9804,-2.9804,-2.9804,-3.0131,-3.0608,-3.0658,-3.1311,-3.239,-3.3495,-3.3922,-3.4022,0.0,0.0,0.0,0.0,0.0,0.0,0.0,-1.7312,0.0,0.0,0.0,0.0,0.0,-2.5035,-2.53,0.0,0.0,-2.3977,-2.3977,-2.2173,0.0,0.0,0.0,-1.9624,0.0,0.0,-1.8734,-1.7676,0.0,0.0,0.0,0.0,0.0,0.0,0.0,-1.8277,0.0,0.0,0.0,0.0,0.0,-2.1578,-2.2173,0.0,-2.2029,-2.2246,-2.2645,-2.2669,0.0,-2.332,-2.3644,-2.3717,-2.3536,-2.3501,-2.336,-2.2485,-2.2337,-2.2406,0.0,0.0,-2.3387,-2.2616,0.0,0.0,0.0,0.0,0.0,0.0,0.0,0.0,0.0,0.0,0.0,0.0,0.0,0.0,0.0,0.0,0.0,0.0,0.0,0.0,0.0,0.0,0.0,-1.7027,-1.7777,-1.8832,-2.0288,-2.1267,-2.2447,-2.3954,-2.4707,-2.5259,-2.5586,-2.6892,-2.7645,-2.7846,-2.8574,-2.9126,-2.9503,-2.9503,-2.9603,-2.9804,-2.9804,-2.9804,-2.9804,-2.9804,-2.9905,-3.0131,-3.0859,-3.1361,-3.1763,-3.2516,-3.3269,-3.3972,-1.2353,0.0,0.0,0.0,0.0,0.0,0.0,0.0,0.0,0.0,-2.3075,0.0,-2.7086,0.0,-2.7464,0.0,-2.7368,-2.6117,-2.5348,-2.4049,0.0,-2.2727,-2.1909,0.0,0.0,0.0,0.0,0.0,0.0,-1.8253,0.0,0.0,0.0,0.0,0.0,0.0,-1.9338,0.0,-2.0177,0.0,0.0,-2.1313,0.0,0.0,-2.2149,-2.2486,0.0,-2.2486,-2.2301,-2.2926,-2.3127,-2.3159,-2.3254,-2.322,-2.3025,-2.2696,-2.272,-2.2861,-2.2929,-2.342,0.0,-2.3257,-2.2515,0.0,-2.1306,0.0,-2.0207,0.0,0.0,0.0,0.0,0.0,0.0,0.0,0.0,0.0,0.0,-1.4317,0.0,0.0,0.0,0.0,0.0,0.0,-1.5643,-1.6195,-1.7052,-1.8329,0.0,-2.0817,-2.197,-2.3627,-2.4399,-2.4983,-2.531,-2.6615,-2.7369,-2.7519,-2.8273,-2.8825,-2.9202,-2.9402,-2.9603,-2.9804,-2.9804,-2.9804,-2.9804,-2.9804,-2.9804,-2.9854,-3.0557,-3.106,-3.1486,-3.224,-3.2968,-3.3696,0.0,0.0,0.0,0.0,-1.4534,0.0,0.0,0.0,-2.0896,0.0,-2.4164,-2.6073,-2.6705,-2.7852,-2.8787,-2.9268,-2.8835,-2.7657,-2.5564,-2.542,0.0,0.0,-2.2847,-2.2132,-1.9941,0.0,0.0,0.0,0.0,0.0,0.0,0.0,0.0,0.0,-1.8494,0.0,-1.9796,-2.0298,-2.0875,-2.1404,-2.1428,-2.1452,-2.1476,-2.1452,-2.2077,-2.2951,-2.239,-2.2197,-2.227,-2.2775,-2.2975,-2.2975,-2.2975,-2.3312,-2.3562,-2.265,-2.3482,-2.4545,-2.3707,-2.3501,-2.3526,-2.3501,-2.2659,0.0,0.0,0.0,-2.2382,0.0,0.0,0.0,0.0,0.0,0.0,0.0,0.0,0.0,0.0,0.0,0.0,0.0,0.0,0.0,0.0,-1.4237,-1.5085,-1.5643,-1.6195,-1.7727,0.0,-2.0666,-2.1446,-2.302,-2.4173,-2.48,-2.48,-2.644,-2.7027,-2.6549,-2.757,-2.8097,-2.8172,-2.8662,-2.9252,-2.9804,-2.9804,-2.9804,-2.9804,-2.9804,-2.9804,-2.9804,-2.9829,-3.0482,-3.1562,-3.2667,-3.3111,-3.3169,-1.2947,-1.4226,-1.5429,0.0,-1.6121,-1.6863,0.0,0.0,0.0,0.0,-2.5643,-2.71,-2.9018,-2.9467,-2.9581,-2.9316,-2.9172,0.0,0.0,0.0,0.0,-2.4578,-2.5011,-2.3953,-2.1043,-2.15,-2.061,-1.8205,0.0,0.0,-1.7411,0.0,0.0,0.0,0.0,0.0,-1.9191,-1.9336,-2.0177,-2.1428,-2.1837,-2.2221,-2.2566,0.0,-2.2414,-2.2951,-2.239,-2.2197,-2.2221,-2.2342,-2.239,-2.239,-2.239,-2.2486,-2.2566,-2.2332,-2.2814,-2.3425,-2.3192,-2.3418,-2.3636,-2.3352,-2.2743,-2.2165,0.0,0.0,0.0,0.0,0.0,0.0,0.0,0.0,0.0,0.0,0.0,0.0,0.0,0.0,0.0,-1.4934,0.0,0.0,0.0,-1.4374,-1.4702,-1.5618,-1.6195,-1.7528,-1.9886,0.0,0.0,-2.2468,-2.3998,-2.48,-2.48,-2.6097,-2.6851,-2.7102,-2.7344,-2.7921,-2.8687,-2.8838,-2.9252,-2.9804,-2.9804,-2.9804,-2.9804,-2.9804,-2.9804,-2.9829,-3.0256,-3.106,-3.2089,-3.2817,-3.3111,-3.3169,-1.341,0.0,0.0,-1.7787,0.0,0.0,-2.0021,-2.1172,0.0,-2.5331,-2.6628,0.0,-2.8881,-2.9463,-2.9576,-2.9052,-2.9128,0.0,-2.7621,0.0,0.0,-2.5733,-2.5709,-2.4482,-2.1813,-2.1602,0.0,-1.8542,0.0,0.0,-1.7772,0.0,0.0,0.0,0.0,-1.871,0.0,-1.9507,-2.0225,-2.1115,-2.1644,-2.2029,0.0,-2.1957,-2.2173,-2.2606,-2.2294,-2.2197,-2.2197,-2.2197,-2.2197,-2.2197,-2.2197,-2.2197,-2.2197,-2.2197,-2.2558,-2.3023,-2.3023,-2.324,-2.3384,-2.3168,-2.2909,-2.2577,-2.214,-2.2219,-2.2341,0.0,-2.1496,-2.079,0.0,0.0,0.0,0.0,0.0,0.0,0.0,0.0,0.0,0.0,-1.5537,0.0,-1.5567,-1.4702,-1.4651,-1.5944,-1.6325,-1.7601,0.0,0.0,0.0,-2.2272,-2.3954,-2.455,-2.4048,-2.5912,-2.6751,-2.654,-2.7042,-2.7745,-2.8574,-2.8787,-2.9252,-2.9804,-2.9804,-2.9804,-2.9804,-2.9804,-2.9804,-2.988,-3.0658,-3.1311,-3.1964,-3.2767,-3.3111,-3.3169,0.0,0.0,0.0,0.0,0.0,0.0,0.0,-2.3132,0.0,-2.5754,0.0,-2.8086,-2.7778,-2.8621,-2.9033,-2.8628,0.0,-2.8505,-2.7561,-2.8067,-2.7753,-2.6262,-2.5636,-2.4362,-2.2342,-2.1265,-2.0181,0.0,-1.8566,-1.8301,0.0,0.0,0.0,0.0,0.0,0.0,0.0,-2.0109,-2.0591,-2.0725,-2.1284,-2.15,-2.1524,-2.1596,-2.1885,-2.2294,-2.2294,-2.2246,-2.2197,-2.2197,-2.2197,-2.2197,-2.2197,-2.2197,-2.2197,-2.2197,-2.2558,-2.2999,-2.2927,-2.2951,-2.3023,-2.3023,-2.2951,-2.2806,-2.2522,-2.2771,-2.2972,-2.2553,-2.1775,-2.1067,-2.0788,0.0,0.0,0.0,0.0,0.0,0.0,0.0,0.0,0.0,0.0,0.0,0.0,0.0,-1.4833,-1.6375,-1.65,0.0,0.0,0.0,-2.0514,-2.2046,-2.3803,-2.4249,-2.3321,-2.5887,-2.6766,-2.5937,-2.6766,-2.7544,-2.8222,-2.8587,-2.9176,-2.9804,-2.9804,-2.9804,-2.9804,-2.9804,-2.9804,-2.988,-3.0809,-3.126,-3.1512,-3.2491,-3.2943,-3.3169,0.0,0.0,0.0,0.0,0.0,-2.3087,-2.5363,-2.5096,-2.5248,-2.6966,-2.7447,-2.783,-2.8363,-2.8281,-2.8116,-2.8045,-2.8201,0.0,0.0,0.0,0.0,-2.6777,-2.5829,-2.453,-2.2903,-2.1813,-2.073,-1.9676,-1.9119,-1.8855,-1.8855,0.0,0.0,0.0,0.0,0.0,-1.9676,-1.9868,0.0,-2.1308,-2.1837,-2.2053,-2.2101,-2.2534,-2.2782,-2.2879,-2.2879,-2.2558,-2.2197,-2.2197,-2.2197,-2.2197,-2.2197,-2.2197,-2.2197,-2.2197,-2.2558,-2.2895,-2.2462,-2.2654,-2.3023,-2.3023,-2.2686,-2.2445,-2.2806,-2.2645,-2.2476,-2.2838,-2.2404,-2.1856,-2.148,0.0,0.0,0.0,0.0,0.0,0.0,0.0,0.0,0.0,0.0,-1.6898,0.0,0.0,0.0,0.0,0.0,0.0,0.0,0.0,-2.0162,0.0,-2.3025,0.0,0.0,0.0,-2.7002,-2.7645,-2.6977,-2.7369,-2.8737,-2.8423,-2.8825,-2.9804,-2.9804,-2.9804,-2.9804,-2.9804,-2.9804,-2.9804,-3.0005,-3.0608,-3.1411,-3.1612,-3.2265,-3.3169,0.0,0.0,0.0,0.0,0.0,0.0,0.0,-2.6313,-2.672,-2.7261,-2.714,-2.7111,-2.7487,-2.7534,-2.7557,-2.7557,-2.7696,-2.7857,-2.7857,-2.764,-2.7334,-2.6771,-2.5565,-2.429,-2.3047,-2.1957,-2.0875,-1.9796,-1.9555,-1.9263,-1.8999,0.0,0.0,0.0,0.0,-1.9579,0.0,0.0,0.0,-2.1476,-2.227,-2.2606,-2.2654,-2.3216,-2.3433,-2.3433,-2.3433,-2.3264,-2.2999,-2.2702,-2.2414,-2.2246,-2.251,-2.2414,-2.2197,-2.2197,-2.2366,-2.251,-2.227,-2.239,-2.2614,-2.2614,-2.239,-2.227,-2.251,-2.2582,-2.2606,-2.2582,-2.2582,-2.2301,-2.1276,-2.0131,0.0,0.0,0.0,0.0,0.0,0.0,-1.7945,0.0,0.0,0.0,0.0,0.0,0.0,0.0,0.0,-1.7677,-1.9334,0.0,-1.9911,0.0,0.0,0.0,-2.3496,0.0,-2.7017,-2.6414,-2.7017,-2.772,-2.8499,-2.8524,-2.9001,-2.9804,-2.9804,-2.9804,-2.9804,-2.9804,-2.9804,-2.9829,-3.0105,-3.0532,-3.106,-3.1612,-3.2164,-3.2717,0.0,-1.8984,0.0,0.0,-2.3475,0.0,-2.5633,-2.6925,-2.7759,-2.7575,-2.7001,-2.6697,-2.6812,-2.7047,-2.719,-2.719,-2.7371,-2.7464,-2.7371,-2.7239,-2.6913,-2.6391,-2.4992,-2.3843,-2.3062,-2.1889,-2.0883,-2.0073,-1.9861,-1.9549,-1.9167,0.0,0.0,0.0,0.0,0.0,0.0,0.0,-2.1644,-2.1813,-2.2686,-2.3023,-2.3071,-2.3481,-2.3625,-2.3625,-2.3625,-2.3625,-2.3577,-2.3288,-2.2903,-2.2582,-2.2895,-2.2775,-2.2486,-2.227,-2.2342,-2.2486,-2.2246,-2.227,-2.2366,-2.2366,-2.227,-2.2221,-2.2342,-2.2606,-2.2702,-2.227,-2.2534,-2.2438,-2.1187,-2.0841,0.0,0.0,0.0,0.0,0.0,0.0,0.0,0.0,0.0,0.0,-1.8412,0.0,0.0,0.0,0.0,-1.8204,-1.971,-1.9284,-1.971,0.0,0.0,-2.3296,-2.2614,0.0,-2.6907,-2.5645,-2.7183,-2.8122,-2.8473,-2.8775,-2.9252,-2.9804,-2.9804,-2.9804,-2.9804,-2.9804,-2.9804,-2.9854,-3.0407,-3.0683,-3.0909,-3.1863,-3.229,-3.2466,0.0,0.0,0.0,0.0,0.0,0.0,-2.5705,-2.6629,-2.7557,-2.8448,-2.7736,-2.7323,-2.7782,-2.7461,-2.719,-2.719,-2.7371,-2.7325,-2.6883,-2.6605,-2.6203,-2.5722,-2.4154,-2.326,-2.3166,-2.1714,-2.0972,-2.0968,-1.9994,-1.9606,0.0,0.0,0.0,0.0,0.0,0.0,0.0,-2.1861,-2.239,-2.2879,-2.2975,-2.3023,-2.3023,-2.3071,-2.3095,-2.3095,-2.3095,-2.3095,-2.3144,-2.3577,-2.3697,-2.3577,-2.3144,-2.3312,-2.3457,-2.2486,-2.2903,-2.3457,-2.2462,-2.2534,-2.2951,-2.2951,-2.2558,-2.2318,-2.2799,-2.2614,-2.2246,-2.2197,-2.2221,-2.2221,-2.2077,-2.126,-2.0249,0.0,0.0,0.0,0.0,0.0,-1.8697,-1.7725,0.0,0.0,-1.7776,-1.7333,0.0,0.0,-1.8286,-1.8631,-1.9736,-1.9284,-1.956,-2.0742,-2.187,-2.281,-2.3555,-2.5094,-2.6671,-2.8325,-2.7673,-2.8147,-2.9603,-2.9151,-2.9252,-2.9804,-2.9804,-2.9804,-2.9804,-2.9804,-2.9804,-2.9854,-3.0407,-3.0909,-3.1386,-3.1989,-3.2541,-3.2993,0.0,0.0,0.0,0.0,0.0,0.0,0.0,-2.538,-2.6044,-2.6152,-2.6797,-2.7259,-2.7506,-2.7305,-2.719,-2.719,-2.7272,-2.7123,-2.6655,-2.6302,-2.5765,-2.4985,-2.3815,-2.3062,-2.278,-2.1839,-2.1259,0.0,0.0,0.0,-2.0084,0.0,0.0,0.0,0.0,-2.1644,-2.239,-2.2919,-2.3288,-2.3505,-2.3785,-2.3713,-2.3529,-2.3785,-2.3713,-2.3481,-2.3481,-2.3481,-2.3529,-2.3722,-2.3384,-2.2927,-2.336,-2.3192,-2.2782,-2.2318,-2.2486,-2.2758,-2.2318,-2.2342,-2.2582,-2.2927,-2.2582,-2.2342,-2.2903,-2.2823,-2.2582,-2.227,-2.2197,-2.2197,-2.2197,-2.1837,-2.1211,-2.0129,0.0,0.0,0.0,0.0,0.0,-1.7628,0.0,-1.9127,0.0,0.0,0.0,0.0,0.0,-1.8784,-1.9527,-1.965,-2.0124,-2.1031,0.0,-2.2928,-2.3672,-2.5054,-2.6253,-2.7218,-2.7839,-2.8512,-2.9239,-2.9224,-2.9336,-2.956,-2.974,-2.9804,-2.9804,-2.9804,-2.9804,-2.9854,-3.0407,-3.0733,-3.1035,-3.1888,-3.2365,-3.2616,-1.9989,0.0,-2.0878,0.0,-2.252,-2.3509,-2.3509,-2.4358,-2.4883,-2.4529,-2.5611,-2.6509,-2.6757,-2.7044,-2.7108,-2.6798,-2.6662,-2.6409,-2.5888,-2.5529,-2.4989,-2.4196,-2.3456,0.0,-2.2344,-2.1829,-2.1393,-2.1049,-2.0764,0.0,0.0,0.0,0.0,0.0,-2.2214,-2.2727,-2.3288,-2.3794,-2.4035,-2.4025,-2.4386,-2.4314,-2.4001,-2.4049,-2.3857,-2.3553,-2.3384,-2.3336,-2.336,-2.3529,-2.2975,-2.2342,-2.3288,-2.3384,-2.3015,-2.2558,-2.263,-2.2823,-2.251,-2.2534,-2.2678,-2.2727,-2.2582,-2.2486,-2.2702,-2.2751,-2.2686,-2.227,-2.2197,-2.2197,-2.2197,-2.2197,-2.1837,-2.075,0.0,0.0,0.0,-1.9119,0.0,-1.7411,-1.8446,-1.8951,-1.8061,-1.8065,0.0,0.0,0.0,-1.8973,-1.9591,-1.9836,-2.0333,0.0,0.0,0.0,-2.3793,-2.5059,-2.6019,-2.6755,-2.804,-2.8774,-2.9063,-2.9283,-2.9419,-2.9419,-2.9521,-2.9624,-2.9702,-2.9624,-2.9724,-3.0002,-3.0553,-3.0879,-3.1145,-3.2031,-3.2423,-3.2516,-2.1577,-2.1668,-2.1713,-2.1668,-2.2492,-2.3086,-2.3086,-2.3887,-2.4509,-2.4488,-2.4531,-2.4872,-2.5694,-2.6652,-2.6839,-2.5902,-2.5445,-2.4964,-2.4381,-2.394,-2.3623,0.0,0.0,-2.2455,-2.1917,-2.1454,-2.1273,-2.1376,0.0,0.0,-2.1588,0.0,-2.2155,-2.2686,-2.2903,-2.3288,-2.3818,-2.429,-2.4472,-2.4472,-2.4496,-2.4496,-2.4386,-2.3376,-2.2991,-2.2919,-2.239,-2.2221,-2.2294,-2.2823,-2.263,-2.2294,-2.2855,-2.4049,-2.4963,-2.3424,-2.3688,-2.4266,-2.3256,-2.3384,-2.3529,-2.2462,-2.2582,-2.2847,-2.2318,-2.2197,-2.2197,-2.2197,-2.2197,-2.2197,-2.2197,-2.2197,-2.1837,-2.075,0.0,0.0,0.0,-1.8782,0.0,-1.6859,-1.758,-1.8013,-1.7459,-1.7387,0.0,0.0,0.0,0.0,0.0,0.0,0.0,-2.0965,-2.1014,0.0,-2.3976,-2.4728,-2.6075,-2.7964,-2.8409,-2.8897,-2.9419,-2.9419,-2.9419,-2.938,-2.9209,-2.9248,-2.938,-2.9209,-2.9569,-3.0353,-3.086,-3.1531,-3.2223,-3.2585,-3.2853,-3.3068,-2.1614,-2.1687,-2.1687,-2.1687,-2.1954,-2.2157,-2.2157,-2.2378,-2.2599,-2.2599,-2.3149,-2.3651,-2.3953,-2.4787,-2.5125,0.0,-2.4365,-2.3963,0.0,-2.3457,-2.3222,-2.216,-2.248,-2.2305,-2.1422,-2.127,-2.1233,-2.1242,0.0,0.0,0.0,-2.2601,-2.3124,-2.3813,-2.3881,-2.4236,-2.4819,-2.4987,-2.5059,-2.5059,-2.5059,-2.4626,-2.4011,-2.3673,-2.3095,-2.2414,-2.2246,-2.2197,-2.2221,-2.239,-2.2558,-2.2702,-2.251,-2.2775,-2.3087,-2.2582,-2.2678,-2.2871,-2.2534,-2.2855,-2.3192,-2.2823,-2.2847,-2.2975,-2.2775,-2.2462,-2.2197,-2.2197,-2.2197,-2.2197,-2.2197,-2.2197,-2.1837,-2.075,-2.0923,0.0,-1.8253,0.0,-1.9552,-1.7387,-1.8422,-1.9071,-1.8542,-1.8806,0.0,0.0,0.0,0.0,0.0,0.0,0.0,0.0,-2.3086,0.0,-2.563,-2.5729,-2.653,-2.7989,-2.8104,-2.8474,-2.8988,-2.9131,-2.9106,-2.8988,-2.9091,-2.9131,-2.9209,-2.9131,-2.945,-3.0112,-3.0819,-3.1448,-3.208,-3.2739,-3.3025,-3.3068,-2.1632,-2.1687,-2.1687,-2.1687,-2.1687,-2.1687,-2.1687,-2.1687,-2.1687,-2.1687,-2.2201,-2.258,-2.258,-2.3105,0.0,-2.3387,-2.3225,-2.2818,-2.2028,-2.2312,-2.2066,-2.1125,-2.1572,-2.1407,-2.0399,-2.0667,0.0,-2.0796,-2.1504,-2.2286,-2.3083,-2.3512,-2.3944,-2.4389,-2.446,-2.4766,-2.5218,-2.5218,-2.5253,-2.53,-2.5083,-2.4626,-2.4001,-2.3649,-2.3095,-2.2462,-2.227,-2.2197,-2.2197,-2.2197,-2.2414,-2.263,-2.2294,-2.2197,-2.2221,-2.2438,-2.263,-2.2751,-2.2566,-2.2903,-2.3216,-2.2775,-2.2855,-2.2951,-2.2758,-2.2438,-2.2197,-2.2197,-2.2197,-2.2197,-2.2197,-2.2197,-2.1981,-2.1308,-2.1308,-2.0803,-1.9047,0.0,-1.9648,0.0,0.0,0.0,0.0,-1.9796,-1.9965,0.0,0.0,0.0,0.0,0.0,-2.2163,-2.3103,-2.4011,-2.5167,-2.6553,-2.6443,-2.701,-2.8188,-2.8266,-2.8475,-2.8791,-2.8934,-2.8934,-2.8791,-2.8855,-2.8934,-2.8973,-2.9114,-2.9544,-3.0163,-3.0868,-3.1519,-3.2123,-3.2556,-3.2723,-3.281,-2.1687,-2.1687,-2.1687,-2.1687,-2.1687,-2.1687,-2.1687,-2.1687,-2.1687,-2.1687,-2.1687,-2.1687,-2.1687,-2.1687,-2.1901,-2.2333,0.0,0.0,-2.0992,-2.0683,-2.046,-2.0303,-2.0389,-1.9955,-1.9031,-1.9671,-2.0053,-2.0074,-2.1745,-2.3062,-2.4059,-2.4286,-2.4418,-2.449,-2.4693,-2.4885,-2.5076,-2.5076,-2.5182,-2.524,-2.4736,-2.4496,-2.4362,-2.34,-2.3023,-2.2903,-2.2366,-2.2197,-2.2197,-2.2197,-2.2197,-2.2197,-2.2197,-2.2197,-2.2294,-2.2775,-2.3312,-2.3577,-2.3095,-2.3336,-2.3505,-2.2438,-2.2558,-2.2799,-2.2294,-2.2197,-2.2197,-2.2197,-2.2197,-2.2197,-2.2197,-2.2173,-2.2125,-2.2125,-2.1668,-2.0923,-1.9892,-1.9796,-1.9435,0.0,0.0,0.0,-1.9916,-2.0446,-2.0759,0.0,0.0,0.0,0.0,0.0,-2.2727,-2.3216,-2.4194,-2.5457,-2.6994,-2.6994,-2.7498,-2.8522,-2.8697,-2.8791,-2.8791,-2.8791,-2.8791,-2.8752,-2.8578,-2.8618,-2.88,-2.9108,-2.968,-3.0445,-3.0931,-3.1644,-3.2356,-3.2138,-3.2181,-3.2356,0.0,0.0,-2.1687,-2.1687,-2.1687,-2.1687,-2.1687,-2.1687,-2.1687,-2.1687,-2.1687,-2.1687,-2.1687,-2.1687,-2.1482,-2.102,-2.0913,-2.054,-1.9755,-2.0215,-2.0194,-1.9515,-2.0068,-1.9955,-1.9031,-1.9177,-1.9477,-1.9868,-2.061,-2.1574,-2.2831,-2.3194,-2.374,-2.449,-2.4526,-2.467,-2.4885,-2.5028,-2.5111,-2.5147,-2.5109,-2.465,-2.3962,-2.3697,-2.3119,-2.2366,-2.2246,-2.2197,-2.2197,-2.2197,-2.2197,-2.2197,-2.2197,-2.2197,-2.2221,-2.2342,-2.2462,-2.2534,-2.2414,-2.2775,-2.3047,-2.2366,-2.2294,-2.2342,-2.2221,-2.2197,-2.2197,-2.2197,-2.2197,-2.2197,-2.2197,-2.1861,-2.1596,-2.1596,-2.0779,-1.9965,-1.9263,-1.9555,-1.9724,-1.9459,-2.061,-2.1476,-2.162,-2.2132,-2.2277,0.0,0.0,-2.324,-2.2823,-2.4723,-2.5685,-2.5372,-2.6406,-2.7306,-2.8098,-2.8138,-2.8258,-2.8522,-2.8538,-2.8578,-2.8578,-2.8578,-2.8578,-2.8578,-2.8498,-2.8538,-2.8602,-2.8643,-2.9285,-3.0211,-3.05,-3.1217,-3.2138,-3.2269,-3.2356,-3.24,-2.1687,-2.1687,-2.1687,-2.1687,-2.1687,-2.1687,-2.1687,-2.1687,-2.1687,-2.1687,-2.1522,-2.1456,-2.1456,-2.1248,-2.0882,-2.0259,-2.0369,-2.0173,-1.9347,-1.9558,-1.9393,-1.873,-1.8954,-1.8738,-1.8056,-1.8375,-1.8948,-1.9775,-2.0024,-2.0625,-2.1553,-2.1975,-2.2652,-2.351,-2.3334,-2.3776,-2.4634,-2.4394,-2.4335,-2.4361,-2.42,-2.3735,-2.3102,-2.3102,-2.2731,-2.2221,-2.2462,-2.239,-2.2166,-2.18,-2.1706,-2.1667,-2.155,-2.15,-2.1569,-2.1766,-2.1995,-2.2246,-2.2486,-2.2582,-2.2606,-2.2558,-2.2558,-2.2558,-2.2558,-2.2558,-2.2486,-2.2246,-2.2197,-2.2197,-2.2197,-2.1765,-2.1404,-2.1404,-2.0273,-1.9435,-1.936,-1.9411,-1.9696,-2.0442,-2.1524,-2.2462,-2.3183,-2.3304,-2.3457,-2.3592,-2.4145,0.0,-2.441,-2.6238,-2.6935,-2.6117,-2.7392,-2.821,-2.8522,-2.8522,-2.8522,-2.8522,-2.8522,-2.8522,-2.8522,-2.8522,-2.8522,-2.8522,-2.8522,-2.8522,-2.8522,-2.8763,-2.934,-3.0152,-3.0477,-3.11,-3.1893,-3.2025,-3.2069,-3.2069,-2.1687,-2.1687,-2.1687,-2.1687,-2.1687,-2.1687,-2.1687,-2.1687,-2.1687,-2.1687,-2.1376,-2.12,-2.12,-2.0851,-2.0448,-2.0021,-2.0223,-2.0081,-1.9256,-1.8907,-1.8504,-1.8008,-1.7678,-1.7312,-1.6908,-1.7567,-1.8409,-1.9383,-1.9471,-1.9766,-2.023,-2.0689,-2.1397,-2.2208,-2.186,-2.2616,-2.4032,-2.3364,-2.3158,-2.3224,-2.2861,-2.2523,-2.2181,-2.2181,-2.2113,-2.2084,-2.2565,-2.2376,-2.1887,-2.1238,-2.1047,-2.0986,-2.0764,-2.0694,-2.0781,-2.1281,-2.1675,-2.2131,-2.275,-2.2711,-2.251,-2.2927,-2.3071,-2.3144,-2.3144,-2.3071,-2.2871,-2.251,-2.2294,-2.2221,-2.2294,-2.1813,-2.138,-2.1308,-2.0057,-1.9266,-1.9627,-1.9507,-1.9937,-2.1452,-2.2246,-2.3207,-2.4626,-2.4362,-2.4506,-2.5468,-2.5564,-2.5781,-2.631,-2.7296,-2.7392,-2.6382,-2.7753,-2.8522,-2.8522,-2.8522,-2.8522,-2.8522,-2.8522,-2.8522,-2.8522,-2.8522,-2.8522,-2.8522,-2.8522,-2.8522,-2.8546,-2.9003,-2.9484,-3.0013,-3.047,-3.1043,-3.1597,-3.1597,-3.1645,-3.1717,-2.1687,-2.1687,-2.1687,-2.1687,-2.1687,-2.1687,-2.1687,-2.1687,-2.1687,-2.1687,-2.1632,-2.1595,-2.1595,-2.1273,-2.0851,-2.0466,-2.0131,-1.9637,-1.8852,-1.8742,-1.8375,-1.7623,-1.7532,-1.7312,-1.6908,-1.7344,-1.7504,-1.7329,-1.804,-1.859,-1.8993,-1.9393,-2.0248,-2.1387,-2.1324,-2.1627,-2.2209,-2.2188,-2.2226,-2.2242,-2.2328,-2.2103,-2.1639,-2.1639,-2.1495,-2.1285,-2.135,-2.1203,-2.0919,-2.0786,-2.0753,-2.0774,-2.0706,-2.0694,-2.0781,-2.135,-2.1225,-2.1197,-2.2353,-2.3105,-2.3481,-2.3095,-2.336,-2.3673,-2.3673,-2.3336,-2.3119,-2.3481,-2.2823,-2.2318,-2.2775,-2.2053,-2.126,-2.0803,-2.0129,-1.9555,-1.9194,0.0,-2.1452,-2.2606,-2.3977,-2.5083,-2.5781,-2.5781,-2.5997,-2.6609,-2.6633,-2.6873,-2.7402,-2.8065,-2.8114,-2.745,-2.8138,-2.8522,-2.8522,-2.8522,-2.8522,-2.8522,-2.8522,-2.8522,-2.8522,-2.8522,-2.8522,-2.8522,-2.8522,-2.8522,-2.8522,-2.8595,-2.8955,-2.9436,-2.9508,-3.0134,-3.0999,-3.0999,-3.1332,-3.1717,-2.1687,-2.1687,-2.1687,-2.1687,-2.1687,-2.1687,-2.1687,-2.1687,-2.1687,-2.1687,-2.1302,-2.1028,-2.1028,-2.0521,-2.0063,-1.9879,-1.9696,-1.9347,-1.8742,-1.8705,-1.854,-1.8174,-1.7734,-1.7312,-1.6908,-1.7293,-1.7403,-1.722,-1.7789,-1.8082,-1.8067,-1.8447,-1.9056,-1.9853,-1.9836,-2.0472,-2.1462,-2.1273,-2.1163,-2.1201,-2.1278,-2.109,-2.074,-2.0985,-2.1026,-2.0907,-2.1197,-2.0919,-2.0334,-2.0083,-2.0002,-1.9968,-1.9658,-1.9883,-2.0314,-2.0555,-2.1174,-2.188,-2.2434,-2.3169,-2.3818,-2.3809,-2.4001,-2.4169,-2.4169,-2.3977,-2.3809,-2.3818,-2.3408,-2.3071,-2.3023,-2.2342,-2.1668,-2.1139,-2.0322,-1.9941,-2.0249,-2.1187,-2.2318,-2.364,-2.4939,-2.6069,-2.6887,-2.6719,-2.6887,-2.769,-2.7474,-2.7546,-2.8114,-2.8378,-2.8402,-2.8162,-2.8378,-2.8522,-2.8522,-2.8522,-2.8522,-2.8522,-2.8522,-2.8522,-2.8522,-2.8522,-2.8522,-2.8522,-2.8522,-2.8522,-2.8522,-2.8522,-2.8835,-2.9292,-2.9292,-2.9941,-3.0922,-3.0922,-3.1067,-3.1332,-2.1687,-2.1687,-2.1687,-2.1687,-2.1687,-2.1687,-2.1687,-2.1614,-2.154,-2.154,-2.0991,-2.0613,-2.0521,-1.9952,-1.9549,-1.9457,-1.9366,-1.9164,-1.8871,-1.8852,-1.876,-1.8577,-1.788,-1.7348,-1.7055,-1.744,-1.7642,-1.7642,-1.7972,-1.7917,-1.7495,-1.7734,-1.8097,-1.8559,-1.8546,-1.9392,-2.0757,-2.0352,-2.0235,-2.0235,-2.0235,-2.0062,-1.9869,-2.0275,-2.0458,-2.0487,-2.0822,-2.0427,-1.9727,-1.9248,-1.9149,-1.9158,-1.8734,-1.9187,-1.9847,-1.9847,-2.1006,-2.233,-2.2355,-2.2901,-2.3553,-2.3895,-2.4084,-2.4189,-2.4387,-2.4327,-2.4229,-2.4136,-2.3962,-2.3722,-2.34,-2.2919,-2.239,-2.1861,0.0,-2.1024,-2.1837,-2.251,-2.3448,-2.488,-2.5901,-2.6839,-2.7762,-2.7498,-2.7594,-2.845,-2.8138,-2.8089,-2.8498,-2.8522,-2.8522,-2.8522,-2.8522,-2.8522,-2.8522,-2.8522,-2.8522,-2.8522,-2.8522,-2.8522,-2.8522,-2.8522,-2.8522,-2.8522,-2.8522,-2.8522,-2.8522,-2.8522,-2.8739,-2.9124,-2.9124,-2.9677,-3.0518,-3.0518,-3.0706,-3.097,-2.1687,-2.1687,-2.1687,-2.1687,-2.1687,-2.1687,-2.1687,-2.1357,-2.1145,-2.1145,-2.1108,-2.0924,-2.0558,-2.0466,-2.0241,-1.9875,-1.9531,-1.9292,-1.9256,-1.9256,-1.8926,-1.8155,-1.7734,-1.7477,-1.7458,-1.7862,-1.8082,-1.8082,-1.8081,-1.7917,-1.7495,-1.7147,-1.7421,-1.8156,-1.8137,-1.8653,-1.9453,-1.9411,-1.9371,-1.9371,-1.9371,-1.9353,-1.9374,-1.9411,-1.9511,-1.9653,-1.9315,-1.9014,-1.8724,-1.8342,-1.844,-1.8745,-1.8708,-1.9106,-1.962,-1.962,-2.0369,-2.1255,-2.152,-2.1985,-2.2408,-2.238,-2.2746,-2.3297,-2.399,-2.3789,-2.3793,-2.4967,-2.4434,-2.3938,-2.4338,-2.4001,-2.3505,-2.2975,0.0,0.0,-2.3625,-2.4458,-2.5492,-2.6585,-2.721,-2.7825,-2.8402,-2.8426,-2.8426,-2.8498,-2.8474,-2.8474,-2.8522,-2.8522,-2.8522,-2.8522,-2.8522,-2.8522,-2.8522,-2.8522,-2.8522,-2.8522,-2.8522,-2.8522,-2.8522,-2.8522,-2.8522,-2.8522,-2.8522,-2.8522,-2.8522,-2.8522,-2.8522,-2.857,-2.857,-2.8907,-2.9412,-2.9412,-3.0037,-3.0922,-2.1347,-2.1526,-2.1571,-2.1687,-2.1687,-2.1687,-2.1687,-2.1559,-2.1357,-2.1145,-2.1108,-2.0869,-2.0186,-2.0113,-1.9989,-1.9567,-1.9402,-1.9292,-1.9292,-1.9072,-1.8797,-1.8504,-1.81,-1.788,-1.788,-1.8008,-1.8081,-1.8081,-1.8614,-1.8522,-1.788,-1.799,-1.8064,-1.81,-1.8338,-1.865,-1.8944,-1.9201,-1.9292,-1.9292,-1.9292,-1.9292,-1.9292,-1.9292,-1.9185,-1.904,-1.9153,-1.8822,-1.8341,-1.8583,-1.8751,-1.8883,-1.8749,-1.9032,-1.9355,-1.9126,-1.9327,-1.9696,-2.0035,-2.1392,-2.271,-2.271,-2.2863,-2.3069,-2.3342,-2.3282,-2.3288,-2.3759,-2.4194,-2.4188,-2.3254,-2.3812,-2.4178,-2.3395,0.0,-2.4225,-2.5085,-2.5853,-2.6561,-2.7306,-2.7897,-2.8282,-2.8498,-2.8522,-2.8522,-2.8522,-2.8522,-2.8522,-2.8522,-2.8522,-2.8522,-2.8522,-2.8522,-2.8522,-2.8522,-2.8522,-2.8522,-2.8522,-2.8522,-2.8522,-2.8522,-2.8522,-2.8522,-2.8522,-2.8522,-2.8522,-2.8522,-2.8522,-2.8522,-2.8522,-2.8522,-2.8835,-2.934,-2.9677,-3.0037,-3.047,-2.0184,-2.0609,-2.088,-2.1087,-2.1419,-2.1616,-2.1687,-2.1577,-2.1394,-2.1145,-2.0998,-2.0668,-1.9966,-1.9893,-1.9729,-1.9347,-1.9292,-1.9292,-1.9292,-1.9054,-1.8797,-1.854,-1.8394,-1.8283,-1.8283,-1.8283,-1.8338,-1.8485,-1.8797,-1.865,-1.8081,-1.8137,-1.8137,-1.81,-1.8412,-1.8669,-1.8926,-1.9182,-1.9292,-1.9292,-1.9292,-1.9292,-1.9292,-1.9292,-1.9127,-1.8926,-1.9072,-1.876,-1.8302,-1.8471,-1.8713,-1.8861,-1.8583,-1.8901,-1.9353,-1.9127,-1.907,-1.9165,-1.9601,-2.0952,-2.2268,-2.2307,-2.2345,-2.2463,-2.2917,-2.3036,-2.3112,-2.334,-2.4076,-2.4287,-2.3082,-2.3838,-2.4476,-2.415,-2.4448,-2.5205,-2.6439,-2.7042,-2.7522,-2.7921,-2.8282,-2.8522,-2.8522,-2.8522,-2.8522,-2.8522,-2.8522,-2.8522,-2.8522,-2.8522,-2.8595,-2.8763,-2.8763,-2.8835,-2.9003,-2.8835,-2.8763,-2.8763,-2.8763,-2.8667,-2.8522,-2.8522,-2.8522,-2.8522,-2.8522,-2.8522,-2.8522,-2.8522,-2.8522,-2.8522,-2.8522,-2.8739,-2.9124,-2.9653,-2.9941,-3.0206,-1.7994,-1.8826,-1.9575,-1.9849,-2.0727,-2.1482,-2.1642,-2.1339,-2.1108,-2.1108,-2.0778,-2.0332,-1.993,-1.9893,-1.9729,-1.9347,-1.9292,-1.9292,-1.9292,-1.9292,-1.8944,-1.8118,-1.8504,-1.8705,-1.8724,-1.8705,-1.8907,-1.9292,-1.8522,-1.81,-1.8063,-1.7293,-1.7348,-1.8081,-1.8081,-1.8559,-1.9292,-1.9292,-1.9292,-1.9292,-1.9292,-1.9292,-1.9292,-1.9292,-1.9292,-1.9237,-1.8852,-1.8705,-1.8577,-1.7789,-1.8045,-1.865,-1.821,-1.8802,-1.9645,-1.9824,-1.9902,-1.9997,-2.0453,-2.0566,-2.0647,-2.0849,-2.0889,-2.1288,-2.2737,-2.3082,-2.3304,-2.4043,-2.4201,-2.4201,-2.4201,-2.4201,-2.4517,-2.5438,-2.6027,-2.6688,-2.7574,-2.8146,-2.8459,-2.8459,-2.8459,-2.8459,-2.8459,-2.8459,-2.8459,-2.8459,-2.8483,-2.8498,-2.8522,-2.8522,-2.8763,-2.9268,-2.9292,-2.9556,-3.0086,-2.9556,-2.9292,-2.9292,-2.9292,-2.9027,-2.8522,-2.8522,-2.8522,-2.8522,-2.8522,-2.8522,-2.8522,-2.8522,-2.8522,-2.8522,-2.8522,-2.8522,-2.857,-2.91,-2.9629,-3.0158,-1.7608,-1.8596,-1.9147,-1.8642,-1.9985,-2.0727,-1.9559,-2.0487,-2.0997,-2.0228,-2.0609,-2.0668,-1.9966,-1.9893,-1.9729,-1.9347,-1.9292,-1.9182,-1.8907,-1.8889,-1.8779,-1.854,-1.865,-1.8834,-1.9109,-1.8852,-1.8779,-1.8889,-1.8926,-1.8669,-1.8081,-1.8155,-1.8155,-1.8081,-1.8081,-1.821,-1.8485,-1.8485,-1.8485,-1.8485,-1.8485,-1.8485,-1.8485,-1.8485,-1.8284,-1.81,-1.854,-1.854,-1.8319,-1.865,-1.8926,-1.9054,-1.8669,-1.8744,-1.8966,-1.9044,-1.9044,-1.9192,-1.9894,-2.0098,-2.0276,-2.0945,-2.1104,-2.1266,-2.1836,-2.1979,-2.2103,-2.2513,-2.3309,-2.3638,-2.2778,-2.3577,-2.4388,-2.4358,-2.474,-2.5373,-2.624,-2.6476,-2.6629,-2.6629,-2.6629,-2.6629,-2.6629,-2.6629,-2.6629,-2.6629,-2.7226,-2.7857,-2.8459,-2.8522,-2.829,-2.7825,-2.7825,-2.7769,-2.766,-2.8763,-2.9292,-2.9292,-2.9292,-2.9027,-2.8522,-2.8907,-2.8859,-2.8522,-2.8522,-2.8522,-2.8522,-2.8522,-2.8522,-2.8522,-2.8522,-2.8522,-2.857,-2.91,-2.9388,-2.9605,-1.6217,-1.7142,-1.7747,-1.7328,-1.8626,-1.9376,-1.8395,-1.9621,-2.0432,-1.986,-2.0457,-2.0784,-2.0186,-1.9985,-1.9729,-1.9347,-1.9292,-1.9127,-1.8742,-1.8852,-1.8871,-1.8724,-1.8871,-1.9054,-1.9292,-1.8926,-1.8705,-1.8705,-1.8632,-1.843,-1.8081,-1.8045,-1.8045,-1.8081,-1.7917,-1.7972,-1.8081,-1.8081,-1.8081,-1.8081,-1.8081,-1.8081,-1.8081,-1.8081,-1.7972,-1.7825,-1.8485,-1.8559,-1.8393,-1.8907,-1.9072,-1.9054,-1.8962,-1.8944,-1.8944,-1.8944,-1.9072,-1.9347,-1.9948,-2.0241,-2.0545,-2.1224,-2.1358,-2.141,-2.1793,-2.1959,-2.2044,-2.2213,-2.2941,-2.3295,-2.2506,-2.3265,-2.3978,-2.4031,-2.4322,-2.4787,-2.5694,-2.5777,-2.5777,-2.5777,-2.5777,-2.5777,-2.5777,-2.5777,-2.5777,-2.5777,-2.634,-2.6876,-2.7406,-2.7406,-2.7481,-2.7502,-2.7525,-2.7505,-2.7428,-2.8328,-2.8799,-2.8775,-2.9128,-2.9027,-2.8522,-2.8835,-2.8811,-2.8522,-2.8522,-2.8522,-2.8522,-2.8522,-2.8522,-2.8522,-2.8522,-2.8522,-2.857,-2.91,-2.9292,-2.9388,-1.4292,-1.5092,-1.5839,-1.6015,-1.6955,-1.7654,-1.7701,-1.8642,-1.9376,-1.9526,-2.0103,-2.039,-2.0165,-1.981,-1.943,-1.9091,-1.9116,-1.9012,-1.8742,-1.9054,-1.9091,-1.8724,-1.9091,-1.9292,-1.9256,-1.8889,-1.8687,-1.8669,-1.7917,-1.7734,-1.8008,-1.7312,-1.733,-1.799,-1.7605,-1.766,-1.7972,-1.7972,-1.7972,-1.7972,-1.7972,-1.799,-1.8027,-1.799,-1.8027,-1.8136,-1.8484,-1.8687,-1.8724,-1.876,-1.876,-1.8834,-1.9182,-1.9292,-1.9311,-1.9347,-1.9582,-1.9985,-2.0406,-2.0833,-2.12,-2.1595,-2.1632,-2.1665,-2.2259,-2.2574,-2.275,-2.275,-2.2925,-2.3057,-2.3057,-2.3057,-2.3299,-2.4166,-2.4317,-2.4616,-2.54,-2.5526,-2.5526,-2.5568,-2.5568,-2.5568,-2.5568,-2.5568,-2.5568,-2.5694,-2.5694,-2.5694,-2.5777,-2.5777,-2.6373,-2.7641,-2.7683,-2.7846,-2.8216,-2.7869,-2.7748,-2.7878,-2.8692,-2.876,-2.8259,-2.8307,-2.8347,-2.8379,-2.8379,-2.8419,-2.8522,-2.8522,-2.8522,-2.8522,-2.8522,-2.8522,-2.857,-2.9051,-2.922,-2.9316,-1.4292,-1.5092,-1.5568,-1.4854,-1.6217,-1.6922,-1.5615,-1.6922,-1.7796,-1.7037,-1.7428,-1.7743,-1.7477,-1.7084,-1.6885,-1.7025,-1.7525,-1.8043,-1.8685,-1.8797,-1.8797,-1.8724,-1.9091,-1.9164,-1.8852,-1.876,-1.8559,-1.821,-1.8082,-1.7862,-1.7623,-1.7458,-1.7293,-1.7165,-1.7073,-1.7092,-1.7165,-1.7165,-1.7165,-1.7165,-1.7165,-1.7348,-1.7605,-1.7293,-1.7568,-1.81,-1.8191,-1.8411,-1.876,-1.9072,-1.9164,-1.9182,-1.9274,-1.9292,-1.9366,-1.9696,-1.982,-2.004,-2.0796,-2.1034,-2.12,-2.1595,-2.1676,-2.1754,-2.2069,-2.222,-2.2309,-2.2441,-2.253,-2.2574,-2.2574,-2.2574,-2.2618,-2.2818,-2.2862,-2.2994,-2.3387,-2.343,-2.3517,-2.3691,-2.3691,-2.3691,-2.3691,-2.3691,-2.3973,-2.4744,-2.4787,-2.5084,-2.5735,-2.5777,-2.5611,-2.5275,-2.5275,-2.4932,-2.43,-2.4932,-2.5786,-2.6925,-2.7095,-2.6892,-2.6381,-2.6802,-2.7156,-2.747,-2.747,-2.7898,-2.8522,-2.8522,-2.8522,-2.8522,-2.8522,-2.8522,-2.8522,-2.8643,-2.8691,-2.8811,-1.4292,-1.4723,-1.4902,-1.4388,-1.5188,-1.5568,-1.464,-1.5792,-1.6617,-1.6183,-1.6841,-1.7175,-1.682,-1.6591,-1.6404,-1.6206,-1.6548,-1.6973,-1.7547,-1.7587,-1.7666,-1.7746,-1.7934,-1.7866,-1.7466,-1.7317,-1.7459,-1.7825,-1.7825,-1.7715,-1.7495,-1.7293,-1.7202,-1.7183,-1.7,-1.6908,-1.6908,-1.6908,-1.6908,-1.6908,-1.6908,-1.7147,-1.7477,-1.7257,-1.7568,-1.8118,-1.8339,-1.865,-1.9017,-1.9237,-1.9439,-1.9567,-1.9366,-1.9439,-1.9604,-1.9622,-1.9916,-2.0301,-2.0723,-2.1108,-2.1456,-2.1632,-2.1687,-2.1731,-2.1865,-2.2017,-2.215,-2.222,-2.2353,-2.2397,-2.2397,-2.2397,-2.2397,-2.2397,-2.2397,-2.2441,-2.2574,-2.2618,-2.2662,-2.275,-2.2794,-2.2794,-2.2794,-2.2882,-2.3188,-2.3647,-2.3777,-2.4016,-2.4488,-2.4531,-2.4531,-2.4488,-2.4488,-2.4231,-2.3777,-2.4251,-2.4655,-2.4927,-2.6045,-2.6299,-2.5799,-2.6519,-2.671,-2.6547,-2.6752,-2.702,-2.7203,-2.7203,-2.7203,-2.7203,-2.7203,-2.7203,-2.7244,-2.7713,-2.7898,-2.7911,-1.4292,-1.4292,-1.4292,-1.4292,-1.4292,-1.4292,-1.4292,-1.4997,-1.5589,-1.5759,-1.65,-1.681,-1.6389,-1.6315,-1.615,-1.5767,-1.5764,-1.5928,-1.6314,-1.6314,-1.6396,-1.656,-1.6617,-1.6458,-1.6071,-1.5928,-1.6266,-1.7081,-1.7171,-1.7206,-1.7206,-1.6985,-1.7092,-1.7385,-1.7055,-1.6945,-1.7,-1.6825,-1.6897,-1.7075,-1.6934,-1.7206,-1.7697,-1.7623,-1.7899,-1.8319,-1.8576,-1.8962,-1.9292,-1.9292,-1.9586,-1.982,-1.9512,-1.9696,-1.993,-1.9696,-2.0099,-2.0631,-2.0704,-2.1174,-2.1687,-2.1687,-2.1687,-2.1687,-2.1687,-2.1865,-2.2043,-2.2043,-2.2176,-2.2264,-2.2264,-2.2264,-2.2264,-2.2264,-2.2264,-2.2309,-2.2353,-2.2353,-2.2353,-2.2397,-2.2397,-2.2397,-2.2397,-2.2618,-2.2706,-2.2706,-2.2882,-2.2969,-2.2969,-2.3013,-2.3387,-2.4188,-2.4251,-2.4231,-2.4231,-2.4231,-2.3864,-2.3101,-2.5074,-2.5787,-2.5359,-2.6172,-2.6173,-2.5589,-2.6087,-2.6107,-2.5777,-2.5777,-2.5777,-2.5777,-2.5777,-2.5777,-2.5902,-2.667,-2.6958,-2.6926,-1.4292,-1.4292,-1.4292,-1.4292,-1.4292,-1.4292,-1.4292,-1.4436,-1.4446,-1.4213,-1.4118,-1.3948,-1.3636,-1.3646,-1.3881,-1.4573,-1.4782,-1.5184,-1.6011,-1.6052,-1.6093,-1.6093,-1.6314,-1.624,-1.5872,-1.6307,-1.6213,-1.5421,-1.585,-1.6016,-1.6052,-1.6648,-1.6927,-1.6982,-1.6927,-1.7092,-1.7368,-1.6613,-1.6915,-1.788,-1.7121,-1.7499,-1.8504,-1.8174,-1.8504,-1.9109,-1.8815,-1.8962,-1.9292,-1.9292,-1.9586,-1.9875,-1.982,-2.0076,-2.0503,-2.0778,-2.0943,-2.1108,-2.1431,-2.1614,-2.1687,-2.1687,-2.1687,-2.1687,-2.1687,-2.1731,-2.1731,-2.1731,-2.1776,-2.1776,-2.1776,-2.1776,-2.1776,-2.1776,-2.1776,-2.1865,-2.2106,-2.2132,-2.222,-2.2397,-2.2397,-2.2397,-2.2397,-2.2441,-2.2441,-2.2441,-2.2485,-2.2485,-2.2485,-2.2706,-2.2882,-2.3013,-2.3188,-2.3299,-2.3299,-2.3299,-2.3232,-2.3101,-2.3841,-2.391,-2.3493,-2.3989,-2.4371,-2.468,-2.5095,-2.5486,-2.5777,-2.5777,-2.5777,-2.5777,-2.5777,-2.5777,-2.5819,-2.5944,-2.5986,-2.6074,-1.4292,-1.4292,-1.4292,-1.4292,-1.4292,-1.4244,-1.4099,-1.4208,-1.4147,-1.3737,-1.3713,-1.358,-1.3169,-1.2966,-1.3039,-1.3408,-1.3535,-1.3831,-1.4364,-1.4364,-1.4406,-1.4531,-1.4671,-1.4657,-1.4475,-1.4694,-1.4548,-1.4095,-1.5341,-1.5847,-1.5634,-1.5966,-1.6049,-1.5882,-1.5882,-1.6153,-1.6528,-1.6378,-1.6605,-1.7,-1.6853,-1.697,-1.7276,-1.7586,-1.806,-1.8621,-1.8894,-1.9146,-1.9292,-1.9292,-1.9732,-2.0228,-1.9966,-2.0314,-2.0833,-2.0796,-2.0943,-2.1145,-2.1328,-2.1522,-2.1687,-2.1687,-2.1687,-2.1687,-2.1687,-2.187,-2.1961,-2.1742,-2.187,-2.1961,-2.1742,-2.1687,-2.1687,-2.1687,-2.1687,-2.1731,-2.1865,-2.1865,-2.2002,-2.2314,-2.2333,-2.2333,-2.2333,-2.2692,-2.282,-2.2576,-2.2692,-2.2737,-2.2737,-2.2599,-2.2574,-2.2574,-2.2662,-2.2706,-2.2706,-2.2706,-2.2794,-2.2925,-2.3351,-2.3421,-2.312,-2.3828,-2.3994,-2.3754,-2.4195,-2.4355,-2.4274,-2.4274,-2.4274,-2.4274,-2.4274,-2.4616,-2.4999,-2.4488,-2.4616,-2.5062]}]]